     2              OBSERVATION DATA    GPS                 RINEX VERSION / TYPE
teqc 1999Jul19 20000201 02:04:45UTC                         PGM / RUN BY / DATE
                                                            COMMENT
L2: 1 -> 1; 5 -> 5; 60 -> 9                                 COMMENT
L2: 1 -> 1; 5 -> 5; 60 -> 9                                 COMMENT
L2: 1 -> 1; 5 -> 5; 60 -> 9                                 COMMENT
L2: 1 -> 1; 5 -> 5; 60 -> 9                                 COMMENT
L2: 1 -> 1; 5 -> 5; 60 -> 9                                 COMMENT
Original Marker Name: 0029                                  COMMENT
Campaign Name: Imperial Valley Leveling                     COMMENT
4-Character Station Name: 0029                              COMMENT
6-Character Antenna Code: TRMSST                            COMMENT
Vertical Measurement Point: BPA                             COMMENT
Vertical Offset to Rinex Ref. Point: 0.0000                 COMMENT
Radial Measurement Point: RRP                               COMMENT
Radial Offset to Rinex Ref. Point: 0.0000                   COMMENT
Antenna Height from Field Measurement: 2.2160 m             COMMENT
Additional Antenna Identification Info.:                    COMMENT
Model 14532.00                                              COMMENT
Original XYZ: -2302769.3953 -4825900.8927 3465047.1260      COMMENT
New XYZ position is based on association with SCEC monument COMMENT
E1C8Z4V2+0011. Position of that monument is believed to be  COMMENT
valid to within 1 m horizontally; vertical accuracy         COMMENT
should be no worse than 3-times this value.                 COMMENT
                                                            COMMENT
Revised Rinex header created by UCSD GPS archive for        COMMENT
GSAC on 17-Jul-2000 (2000:199) 21:56:39 GMT                 COMMENT
For assistance contact dagnew@ucsd.edu                      COMMENT
or anderson@python.ucsd.edu                                 COMMENT
                                                            COMMENT
C-611                                                       MARKER NAME
0029                                                        MARKER NUMBER
-Unknown- CALIF DEPT TRANSPORTATION                         OBSERVER / AGENCY
7377 TRIMBLE 4000 SSE NP 6.11; SP 2.12                      REC # / TYPE / VERS
S/N UNKNOWN TR 4000SST L1/L2 GEO                            ANT # / TYPE
 -2302773.4291 -4825898.0638  3465044.8005                  APPROX POSITION XYZ
        2.2160        0.0000        0.0000                  ANTENNA: DELTA H/E/N
     1     1     0                                          WAVELENGTH FACT L1/2
     7    C1    L1    L2    P1    P2    S1    S2            # / TYPES OF OBSERV
     0                                                      INTERVAL
  1995     4    21    19    15   45.000000                  TIME OF FIRST OBS
  1995     4    21    22    14   60.000000                  TIME OF LAST OBS
                                                            END OF HEADER
 95  4 21 19 15 45.0000000  0  6G 2G 7G15G19G26G27
                     -8294.71116     -6463.42216  21291545.602    21291548.961
        19.500          20.500
                    -90418.41016    -70455.66316  21061449.281    21061453.516
        16.250          22.750
                    -36368.37214    -28338.81215  23846987.914    23846993.141
         7.000           9.250
                      4435.79515      3456.79116  22648269.484    22648273.902
        11.500          12.500
                    -92773.70215    -72291.59615  23896742.391    23896746.766
         8.250           9.000
                     25316.82916     19727.29316  20529161.109    20529164.520
        17.750          20.250
 95  4 21 19 16  0.0000000  0  6G 2G 7G15G19G26G27
                    -14709.979 6    -11462.314 6  21290324.891    21290328.250
        19.250          20.750
                   -122937.799 6    -95795.414 6  21055261.211    21055265.426
        16.250          23.000
                    -49553.130 4    -38612.616 5  23844478.961    23844484.375
         7.000           9.000
                     37659.005 5     29344.995 6  22654591.523    22654596.352
        11.000          12.750
                   -126118.569 5    -98274.578 5  23890397.133    23890401.363
         8.000           8.500
                     34148.367 6     26609.019 6  20530841.750    20530845.262
        17.750          20.250
 95  4 21 19 16 15.0000000  0  6G 2G 7G15G19G26G27
                    -21266.153 6    -16571.012 6  21289077.109    21289080.711
        19.000          21.000
                   -155522.996 6   -121186.448 6  21049060.531    21049064.527
        16.250          23.000
                    -62788.550 4    -48925.910 5  23841960.477    23841965.734
         6.750           9.000
                     70775.168 5     55149.775 6  22660893.172    22660898.066
        11.000          12.750
                   -159527.026 5   -124307.125 5  23884039.547    23884043.836
         8.000           8.500
                     42920.017 6     33444.071 6  20532511.250    20532514.453
        17.750          20.250
 95  4 21 19 16 30.0000000  0  6G 2G 7G15G19G26G27
                    -27942.410 6    -21773.281 6  21287806.633    21287810.121
        18.750          21.000
                   -188151.506 6   -146611.237 6  21042851.656    21042855.684
        16.250          23.000
                    -76052.848 4    -59261.697 5  23839435.867    23839441.238
         6.750           8.500
                    103805.738 5     80887.863 6  22667178.922    22667183.836
        11.000          12.500
                   -192980.429 5   -150374.697 5  23877673.883    23877677.859
         7.750           8.250
                     51652.363 6     40248.502 6  20534172.969    20534176.082
        17.500          20.250
 95  4 21 19 16 45.0000000  0  6G 2G 7G15G19G26G27
                    -34724.156 6    -27057.747 6  21286516.242    21286519.531
        18.750          20.750
                   -220813.199 6   -172061.884 6  21036636.258    21036640.285
        16.000          23.000
                    -89332.741 5    -69609.663 5  23836909.461    23836913.637
         7.500           7.750
                    136764.690 5    106570.146 6  22673450.492    22673455.941
        10.750          12.500
                   -226463.366 5   -176465.270 5  23871302.469    23871306.203
         7.750           8.250
                     60357.727 6     47031.906 6  20535829.375    20535832.824
        17.250          20.250
 95  4 21 19 17  0.0000000  0  6G 2G 7G15G19G26G27
                    -41594.721 6    -32411.420 6  21285208.977    21285212.125
        19.000          20.750
                   -253494.443 6   -197527.761 6  21030417.125    21030421.219
        16.000          23.250
                   -102613.006 5    -79957.921 5  23834382.180    23834387.391
         7.500           8.500
                    169672.286 5    132212.404 6  22679713.078    22679718.195
        11.000          12.250
                   -259960.686 5   -202567.055 5  23864927.414    23864931.586
         7.500           8.250
                     69049.006 6     53804.335 6  20537483.422    20537486.844
        17.250          20.250
 95  4 21 19 17 15.0000000  0  6G 2G 7G15G19G26G27
                    -48542.495 6    -37825.258 6  21283886.828    21283889.996
        18.750          20.750
                   -286181.545 6   -222998.207 6  21024197.016    21024201.168
        15.750          23.250
                   -115882.273 4    -90297.590 5  23831857.164    23831862.602
         7.000           9.750
                    202543.897 5    157826.633 5  22685968.570    22685973.129
        11.250          11.750
                   -293463.395 5   -228673.043 5  23858551.922    23858555.906
         7.500           8.250
                     77735.970 6     60573.398 6  20539136.359    20539139.637
        17.250          20.250
 95  4 21 19 17 30.0000000  0  6G 2G 7G15G19G26G27
                    -55563.532 6    -43296.185 6  21282550.727    21282554.102
        18.750          21.000
                   -318867.881 6   -248468.055 6  21017976.914    21017981.246
        15.750          23.500
                   -129136.202 4   -100625.286 5  23829334.492    23829340.441
         7.000           9.750
                    235383.028 5    183415.549 5  22692217.602    22692222.293
        11.000          11.750
                   -326973.235 5   -254784.580 5  23852175.570    23852179.602
         7.500           8.250
                     86423.638 6     67343.008 6  20540789.516    20540793.004
        17.250          20.250
 95  4 21 19 17 45.0000000  0  6G 2G 7G15G19G26G27
                    -62654.309 6    -48821.460 6  21281201.414    21281204.871
        18.750          21.250
                   -351549.456 6   -273934.196 6  21011757.906    21011762.156
        15.750          23.250
                   -142368.004 4   -110935.764 5  23826817.148    23826822.117
         7.250           9.750
                    268195.757 5    208983.898 5  22698461.727    22698466.363
        11.000          11.750
                   -360486.891 5   -280899.103 5  23845798.148    23845801.934
         7.750           8.250
                     95117.019 6     74117.066 6  20542444.055    20542447.457
        17.250          20.250
 95  4 21 19 18  0.0000000  0  6G 2G 7G15G19G26G27
                    -69813.590 6    -54400.112 6  21279839.031    21279842.566
        19.000          21.250
                   -384225.045 6   -299395.670 6  21005539.859    21005544.020
        15.750          23.000
                   -155573.912 4   -121226.091 5  23824304.055    23824308.887
         7.250           9.250
                    300984.563 5    234533.591 6  22704701.461    22704706.285
        11.000          12.000
                   -393999.576 5   -307012.859 5  23839421.188    23839424.781
         8.000           8.250
                    103818.374 6     80897.342 6  20544099.773    20544103.043
        17.250          20.000
 95  4 21 19 18 15.0000000  0  6G 2G 7G15G19G26G27
                    -77036.425 6    -60028.290 6  21278464.508    21278468.055
        19.000          21.500
                   -416890.188 6   -324849.008 6  20999323.844    20999327.871
        15.750          23.000
                   -168748.134 4   -131491.703 5  23821796.461    23821802.188
         6.750           9.750
                    333753.872 5    260068.093 6  22710936.742    22710941.641
        11.000          12.250
                   -427507.019 5   -333122.538 5  23833044.711    23833048.520
         8.250           8.250
                    112530.288 6     87685.847 6  20545757.484    20545760.793
        17.250          20.000
 95  4 21 19 18 30.0000000  0  6G 2G 7G15G19G26G27
                    -84323.549 6    -65706.560 6  21277078.031    21277081.512
        19.000          21.250
                   -449543.309 6   -350292.978 6  20993110.000    20993114.172
        15.500          23.000
                   -181888.803 4   -141731.159 5  23819296.297    23819301.969
         7.000           9.750
                    366505.213 5    285588.597 6  22717169.211    22717174.309
        11.000          12.250
                   -461010.709 5   -359229.302 5  23826669.656    23826672.891
         8.500           8.250
                    121256.006 6     94485.106 6  20547418.219    20547421.457
        17.250          20.250
 95  4 21 19 18 45.0000000  0  6G 2G 7G15G19G26G27
                    -91671.359 6    -71432.121 6  21275679.578    21275683.016
        19.000          21.000
                   -482179.789 6   -375723.981 6  20986899.531    20986903.836
        15.500          23.000
                   -194993.166 5   -151942.327 5  23816802.992    23816807.949
         7.750           9.500
                    399239.926 5    311096.144 6  22723398.359    22723403.434
        10.750          12.250
                   -494506.162 5   -385329.644 5  23820295.477    23820299.418
         8.500           8.250
                    129999.576 6    101298.275 6  20549081.805    20549085.094
        17.250          20.250
 95  4 21 19 19  0.0000000  0  6G 2G 7G15G19G26G27
                    -99072.823 6    -77199.486 6  21274271.148    21274274.418
        19.000          21.000
                   -514793.255 6   -401137.051 6  20980693.367    20980697.648
        15.500          23.000
                   -208057.714 5   -162122.488 5  23814317.078    23814321.426
         8.000           8.750
                    431961.260 5    336593.260 5  22729625.289    22729629.785
        10.750          11.750
                   -527991.900 5   -411422.414 5  23813923.547    23813926.883
         8.500           8.250
                    138766.378 6    108129.546 6  20550750.086    20550753.586
        17.000          20.250
 95  4 21 19 19 15.0000000  0  6G 2G 7G15G19G26G27
                   -106524.965 6    -83006.348 6  21272853.070    21272856.449
        19.000          21.000
                   -547376.501 6   -426526.575 6  20974493.125    20974497.188
        15.500          22.750
                   -221077.348 5   -172267.649 5  23811839.328    23811843.824
         7.500           8.500
                    464671.931 5    362082.066 5  22735849.922    22735854.332
        11.000          11.500
                   -561463.492 5   -437504.164 5  23807553.930    23807557.707
         8.500           8.250
                    147561.863 6    114983.165 6  20552423.820    20552427.203
        17.000          20.250
 95  4 21 19 19 30.0000000  0  6G 2G 7G15G19G26G27
                   -114023.920 6    -88849.681 6  21271426.133    21271429.484
        19.000          21.250
                   -579927.864 6   -451891.254 6  20968298.594    20968302.695
        15.250          22.500
                   -234050.309 4   -182376.442 5  23809370.328    23809375.613
         7.000           8.250
                    497369.804 5    387560.900 5  22742072.219    22742076.660
        11.250          11.500
                   -594917.517 5   -463572.219 5  23801187.508    23801191.656
         8.500           8.500
                    156390.038 6    121862.257 6  20554104.008    20554107.145
        17.250          20.250
 95  4 21 19 19 45.0000000  0  6G 2G 7G15G19G26G27
                   -121565.441 6    -94726.190 6  21269991.031    21269994.414
        19.000          21.250
                   -612446.709 6   -477230.598 6  20962110.539    20962114.465
        15.500          22.250
                   -246973.481 4   -192446.446 5  23806911.539    23806915.934
         7.250           8.250
                    530055.846 5    413030.527 5  22748292.289    22748296.754
        11.750          11.500
                   -628346.285 5   -489620.596 5  23794826.578    23794829.777
         8.750           8.500
                    165254.612 6    128769.715 6  20555790.844    20555794.035
        17.000          20.250
 95  4 21 19 20  0.0000000  0  6G 2G 7G15G19G26G27
                   -129148.086 6   -100634.736 6  21268548.148    21268551.492
        19.000          21.250
                   -644932.623 6   -502544.279 6  20955928.648    20955932.645
        15.500          22.250
                   -259846.204 5   -202477.155 5  23804462.102    23804466.305
         7.500           8.250
                    562729.640 5    438490.603 5  22754509.898    22754514.453
        11.500          11.500
                   -661746.394 5   -515646.635 5  23788470.625    23788474.113
         9.000           8.750
                    174155.456 6    135705.436 6  20557484.227    20557487.539
        17.000          20.250
 95  4 21 19 20 15.0000000  0  6G 2G 7G15G19G26G27
                   -136770.162 6   -106574.010 6  21267097.695    21267101.020
        18.750          21.000
                   -677381.680 6   -527829.241 6  20949753.719    20949757.773
        15.500          22.000
                   -272667.681 4   -212467.917 5  23802021.875    23802026.891
         6.750           8.500
                    595390.433 5    463940.543 5  22760725.156    22760729.695
        11.750          11.500
                   -695116.708 5   -541649.467 5  23782120.992    23782124.098
         9.000           8.750
                    183094.832 6    142671.179 6  20559185.336    20559188.801
        17.000          20.250
 95  4 21 19 20 30.0000000  0  6G 2G 7G15G19G26G27
                   -144429.887 6   -112542.624 6  21265640.008    21265643.328
        18.750          21.000
                   -709790.312 6   -553082.707 6  20943586.609    20943590.633
        15.500          22.250
                   -285435.220 4   -222416.627 5  23799591.828    23799597.480
         6.250           8.750
                    628041.098 5    489382.589 5  22766938.477    22766942.805
        11.500          11.500
                   -728454.289 5   -567626.792 5  23775776.961    23775780.281
         9.000           8.750
                    192075.224 6    149668.885 6  20560894.336    20560898.082
        17.000          20.250
 95  4 21 19 20 45.0000000  0  6G 2G 7G15G19G26G27
                   -152126.790 6   -118540.207 6  21264175.414    21264178.633
        18.750          21.000
                   -742155.994 6   -578302.704 6  20937427.688    20937431.602
        15.250          22.250
                   -298147.022 4   -232321.899 5  23797173.344    23797178.254
         6.250           8.500
                    660681.176 5    514816.389 5  22773149.742    22773153.805
        11.500          11.500
                   -761753.558 5   -593574.262 5  23769440.008    23769443.871
         8.750           9.000
                    201099.249 6    156700.587 6  20562611.852    20562615.199
        17.250          20.250
 95  4 21 19 21  0.0000000  0  6G 2G 7G15G19G26G27
                   -159858.531 6   -124564.933 6  21262704.148    21262707.492
        18.750          21.000
                   -774478.954 6   -603489.409 6  20931276.711    20931280.809
        15.250          22.250
                   -310802.276 4   -242183.136 5  23794765.320    23794770.215
         6.500           8.250
                    693311.236 5    540242.379 5  22779358.898    22779363.480
        10.750          11.500
                   -795009.309 5   -619487.818 5  23763111.563    23763115.453
         8.500           9.000
                    210167.066 6    163766.418 6  20564337.328    20564340.445
        17.000          20.000
 95  4 21 19 21 15.0000000  0  6G 2G 7G15G19G26G27
                   -167627.942 6   -130619.016 6  21261225.789    21261228.922
        18.750          20.750
                   -806761.709 6   -628644.786 6  20925133.719    20925137.660
        15.500          22.250
                   -323402.862 4   -252001.765 5  23792366.727    23792372.121
         6.250           8.000
                    725930.586 5    565660.034 5  22785566.063    22785570.828
        10.750          11.500
                   -828222.962 5   -645368.581 5  23756791.180    23756794.781
         8.250           8.750
                    219277.353 6    170865.341 6  20566070.836    20566074.152
        17.000          19.750
 95  4 21 19 21 30.0000000  0  6G 2G 7G15G19G26G27
                   -175428.176 6   -136697.114 6  21259741.398    21259744.633
        18.750          21.000
                   -838998.863 6   -653764.633 6  20918999.164    20919003.152
        15.500          22.250
                   -335941.551 4   -261772.167 5  23789980.969    23789985.898
         6.250           7.750
                    758545.241 5    591074.028 5  22791772.578    22791777.621
        10.750          11.750
                   -861386.187 5   -671210.038 5  23750480.250    23750484.328
         8.250           9.000
                    228435.393 6    178001.472 6  20567813.625    20567817.004
        17.000          19.750
 95  4 21 19 21 45.0000000  0  6G 2G 7G15G19G26G27
                   -183257.281 6   -142797.713 6  21258251.484    21258254.934
        18.750          20.750
                   -871187.770 6   -678846.882 6  20912873.844    20912877.809
        15.500          22.250
                   -348417.149 4   -271493.400 5  23787607.281    23787611.953
         6.750           7.250
                    791156.645 5    616485.484 5  22797978.266    22797983.227
        10.750          11.750
                   -894498.079 5   -697011.501 5  23744179.156    23744183.191
         8.000           9.000
                    237643.757 6    185176.817 6  20569566.078    20569569.195
        17.000          19.750
 95  4 21 19 22  0.0000000  0  6G 2G 7G15G19G26G27
                   -191117.585 6   -148922.621 6  21256755.805    21256759.113
        18.750          21.000
                   -903327.720 6   -703890.983 6  20906757.680    20906761.734
        15.500          22.500
                   -360828.146 4   -281164.318 5  23785245.789    23785250.297
         7.000           7.000
                    823766.095 5    641895.422 5  22804183.625    22804188.371
        10.750          11.750
                   -927560.238 5   -722774.206 5  23737887.297    23737891.914
         7.750           9.000
                    246902.812 6    192391.663 6  20571327.914    20571331.332
        16.500          19.750
 95  4 21 19 22 15.0000000  0  6G 2G 7G15G19G26G27
                   -199007.286 6   -155070.436 6  21255254.398    21255257.793
        18.750          20.750
                   -935414.540 6   -728893.686 6  20900651.891    20900656.031
        15.250          22.500
                   -373172.413 4   -290783.234 5  23782896.242    23782901.012
         6.500           7.000
                    856374.560 5    667304.591 5  22810388.867    22810393.602
        10.750          11.500
                   -960571.852 5   -748497.527 5  23731605.367    23731610.457
         7.750           9.250
                    256216.237 6    199648.869 6  20573100.070    20573103.668
        16.500          19.750
 95  4 21 19 22 30.0000000  0  6G 2G 7G15G19G26G27
                   -206925.395 6   -161240.386 6  21253747.648    21253750.941
        19.000          21.000
                   -967447.592 6   -753854.493 6  20894556.164    20894560.203
        15.500          22.750
                   -385448.748 3   -300349.201 5  23780559.961    23780565.520
         6.000           7.750
                    888982.355 5    692713.236 5  22816594.188    22816598.484
        10.500          11.500
                   -993531.737 5   -774180.537 5  23725333.422    23725338.391
         8.000           9.750
                    265585.048 6    206949.235 6  20574882.867    20574886.414
        16.500          19.750
 95  4 21 19 22 45.0000000  0  6G 2G 7G15G19G26G27
                   -214869.086 6   -167430.270 6  21252236.078    21252239.418
        19.000          21.000
                   -999428.174 6   -778774.410 6  20888470.313    20888474.492
        15.500          22.500
                   -397655.256 3   -309860.747 5  23778237.625    23778243.211
         6.000           8.250
                    921590.538 5    718122.182 5  22822799.172    22822803.785
        10.000          11.500
                  -1026437.054 5   -799821.025 5  23719072.063    23719076.727
         8.250           9.750
                    275010.728 6    214293.913 6  20576676.516    20576679.910
        16.250          19.500
 95  4 21 19 23  0.0000000  0  6G 2G 7G15G19G26G27
                   -222834.872 6   -173637.371 6  21250720.219    21250723.621
        19.000          21.000
                  -1031356.672 6   -803653.746 6  20882394.516    20882398.715
        15.500          22.750
                   -409790.947 3   -319317.130 5  23775928.891    23775933.828
         6.000           8.250
                    954200.263 5    743532.323 5  22829004.555    22829009.582
         9.750          11.250
                  -1059287.978 5   -825419.138 5  23712820.727    23712825.098
         8.250           9.500
                    284494.710 6    221684.021 6  20578481.508    20578484.637
        16.500          19.500
 95  4 21 19 23 15.0000000  0  6G 2G 7G15G19G26G27
                   -230820.389 6   -179859.852 6  21249200.500    21249203.922
        19.000          21.000
                  -1063231.447 6   -828491.215 6  20876329.063    20876333.199
        15.500          22.500
                   -421854.435 3   -328717.240 5  23773632.031    23773637.637
         5.250           7.750
                    986814.126 5    768945.687 5  22835211.000    22835215.508
         9.750          10.750
                  -1092086.134 5   -850976.123 5  23706579.656    23706583.512
         8.250           9.250
                    294037.452 6    229119.915 6  20580297.273    20580300.586
        16.500          19.250
 95  4 21 19 23 30.0000000  0  6G 2G 7G15G19G26G27
                   -238825.850 6   -186097.868 6  21247677.188    21247680.684
        19.000          21.000
                  -1095050.261 6   -853285.079 6  20870274.086    20870278.242
        15.500          22.500
                   -433841.951 3   -338058.135 5  23771350.727    23771356.234
         5.500           7.250
                   1019434.489 5    794364.113 5  22841418.383    22841422.652
         9.250          10.250
                  -1124829.281 5   -876490.258 5  23700348.680    23700352.484
         8.250           9.000
                    303640.789 6    236603.029 6  20582124.602    20582127.918
        16.500          19.000
 95  4 21 19 23 45.0000000  0  6G 2G 7G15G19G26G27
                   -246855.363 6   -192354.634 6  21246149.336    21246152.727
        19.000          21.000
                  -1126815.695 6   -878037.350 6  20864229.344    20864233.543
        15.500          22.250
                   -445754.093 4   -347340.329 5  23769085.789    23769089.828
         6.750           7.500
                   1052059.836 5    819786.433 5  22847626.453    22847631.090
         9.000          10.000
                  -1157517.511 5   -901961.595 5  23694128.195    23694132.305
         8.250           9.000
                    313305.316 6    244133.823 6  20583963.766    20583967.199
        16.750          19.250
 95  4 21 19 24  0.0000000  0  6G 2G 7G15G19G26G27
                   -254910.630 6   -198631.459 6  21244616.539    21244619.793
        19.000          21.000
                  -1158526.174 6   -902746.804 6  20858195.117    20858199.109
        15.500          22.250
                   -457588.059 4   -356561.590 5  23766833.172    23766838.594
         6.750           7.500
                   1084693.783 5    845215.445 5  22853836.305    22853841.160
         9.000          10.250
                  -1190148.434 5   -927388.278 5  23687918.734    23687922.816
         8.250           9.000
                    323034.123 6    251714.705 6  20585815.164    20585818.652
        17.000          19.750
 95  4 21 19 24 15.0000000  0  6G 2G 7G15G19G26G27
                   -262988.993 6   -204926.288 6  21243079.195    21243082.566
        19.000          21.250
                  -1190182.901 6   -927414.367 6  20852171.016    20852175.000
        15.750          22.750
                   -469342.680 3   -365721.012 5  23764594.672    23764601.172
         5.750           7.000
                   1117336.785 5    870651.523 5  22860048.328    22860053.113
         9.250          10.250
                  -1222720.463 5   -952769.071 5  23681720.258    23681724.547
         8.250           9.250
                    332828.273 6    259346.501 6  20587678.953    20587682.656
        17.000          20.250
 95  4 21 19 24 30.0000000  0  6G 2G 7G15G19G26G27
                   -271086.623 6   -211236.124 6  21241538.445    21241541.758
        19.000          21.250
                  -1221779.685 6   -952035.223 6  20846158.359    20846162.309
        15.750          22.750
                   -481014.612 3   -374816.004 5  23762375.195    23762379.734
         6.000           6.750
                   1149992.513 5    896097.519 5  22866262.680    22866267.570
         9.500          10.250
                  -1255228.119 5   -978099.699 5  23675534.320    23675538.574
         8.250           9.250
                    342691.840 6    267032.386 6  20589556.148    20589559.840
        17.250          20.250
 95  4 21 19 24 45.0000000  0  6G 2G 7G15G19G26G27
                   -279201.932 6   -217559.738 6  21239993.984    21239997.656
        19.000          21.500
                  -1253316.230 6   -976609.142 6  20840157.156    20840161.145
        15.750          23.000
                   -492602.509 4   -383845.553 5  23760170.359    23760174.352
         6.250           6.500
                   1182664.151 5    921555.909 5  22872480.117    22872485.141
         9.750          10.750
                  -1287668.197 5  -1003377.669 5  23669361.211    23669365.293
         8.500           9.500
                    352624.343 6    274771.991 6  20591446.414    20591449.660
        17.250          20.250
 95  4 21 19 25  0.0000000  0  6G 2G 7G15G19G26G27
                   -287335.072 6   -223897.250 6  21238446.336    21238449.871
        18.750          21.750
                  -1284790.923 6  -1001134.863 6  20834167.695    20834171.676
        15.750          23.000
                   -504106.278 3   -392809.526 5  23757979.961    23757986.016
         5.500           7.000
                   1215352.344 5    947027.199 5  22878700.563    22878705.297
        10.000          11.250
                  -1320039.302 5  -1028601.897 5  23663201.313    23663205.797
         8.500           9.500
                    362626.885 6    282566.174 6  20593349.539    20593353.004
        17.000          20.250
 95  4 21 19 25 15.0000000  0  6G 2G 7G15G19G26G27
                   -295487.385 6   -230249.705 6  21236894.789    21236898.469
        18.750          21.750
                  -1316200.527 6  -1025609.864 6  20828190.469    20828194.590
        15.750          23.000
                   -515525.459 3   -401707.567 5  23755807.266    23755812.832
         5.250           7.000
                   1248059.647 5    972513.376 5  22884924.227    22884929.813
         9.750          11.750
                  -1352341.450 5  -1053772.393 5  23657054.570    23657058.719
         8.750           9.250
                    372698.811 6    290414.416 6  20595266.070    20595269.672
        17.000          20.250
 95  4 21 19 25 30.0000000  0  6G 2G 7G15G19G26G27
                   -303659.232 6   -236617.379 6  21235339.813    21235343.430
        18.750          21.750
                  -1347541.831 6  -1050031.644 6  20822226.500    20822230.566
        15.750          23.000
                   -526857.511 3   -410537.732 5  23753651.727    23753656.168
         6.000           7.000
                   1280789.401 5    998017.044 5  22891152.875    22891157.965
         9.750          11.750
                  -1384570.465 5  -1078885.901 5  23650921.273    23650925.801
         8.500           9.500
                    382842.089 6    298318.261 6  20597196.398    20597199.844
        17.000          20.250
 95  4 21 19 25 45.0000000  0  6G 2G 7G15G19G26G27
                   -311846.602 6   -242997.143 6  21233781.859    21233785.426
        18.750          21.750
                  -1378812.756 6  -1074398.585 6  20816275.938    20816280.082
        15.750          23.000
                   -538099.659 4   -419297.858 5  23751512.031    23751517.297
         6.250           7.000
                   1313545.006 5   1023540.853 5  22897386.273    22897391.273
         9.500          11.750
                  -1416722.871 5  -1103939.718 5  23644803.031    23644807.262
         8.500           9.250
                    393060.912 6    306280.972 6  20599141.242    20599144.676
        17.250          20.500
 95  4 21 19 26  0.0000000  0  6G 2G 7G15G19G26G27
                   -320042.868 6   -249383.844 6  21232222.156    21232225.398
        19.000          21.250
                  -1410009.414 6  -1098707.655 6  20810339.500    20810343.625
        15.750          23.250
                   -549250.013 3   -427986.443 5  23749389.500    23749395.336
         6.000           7.000
                   1346330.471 5   1049087.935 5  22903624.883    22903630.133
         9.250          11.500
                  -1448797.494 5  -1128932.919 5  23638699.438    23638704.176
         8.500           9.500
                    403356.934 6    314303.838 6  20601100.531    20601104.031
        17.000          20.500
 95  4 21 19 26 15.0000000  0  6G 2G 7G15G19G26G27
                   -328242.541 6   -255773.196 6  21230661.742    21230665.141
        19.000          21.250
                  -1441128.287 6  -1122956.116 6  20804417.680    20804421.930
        16.000          23.500
                   -560308.080 4   -436603.125 5  23747286.000    23747290.578
         6.250           6.750
                   1379144.911 5   1074657.582 5  22909868.914    22909874.668
         9.000          11.500
                  -1480793.179 5  -1153864.612 5  23632610.695    23632615.484
         8.500           9.500
                    413726.568 6    322384.060 6  20603073.547    20603077.133
        17.000          20.500
 95  4 21 19 26 30.0000000  0  6G 2G 7G15G19G26G27
                   -336441.175 6   -262161.738 6  21229101.773    21229105.262
        19.000          21.250
                  -1472166.987 6  -1147142.102 6  20798511.195    20798515.332
        15.750          23.250
                   -571272.683 4   -445146.968 5  23745199.500    23745204.563
         6.250           7.000
                   1411988.263 5   1100249.768 5  22916118.766    22916124.102
         9.250          11.000
                  -1512708.208 5  -1178733.456 5  23626537.789    23626542.461
         8.500           9.750
                    424170.867 6    330522.464 6  20605061.055    20605064.691
        16.750          20.250
 95  4 21 19 26 45.0000000  0  6G 2G 7G15G19G26G27
                   -344637.256 6   -268548.293 6  21227541.914    21227545.477
        18.750          21.500
                  -1503123.690 6  -1171264.194 6  20792620.320    20792624.523
        15.750          23.250
                   -582140.865 3   -453615.660 5  23743131.523    23743136.602
         6.000           6.750
                   1444864.527 5   1125867.594 5  22922375.172    22922380.188
         9.500          10.750
                  -1544540.554 5  -1203537.875 5  23620480.406    23620484.664
         8.500           9.750
                    434690.830 6    338719.827 6  20607063.039    20607066.508
        16.750          20.250
 95  4 21 19 27  0.0000000  0  6G 2G 7G15G19G26G27
                   -352831.276 6   -274933.242 6  21225982.883    21225986.227
        19.000          21.500
                  -1534001.180 6  -1195324.562 6  20786744.555    20786748.695
        16.000          23.250
                   -592912.267 3   -462008.939 5  23741081.398    23741086.922
         5.500           6.500
                   1477772.224 5   1151509.917 5  22928637.531    22928642.629
         9.750          10.500
                  -1576292.736 5  -1228279.831 5  23614438.188    23614442.324
         8.500           9.750
                    445286.934 6    346976.522 6  20609079.500    20609083.215
        16.750          20.250
 95  4 21 19 27 15.0000000  0  6G 2G 7G15G19G26G27
                   -361024.624 6   -281317.671 6  21224423.742    21224427.238
        19.250          21.500
                  -1564799.581 6  -1219323.304 6  20780883.742    20780887.809
        16.250          23.500
                   -603585.984 3   -470326.115 5  23739049.773    23739055.078
         5.250           6.000
                   1510710.967 5   1177176.435 5  22934905.938    22934910.473
        10.000          10.250
                  -1607968.395 5  -1252962.152 5  23608410.164    23608414.246
         8.500           9.500
                    455961.812 6    355294.598 6  20611110.820    20611114.645
        16.500          20.500
 95  4 21 19 27 30.0000000  0  6G 2G 7G15G19G26G27
                   -369217.127 6   -287701.439 6  21222864.922    21222868.199
        19.500          21.250
                  -1595520.511 6  -1243261.681 6  20775037.797    20775041.824
        16.250          23.500
                   -614161.516 4   -478566.772 5  23737038.594    23737043.078
         6.250           6.250
                   1543679.927 5   1202866.511 5  22941179.406    22941184.891
        10.000          10.250
                  -1639568.030 5  -1277585.226 5  23602397.047    23602401.133
         8.500           9.500
                    466715.489 6    363674.075 6  20613157.141    20613160.820
        16.750          20.500
 95  4 21 19 27 45.0000000  0  6G 2G 7G15G19G26G27
                   -377404.630 6   -294081.306 6  21221306.766    21221310.078
        19.250          21.250
                  -1626163.695 6  -1267139.475 6  20769206.602    20769210.730
        16.000          23.250
                   -624637.110 4   -486729.586 5  23735045.195    23735049.988
         6.750           6.500
                   1576676.743 5   1228578.286 5  22947458.570    22947463.578
        10.000          10.250
                  -1671091.436 5  -1302148.914 5  23596398.203    23596402.266
         8.500           9.500
                    477550.648 6    372117.045 6  20615219.203    20615222.551
        17.000          20.500
 95  4 21 19 28  0.0000000  0  6G 2G 7G15G19G26G27
                   -385586.026 6   -300456.419 6  21219749.781    21219753.160
        19.000          21.000
                  -1656728.821 6  -1290956.444 6  20763390.344    20763394.285
        16.250          23.250
                   -635012.341 3   -494814.187 5  23733070.016    23733075.074
         6.000           6.500
                   1609700.397 5   1254310.981 5  22953743.039    22953747.336
        10.250          10.250
                  -1702537.938 5  -1326652.671 5  23590414.250    23590418.031
         8.250           9.250
                    488468.581 6    380624.516 6  20617296.602    20617300.020
        16.500          20.250
 95  4 21 19 28 15.0000000  0  6G 2G 7G15G19G26G27
                   -393761.889 6   -306827.219 6  21218194.063    21218197.344
        19.000          21.000
                  -1687214.735 6  -1314711.690 6  20757589.078    20757593.039
        16.000          23.250
                   -645285.555 3   -502819.285 5  23731115.078    23731119.648
         6.000           6.250
                   1642751.770 5   1280065.258 5  22960032.422    22960036.840
         9.750          10.500
                  -1733904.581 5  -1351094.204 5  23584445.313    23584449.227
         8.250           9.250
                    499470.651 6    389197.544 6  20619390.352    20619393.531
        16.750          20.250
 95  4 21 19 28 30.0000000  0  6G 2G 7G15G19G26G27
                   -401935.797 6   -313196.495 6  21216638.578    21216641.750
        19.000          21.250
                  -1717624.553 6  -1338407.640 6  20751802.414    20751806.207
        16.250          23.250
                   -655456.852 3   -510744.975 5  23729180.164    23729184.703
         6.000           6.750
                   1675829.606 5   1305840.160 5  22966327.023    22966331.789
         9.750          10.750
                  -1765190.793 5  -1375473.064 5  23578491.836    23578496.176
         8.250           9.250
                    510558.841 6    397837.684 6  20621500.367    20621503.516
        16.750          20.250
 95  4 21 19 28 45.0000000  0  6G 2G 7G15G19G26G27
                   -410110.374 6   -319566.295 6  21215083.039    21215086.168
        19.000          21.250
                  -1747960.855 6  -1362046.306 6  20746029.430    20746033.344
        16.000          23.250
                   -665525.041 3   -518590.320 5  23727263.539    23727269.668
         5.750           7.500
                   1708937.737 5   1331638.674 5  22972627.367    22972632.273
         9.750          11.000
                  -1796396.217 5  -1399788.974 5  23572553.742    23572557.742
         8.250           9.250
                    521735.837 6    406547.023 6  20623627.195    20623630.672
        16.750          20.500
 95  4 21 19 29  0.0000000  0  6G 2G 7G15G19G26G27
                   -418286.655 6   -325937.422 6  21213527.188    21213530.406
        19.250          21.250
                  -1778219.539 6  -1385624.489 6  20740271.227    20740275.090
        16.000          23.250
                   -675488.673 3   -526354.163 5  23725367.250    23725373.086
         5.500           7.500
                   1742077.959 5   1357462.189 5  22978933.688    22978938.723
         9.500          11.250
                  -1827518.703 5  -1424040.256 5  23566631.289    23566635.508
         8.250           9.250
                    533002.843 6    415326.496 6  20625771.172    20625775.059
        16.500          20.750
 95  4 21 19 29 15.0000000  0  6G 2G 7G15G19G26G27
                   -426463.312 6   -332308.842 6  21211971.219    21211974.438
        19.250          21.250
                  -1808397.981 6  -1409140.144 6  20734528.547    20734532.555
        16.000          23.250
                   -685346.560 3   -534035.634 5  23723492.266    23723496.301
         6.000           6.750
                   1775252.167 5   1383312.181 5  22985246.406    22985251.430
         9.250          11.500
                  -1858555.716 5  -1448224.932 5  23560724.961    23560729.797
         8.250           9.250
                    544361.766 6    424177.592 6  20627932.898    20627936.469
        16.750          20.500
 95  4 21 19 29 30.0000000  0  6G 2G 7G15G19G26G27
                   -434637.573 6   -338678.397 6  21210415.617    21210419.012
        19.000          21.250
                  -1838493.419 6  -1432591.122 6  20728801.672    20728805.672
        16.250          23.250
                   -695098.594 4   -541634.634 5  23721635.539    23721641.648
         6.250           6.750
                   1808463.818 5   1409191.355 5  22991566.234    22991571.438
         9.250          11.750
                  -1889505.233 5  -1472341.426 5  23554835.586    23554839.836
         8.250           9.250
                    555807.761 6    433096.538 6  20630111.227    20630114.543
        17.000          20.500
 95  4 21 19 29 45.0000000  0  6G 2G 7G15G19G26G27
                   -442812.015 6   -345048.094 6  21208860.102    21208863.477
        19.000          21.250
                  -1868508.324 6  -1455979.349 6  20723089.906    20723093.918
        16.250          23.250
                   -704747.379 4   -549153.173 5  23719799.930    23719805.840
         6.750           6.750
                   1841711.332 5   1435098.473 5  22997893.281    22997898.480
         9.500          11.500
                  -1920366.718 5  -1496389.336 5  23548962.961    23548967.027
         8.500           9.000
                    567337.161 6    442080.474 6  20632305.078    20632308.547
        17.000          20.500
 95  4 21 19 30  0.0000000  0  6G 2G 7G15G19G26G27
                   -450981.997 6   -351414.315 6  21207305.406    21207308.680
        19.000          21.000
                  -1898435.671 6  -1479299.351 6  20717394.938    20717399.000
        16.250          23.250
                   -714287.649 4   -556587.160 5  23717985.195    23717989.410
         7.000           6.250
                   1875002.792 5   1461039.839 5  23004228.484    23004233.676
         9.500          11.000
                  -1951134.680 5  -1520364.368 5  23543107.781    23543112.133
         8.750           9.250
                    578955.934 6    451134.050 6  20634515.758    20634519.328
        16.500          20.250
 95  4 21 19 30 15.0000000  0  6G 2G 7G15G19G26G27
                   -459147.190 6   -357776.800 6  21205751.727    21205755.113
        19.000          21.250
                  -1928273.531 6  -1502549.619 6  20711716.938    20711720.930
        16.250          23.250
                   -723718.065 4   -563935.544 5  23716189.758    23716194.266
         6.250           6.250
                   1908342.698 5   1487018.952 5  23010572.742    23010577.676
         9.250          10.750
                  -1981806.165 5  -1544264.224 5  23537271.172    23537275.293
         8.750           9.250
                    590664.582 6    460257.655 6  20636743.992    20636747.563
        16.250          20.500
 95  4 21 19 30 30.0000000  0  6G 2G 7G15G19G26G27
                   -467305.123 6   -364133.633 6  21204199.039    21204202.457
        18.750          21.250
                  -1958019.555 6  -1525728.327 6  20706056.625    20706060.574
        16.250          23.250
                   -733037.877 4   -571197.718 5  23714416.125    23714421.863
         6.250           6.750
                   1941730.978 5   1513035.759 5  23016926.078    23016931.309
         9.000          10.750
                  -2012383.389 5  -1568090.636 5  23531452.594    23531456.258
         8.750           9.250
                    602461.524 6    469450.061 6  20638989.078    20638992.570
        16.500          20.500
 95  4 21 19 30 45.0000000  0  6G 2G 7G15G19G26G27
                   -475453.670 6   -370483.151 6  21202648.563    21202651.938
        19.000          21.250
                  -1987669.328 6  -1548832.036 6  20700414.469    20700418.508
        16.250          23.500
                   -742245.290 4   -578372.320 5  23712664.195    23712669.563
         6.250           7.250
                   1975169.731 5   1539091.893 5  23023289.336    23023294.758
         9.000          10.750
                  -2042864.278 5  -1591841.978 5  23525652.359    23525656.152
         9.000           9.500
                    614348.561 6    478712.673 6  20641251.297    20641254.484
        17.000          20.500
 95  4 21 19 31  0.0000000  0  6G 2G 7G15G19G26G27
                   -483591.606 6   -376824.401 6  21201100.078    21201103.480
        18.750          21.250
                  -2017218.487 6  -1571857.344 6  20694791.484    20694795.461
        16.250          23.250
                   -751339.942 4   -585459.068 5  23710933.281    23710938.859
         6.250           7.500
                   2008657.346 5   1565186.107 5  23029662.234    23029667.367
         9.250          10.750
                  -2073249.740 5  -1615518.958 5  23519870.063    23519873.707
         8.750           9.750
                    626325.411 6    488045.273 6  20643529.883    20643533.426
        16.250          20.250
 95  4 21 19 31 15.0000000  0  6G 2G 7G15G19G26G27
                   -491714.594 6   -383154.004 6  21199554.203    21199557.617
        18.750          21.250
                  -2046664.512 6  -1594802.288 6  20689188.031    20689192.016
        16.250          23.250
                   -760320.943 4   -592457.245 5  23709224.641    23709229.758
         6.750           7.750
                   2042193.647 5   1591318.253 5  23036043.977    23036049.266
         9.250          10.750
                  -2103538.346 5  -1639120.458 5  23514106.469    23514110.453
         8.750          10.000
                    638393.703 6    497449.122 6  20645826.469    20645829.965
        16.250          20.000
 95  4 21 19 31 30.0000000  0  6G 2G 7G15G19G26G27
                   -499816.882 6   -389467.476 6  21198012.516    21198015.695
        19.000          21.000
                  -2076009.961 6  -1617668.861 6  20683603.750    20683607.688
        16.250          23.250
                   -769186.190 4   -599365.227 5  23707537.633    23707542.781
         7.000           7.750
                   2075781.164 5   1617490.310 5  23042435.336    23042440.801
         9.250          11.000
                  -2133728.610 5  -1662645.328 5  23508361.375    23508365.348
         8.500          10.000
                    650553.464 6    506924.249 6  20648140.828    20648144.063
        16.750          20.250
 95  4 21 19 31 45.0000000  0  6G 2G 7G15G19G26G27
                   -507898.555 6   -395764.884 6  21196474.586    21196477.766
        18.750          21.000
                  -2105255.241 6  -1640457.380 6  20678038.477    20678042.473
        16.250          23.000
                   -777935.859 4   -606183.165 5  23705872.883    23705877.422
         7.250           7.500
                   2109416.427 5   1643699.581 5  23048836.023    23048841.383
         9.000          11.000
                  -2163820.086 5  -1686093.222 5  23502635.055    23502639.105
         8.500          10.000
                    662806.423 6    516471.998 6  20650472.273    20650476.027
        17.000          20.500
 95  4 21 19 32  0.0000000  0  6G 2G 7G15G19G26G27
                   -515956.438 6   -402043.756 6  21194941.125    21194944.523
        18.750          21.000
                  -2134398.593 6  -1663166.474 6  20672492.648    20672496.660
        16.250          23.000
                   -786566.971 4   -612908.724 5  23704229.938    23704235.012
         7.000           7.500
                   2143097.942 5   1669944.885 5  23055245.695    23055250.695
         9.000          11.000
                  -2193811.162 5  -1709462.879 5  23496928.008    23496932.125
         8.500          10.000
                    675159.888 6    526098.060 6  20652823.234    20652827.148
        16.750          20.750
 95  4 21 19 32 15.0000000  0  6G 2G 7G15G19G26G27
                   -523991.330 6   -408304.713 6  21193412.141    21193415.590
        18.750          21.000
                  -2163440.826 6  -1685796.775 6  20666966.172    20666970.125
        16.250          23.000
                   -795081.700 4   -619543.582 5  23702609.695    23702615.652
         7.000           8.250
                   2176821.257 5   1696222.755 5  23061662.758    23061668.055
         9.000          11.000
                  -2223702.878 5  -1732755.123 5  23491239.984    23491244.164
         8.750          10.000
                    687610.792 6    535800.047 6  20655192.438    20655196.164
        16.750          20.500
 95  4 21 19 32 30.0000000  0  6G 2G 7G15G19G26G27
                   -532002.421 6   -414547.127 6  21191887.703    21191891.121
        18.750          21.000
                  -2192382.797 6  -1708348.950 6  20661458.773    20661462.664
        16.250          23.000
                   -803477.630 4   -626085.861 5  23701012.336    23701017.949
         7.250           8.750
                   2210586.804 5   1722533.527 5  23068088.375    23068093.652
         9.000          11.000
                  -2253493.453 5  -1755968.552 5  23485570.984    23485575.473
         9.000          10.000
                    700160.312 6    545578.879 6  20657580.367    20657583.984
        16.750          20.250
 95  4 21 19 32 45.0000000  0  6G 2G 7G15G19G26G27
                   -539991.442 6   -420772.338 6  21190367.656    21190370.816
        19.000          21.000
                  -2221224.948 6  -1730823.343 6  20655970.125    20655974.125
        16.250          23.000
                   -811754.126 4   -632535.067 5  23699436.492    23699442.184
         7.000           8.500
                   2244392.025 5   1748875.216 5  23074521.469    23074526.441
         9.250          10.750
                  -2283181.271 5  -1779101.910 5  23479921.727    23479925.934
         9.000          10.000
                    712809.895 6    555435.687 6  20659987.555    20659991.055
        16.750          20.000
 95  4 21 19 33  0.0000000  0  6G 2G 7G15G19G26G27
                   -547960.173 6   -426981.741 6  21188851.258    21188854.414
        19.000          21.000
                  -2249970.759 6  -1753222.666 6  20650500.125    20650504.023
        16.250          23.000
                   -819911.346 5   -638891.349 5  23697885.281    23697890.008
         7.500           9.000
                   2278235.038 5   1775246.348 5  23080961.578    23080966.676
         9.000          10.250
                  -2312765.778 5  -1802154.765 5  23474291.742    23474296.246
         8.750          10.000
                    725559.341 6    565370.313 6  20662413.867    20662417.363
        16.500          20.000
 95  4 21 19 33 15.0000000  0  6G 2G 7G15G19G26G27
                   -555906.023 6   -433173.308 6  21187339.281    21187342.434
        19.000          21.000
                  -2278619.782 6  -1775546.568 6  20645048.352    20645052.277
        16.500          22.750
                   -827948.399 5   -645153.996 5  23696355.688    23696361.215
         7.750           9.500
                   2312114.916 5   1801646.214 5  23087408.508    23087413.855
         8.500          10.250
                  -2342247.124 5  -1825127.231 5  23468681.742    23468686.055
         8.750          10.000
                    738409.477 6    575383.394 6  20664859.195    20664862.781
        16.500          20.250
 95  4 21 19 33 30.0000000  0  6G 2G 7G15G19G26G27
                   -563828.609 6   -439346.755 6  21185831.617    21185834.758
        19.000          21.000
                  -2307175.241 6  -1797797.566 6  20639614.484    20639618.289
        16.500          22.750
                   -835865.124 4   -651322.863 5  23694848.789    23694854.434
         7.250           9.750
                   2346033.897 5   1828076.544 5  23093862.969    23093868.629
         8.500          10.250
                  -2371625.147 5  -1848019.194 5  23463091.266    23463095.434
         9.000          10.000
                    751359.969 6    585474.669 6  20667323.383    20667327.133
        16.500          20.500
 95  4 21 19 33 45.0000000  0  6G 2G 7G15G19G26G27
                   -571734.560 6   -445507.237 6  21184326.836    21184330.125
        19.000          21.000
                  -2335636.668 6  -1819975.293 6  20634198.414    20634202.113
        16.500          22.750
                   -843662.359 4   -657398.631 5  23693365.125    23693370.180
         7.000           9.250
                   2379989.538 5   1854535.452 5  23100324.461    23100330.230
         8.750          10.250
                  -2400901.456 5  -1870831.901 5  23457520.133    23457523.949
         8.750           9.750
                    764411.893 6    595644.982 6  20669807.227    20669810.680
        16.500          20.250
 95  4 21 19 34  0.0000000  0  6G 2G 7G15G19G26G27
                   -579626.719 6   -451656.969 6  21182825.133    21182828.414
        19.000          21.000
                  -2364000.488 6  -1842076.960 6  20628800.930    20628804.770
        16.500          22.500
                   -851339.062 4   -663380.483 5  23691904.172    23691909.563
         7.000           9.250
                   2413982.619 5   1881023.527 5  23106793.461    23106798.746
         9.000          10.250
                  -2430074.081 5  -1893563.814 5  23451968.875    23451973.055
         8.750          10.000
                    777568.511 6    605896.879 6  20672310.898    20672314.336
        16.500          20.250
 95  4 21 19 34 15.0000000  0  6G 2G 7G15G19G26G27
                   -587506.095 6   -457796.742 6  21181325.758    21181329.277
        19.000          21.250
                  -2392265.760 6  -1864101.840 6  20623422.156    20623425.930
        16.500          22.500
                   -858894.259 4   -669267.644 5  23690466.242    23690471.883
         6.750           9.500
                   2448015.526 5   1907542.641 5  23113269.867    23113274.883
         9.250          10.000
                  -2459141.631 5  -1916213.851 5  23446437.539    23446441.570
         8.750          10.000
                    790828.648 6    616229.437 6  20674834.000    20674837.637
        16.500          20.250
 95  4 21 19 34 30.0000000  0  6G 2G 7G15G19G26G27
                   -595374.320 6   -463927.829 6  21179828.563    21179831.988
        19.000          21.250
                  -2420434.228 6  -1886051.286 6  20618061.883    20618065.551
        16.750          22.500
                   -866328.357 4   -675060.446 5  23689051.820    23689057.117
         6.750           9.500
                   2482092.447 5   1934096.045 5  23119753.961    23119759.496
         9.000          10.250
                  -2488103.815 5  -1938781.778 5  23440926.047    23440930.309
         8.750          10.000
                    804188.626 6    626639.790 6  20677376.648    20677379.926
        16.500          20.000
 95  4 21 19 34 45.0000000  0  7G 2G 7G12G15G19G26G27
                   -603229.595 6   -470048.823 6  21178333.789    21178337.148
        19.000          21.250
                  -2448504.639 6  -1907924.324 6  20612720.430    20612724.078
        16.750          22.750
                    -43636.197 3    -34002.63015  24146408.859    24146416.094
         5.750           6.500
                   -873641.407 5   -680758.935 5  23687660.430    23687665.496
         7.500           9.750
                   2516213.239 5   1960683.622 5  23126247.211    23126252.477
         9.000          10.000
                  -2516963.939 5  -1961270.189 5  23435434.336    23435438.328
         8.750          10.000
                    817649.488 6    637128.757 6  20679938.180    20679941.430
        16.750          20.000
 95  4 21 19 35  0.0000000  0  7G 2G 7G12G15G19G26G27
                   -611066.837 6   -476155.764 6  21176842.398    21176845.746
        19.000          21.250
                  -2476473.501 6  -1929718.232 6  20607397.914    20607401.734
        16.500          22.750
                    -90413.258 3    -70452.254 5  24137507.719    24137514.648
         6.000           6.750
                   -880831.866 5   -686361.894 5  23686292.266    23686297.480
         8.000           9.750
                   2550380.196 5   1987307.180 5  23132749.102    23132754.145
         8.500           9.750
                  -2545719.810 5  -1983677.356 5  23429962.227    23429966.418
         9.000          10.000
                    831212.713 6    647697.491 6  20682519.188    20682522.648
        16.500          20.250
 95  4 21 19 35 15.0000000  0  7G 2G 7G12G15G19G26G27
                   -618885.539 6   -482248.259 6  21175354.414    21175357.910
        19.000          21.250
                  -2504339.678 6  -1951432.127 6  20602094.961    20602098.867
        16.500          22.500
                   -137213.509 3   -106919.957 5  24128601.922    24128608.371
         6.000           6.500
                   -887900.687 5   -691870.076 5  23684947.477    23684952.270
         8.250          10.000
                   2584597.124 5   2013969.677 5  23139260.242    23139265.672
         8.500          10.000
                  -2574373.041 5  -2006004.548 5  23424509.703    23424514.023
         9.000          10.250
                    844876.866 6    658344.864 6  20685119.273    20685122.805
        16.500          20.250
 95  4 21 19 35 30.0000000  0  7G 2G 7G12G15G19G26G27
                   -626685.638 6   -488326.258 6  21173870.023    21173873.730
        18.750          21.250
                  -2532101.631 6  -1973064.807 6  20596812.148    20596816.109
        16.500          22.750
                   -184036.555 4   -143405.417 5  24119692.570    24119698.766
         6.250           6.750
                   -894847.588 4   -697283.232 5  23683624.820    23683630.418
         7.250          10.250
                   2618868.142 5   2040674.317 5  23145781.844    23145787.582
         8.500          10.000
                  -2602920.812 5  -2028249.566 5  23419077.320    23419081.590
         9.250          10.250
                    858642.949 6    669071.665 6  20687738.891    20687742.301
        16.500          20.000
 95  4 21 19 35 45.0000000  0  7G 2G 7G12G15G19G26G27
                   -634469.522 6   -494391.620 6  21172388.641    21172392.559
        18.750          21.500
                  -2559760.563 6  -1994617.212 6  20591548.922    20591552.793
        16.500          22.750
                   -230883.076 4   -179909.165 5  24110777.773    24110783.883
         6.250           6.750
                   -901673.336 4   -702601.983 5  23682325.852    23682331.715
         7.000          10.250
                   2653192.835 5   2067420.787 5  23152313.641    23152318.996
         8.250           9.750
                  -2631362.898 5  -2050412.229 5  23413665.023    23413669.211
         9.250          10.250
                    872507.348 6    679875.078 6  20690377.352    20690380.625
        16.500          20.000
 95  4 21 19 36  0.0000000  0  7G 2G 7G12G15G19G26G27
                   -642235.127 6   -500442.740 6  21170911.156    21170914.820
        18.750          21.750
                  -2587312.886 6  -2016086.544 6  20586305.828    20586309.703
        16.500          22.750
                   -277753.550 3   -216431.579 5  24101858.281    24101865.008
         6.000           7.000
                   -908378.462 5   -707826.753 5  23681050.625    23681055.406
         7.500           9.750
                   2687568.646 5   2094207.092 5  23158855.289    23158860.379
         8.250           9.250
                  -2659697.962 5  -2072491.502 5  23408273.117    23408277.461
         9.250          10.250
                    886468.654 6    690754.002 6  20693034.094    20693037.516
        16.500          20.000
 95  4 21 19 36 15.0000000  0  7G 2G 7G12G15G19G26G27
                   -649976.779 6   -506475.196 6  21169437.977    21169441.754
        19.000          22.000
                  -2614757.455 6  -2037471.913 6  20581083.281    20581087.195
        16.500          22.750
                   -324646.499 3   -252971.487 5  24092934.484    24092941.809
         6.000           7.500
                   -914961.340 5   -712956.273 5  23679797.594    23679802.441
         7.500           9.000
                   2721996.403 5   2121033.874 5  23165406.563    23165411.715
         8.250           9.750
                  -2687925.480 5  -2094486.966 5  23402901.672    23402906.117
         9.750          10.250
                    900525.313 6    701707.230 6  20695708.773    20695712.430
        16.250          20.000
 95  4 21 19 36 30.0000000  0  7G 2G 7G12G15G19G26G27
                   -657692.799 6   -512487.681 6  21167969.898    21167973.512
        19.500          22.000
                  -2642094.051 6  -2058773.147 6  20575881.219    20575885.141
        16.250          22.500
                   -371563.287 3   -289529.991 5  24084006.406    24084013.434
         6.000           7.000
                   -921423.245 5   -717991.521 5  23678567.688    23678572.793
         7.500           9.000
                   2756474.491 5   2147899.873 5  23171967.648    23171973.277
         8.500           9.750
                  -2716048.138 5  -2116400.728 5  23397550.234    23397554.746
         9.750          10.250
                    914675.810 6    712733.573 6  20698401.656    20698405.441
        16.250          20.250
 95  4 21 19 36 45.0000000  0  7G 2G 7G12G15G19G26G27
                   -665382.104 6   -518479.347 6  21166506.570    21166510.262
        19.500          22.000
                  -2669320.257 6  -2079988.361 6  20570699.961    20570703.965
        16.250          22.250
                   -418503.559 3   -326106.795 5  24075074.227    24075081.059
         6.000           7.000
                   -927764.103 5   -722932.446 5  23677361.820    23677366.301
         7.750           9.000
                   2791000.600 5   2174803.291 5  23178537.813    23178543.262
         8.500          10.000
                  -2744065.733 5  -2138232.623 5  23392218.852    23392222.992
         9.500          10.250
                    928924.167 6    723836.168 6  20701113.219    20701116.793
        16.500          20.250
 95  4 21 19 37  0.0000000  0  7G 2G 7G12G15G19G26G27
                   -673044.948 6   -524450.399 6  21165048.445    21165052.184
        19.250          22.000
                  -2696433.461 6  -2101115.523 6  20565540.750    20565544.656
        16.250          22.250
                   -465466.241 3   -362701.058 5  24066137.609    24066143.824
         6.000           6.750
                   -933982.761 5   -727778.153 5  23676177.797    23676182.637
         7.500           9.000
                   2825572.672 5   2201742.522 5  23185117.172    23185122.082
         9.000           9.750
                  -2771974.978 5  -2159980.083 5  23386907.883    23386911.852
         9.750          10.250
                    943271.592 6    735015.967 6  20703843.602    20703846.793
        16.500          20.000
 95  4 21 19 37 15.0000000  0  7G 2G 7G12G15G19G26G27
                   -680687.380 6   -530405.543 6  21163594.000    21163597.438
        19.250          21.750
                  -2723436.545 6  -2122156.875 6  20560402.305    20560406.160
        16.500          22.250
                   -512453.331 3   -399314.344 5  24057196.070    24057202.895
         6.000           7.000
                   -940081.368 4   -732530.309 5  23675016.930    23675022.180
         7.000           9.250
                   2860187.563 5   2228715.119 5  23191704.047    23191709.145
         9.000          10.000
                  -2799776.349 5  -2181643.490 5  23381617.250    23381621.094
         9.500          10.000
                    957716.342 6    746271.601 6  20706591.859    20706595.395
        16.250          19.750
 95  4 21 19 37 30.0000000  0  7G 2G 7G12G15G19G26G27
                   -688308.200 6   -536343.844 6  21162143.875    21162147.266
        19.250          21.750
                  -2750326.747 6  -2143110.269 6  20555285.305    20555289.234
        16.500          22.250
                   -559461.757 3   -435944.248 5  24048249.789    24048257.664
         5.750           7.000
                   -946056.824 5   -737186.495 5  23673880.680    23673886.000
         7.500           9.500
                   2894845.296 5   2255721.099 5  23198298.992    23198304.383
         9.000          10.000
                  -2827466.273 5  -2203220.049 5  23376348.000    23376351.707
         9.250          10.000
                    972263.073 6    757606.699 6  20709359.992    20709363.418
        16.250          19.500
 95  4 21 19 37 45.0000000  0  7G 2G 7G12G15G19G26G27
                   -695907.502 6   -542265.380 6  21160697.742    21160701.219
        19.250          21.750
                  -2777105.992 6  -2163977.204 6  20550189.336    20550193.129
        16.500          22.250
                   -606491.103 3   -472590.470 5  24039300.875    24039308.109
         6.000           7.000
                   -951908.642 5   -741746.344 5  23672766.711    23672772.570
         7.750           9.750
                   2929541.686 5   2282757.206 5  23204901.125    23204906.816
         8.500           9.750
                  -2855044.404 5  -2224709.505 5  23371099.859    23371103.586
         9.250          10.000
                    986913.815 6    769022.842 6  20712148.258    20712151.590
        16.500          19.500
 95  4 21 19 38  0.0000000  0  7G 2G 7G12G15G19G26G27
                   -703485.703 6   -548170.472 6  21159255.773    21159259.102
        19.500          21.500
                  -2803774.423 6  -2184757.790 6  20545114.602    20545118.340
        16.500          22.250
                   -653541.592 4   -509253.152 5  24030347.992    24030354.668
         6.250           7.000
                   -957637.108 5   -746210.080 5  23671676.586    23671681.711
         7.750           9.000
                   2964273.383 5   2309820.827 5  23211510.727    23211515.840
         8.500           9.750
                  -2882512.837 5  -2246113.478 5  23365872.688    23365876.477
         9.250          10.000
                   1001670.127 6    780521.254 6  20714956.461    20714959.645
        16.500          19.750
 95  4 21 19 38 15.0000000  0  7G 2G 7G12G15G19G26G27
                   -711045.364 6   -554061.119 6  21157817.359    21157820.574
        19.500          21.750
                  -2830334.009 6  -2205453.560 6  20540060.359    20540064.008
        16.500          22.000
                   -700613.103 4   -545932.221 5  24021390.555    24021396.910
         6.250           6.750
                   -963242.250 5   -750577.728 5  23670610.453    23670614.633
         7.750           8.250
                   2999040.872 5   2336912.332 5  23218126.844    23218131.977
         8.250           9.750
                  -2909873.775 5  -2267433.690 5  23360666.406    23360670.098
         9.250          10.000
                   1016535.044 6    792104.293 6  20717785.367    20717788.453
        16.750          19.750
 95  4 21 19 38 30.0000000  0  7G 2G 7G12G15G19G26G27
                   -718589.753 6   -559939.864 6  21156381.383    21156385.020
        19.250          22.000
                  -2856790.446 6  -2226068.956 6  20535026.063    20535029.617
        16.750          22.250
                   -747705.946 4   -582627.909 5  24012428.945    24012435.246
         6.250           6.750
                   -968724.329 5   -754849.488 5  23669567.273    23669571.824
         7.500           8.500
                   3033844.886 5   2364032.284 5  23224749.719    23224755.141
         8.250          10.000
                  -2937127.799 5  -2288670.586 5  23355480.094    23355483.945
         9.250          10.000
                   1031508.116 6    803771.604 6  20720634.180    20720637.563
        16.500          19.500
 95  4 21 19 38 45.0000000  0  7G 2G 7G12G15G19G26G27
                   -726120.270 6   -565807.803 6  21154948.453    21154952.059
        19.000          22.000
                  -2883145.527 6  -2246605.374 6  20530010.641    20530014.375
        16.750          22.250
                   -794818.662 3   -619339.088 5  24003463.352    24003469.949
         6.000           6.750
                   -974081.942 4   -759024.240 5  23668546.719    23668552.781
         6.750           8.750
                   3068688.833 5   2391183.358 5  23231380.469    23231385.957
         8.500          10.000
                  -2964272.791 5  -2309822.528 5  23350314.398    23350318.297
         9.500          10.250
                   1046592.308 6    815525.499 6  20723504.609    20723507.980
        16.250          19.500
 95  4 21 19 39  0.0000000  0  7G 2G 7G12G15G19G26G27
                   -733640.015 6   -571667.349 6  21153517.258    21153520.887
        18.750          22.000
                  -2909403.298 6  -2267065.964 6  20525014.086    20525017.883
        16.750          22.500
                   -841951.364 3   -656065.827 5  23994494.164    23994501.242
         6.000           7.000
                   -979315.358 4   -763102.212 5  23667551.422    23667556.832
         7.000           9.000
                   3103572.403 5   2418365.318 5  23238019.000    23238024.234
         8.750          10.000
                  -2991307.783 5  -2330888.750 5  23345169.781    23345173.699
         9.250          10.250
                   1061785.365 6    827364.229 6  20726395.945    20726399.105
        16.750          19.500
 95  4 21 19 39 15.0000000  0  7G 2G 7G12G15G19G26G27
                   -741150.485 6   -577519.670 6  21152088.227    21152091.777
        18.750          21.750
                  -2935570.308 6  -2287455.833 6  20520034.656    20520038.484
        16.750          22.500
                   -889105.873 3   -692809.576 5  23985521.094    23985527.754
         6.000           7.000
                   -984426.421 5   -767084.858 5  23666579.453    23666584.051
         7.750           8.750
                   3138496.665 5   2445578.985 5  23244664.664    23244670.184
         8.500          10.000
                  -3018235.793 5  -2351871.608 5  23340045.648    23340049.547
         9.250          10.250
                   1077083.631 6    839284.943 6  20729307.445    20729310.313
        17.000          19.500
 95  4 21 19 39 30.0000000  0  7G 2G 7G12G15G19G26G27
                   -748647.904 6   -583361.816 6  21150661.570    21150665.156
        18.750          21.750
                  -2961645.810 6  -2307774.396 6  20515072.500    20515076.527
        16.500          22.750
                   -936278.992 4   -729567.807 5  23976544.633    23976551.395
         6.250           7.000
                   -989412.002 5   -770969.734 5  23665630.492    23665635.637
         7.750           8.750
                   3173466.311 5   2472828.005 5  23251319.422    23251324.879
         8.250           9.750
                  -3045055.434 5  -2372770.024 5  23334942.086    23334946.070
         9.250          10.250
                   1092490.523 6    851290.300 6  20732239.133    20732242.332
        16.500          19.750
 95  4 21 19 39 45.0000000  0  7G 2G 7G12G15G19G26G27
                   -756131.017 6   -589192.813 6  21149237.617    21149241.051
        18.750          21.750
                  -2987631.535 6  -2328023.002 6  20510127.680    20510131.656
        16.500          22.750
                   -983471.753 4   -766341.365 5  23967564.422    23967571.004
         6.750           6.750
                   -994273.115 4   -774757.612 5  23664704.813    23664710.723
         7.000           8.750
                   3208482.038 5   2500112.942 5  23257982.211    23257987.703
         7.750           9.250
                  -3071766.907 5  -2393584.153 5  23329858.930    23329863.156
         9.250          10.250
                   1108002.736 6    863377.716 6  20735190.586    20735194.340
        16.500          19.750
 95  4 21 19 40  0.0000000  0  7G 2G 7G12G15G19G26G27
                   -763607.415 6   -595018.579 6  21147814.742    21147818.230
        18.750          21.250
                  -3013533.068 6  -2348206.000 6  20505198.688    20505202.695
        16.500          22.750
                  -1030690.223 4   -803134.946 5  23958578.797    23958584.797
         6.500           6.750
                   -999015.964 4   -778453.332 5  23663802.422    23663808.000
         6.750           8.500
                   3243541.104 5   2527431.640 5  23264653.617    23264659.066
         7.750           9.250
                  -3098377.443 5  -2414319.634 5  23324795.117    23324799.258
         9.250          10.500
                   1123611.472 6    875540.350 6  20738161.047    20738164.445
        16.500          19.750
 95  4 21 19 40 15.0000000  0  7G 2G 7G12G15G19G26G27
                   -771079.072 6   -600840.650 6  21146392.977    21146396.629
        18.750          21.500
                  -3039352.498 6  -2368325.028 6  20500285.461    20500289.402
        16.750          22.750
                  -1077937.688 4   -839951.121 5  23949587.625    23949593.926
         6.250           6.750
                  -1003643.837 4   -782059.465 5  23662921.602    23662926.734
         6.500           7.750
                   3278642.973 5   2554783.694 5  23271333.258    23271338.832
         7.750           9.250
                  -3124888.754 5  -2434977.799 5  23319750.094    23319754.594
         9.250          10.750
                   1139311.600 6    887774.201 6  20741148.750    20741152.051
        17.000          19.500
 95  4 21 19 40 30.0000000  0  7G 2G 7G12G15G19G26G27
                   -778535.861 6   -606651.138 6  21144973.828    21144977.582
        18.750          21.500
                  -3065082.879 6  -2388374.666 6  20495389.148    20495393.047
        16.750          22.750
                  -1125205.843 4   -876783.416 5  23940592.781    23940598.406
         6.250           6.250
                  -1008148.401 4   -785569.519 5  23662064.117    23662069.547
         6.500           7.750
                   3313798.697 5   2582177.709 5  23278023.398    23278029.207
         8.250           9.750
                  -3151291.581 5  -2455551.423 5  23314725.609    23314730.199
         9.250          10.750
                   1155109.673 6    900084.371 6  20744154.805    20744158.297
        16.500          19.500
 95  4 21 19 40 45.0000000  0  7G 2G 7G12G15G19G26G27
                   -785975.280 6   -612448.093 6  21143558.180    21143561.871
        18.500          21.500
                  -3090722.357 6  -2408353.469 6  20490510.289    20490514.105
        16.750          22.750
                  -1172494.326 4   -913631.560 5  23931594.031    23931599.863
         6.250           6.250
                  -1012529.467 4   -788983.339 5  23661230.961    23661236.449
         7.250           8.250
                   3349005.924 5   2609611.870 5  23284722.977    23284729.160
         8.000           9.750
                  -3177583.304 5  -2476038.475 5  23309722.391    23309726.977
         9.000          10.500
                   1171004.248 6    912469.739 6  20747179.227    20747183.020
        16.250          19.750
 95  4 21 19 41  0.0000000  0  7G 2G 7G12G15G19G26G27
                   -793392.267 6   -618227.569 6  21142147.016    21142150.590
        18.500          21.500
                  -3116265.279 6  -2428257.033 6  20485649.297    20485653.297
        16.750          22.750
                  -1219800.914 4   -950493.819 5  23922591.648    23922597.828
         6.500           6.250
                  -1016784.923 5   -792299.286 5  23660421.469    23660426.609
         7.750           8.250
                   3384264.656 5   2637086.178 5  23291432.836    23291438.660
         8.000           9.750
                  -3203762.250 5  -2496437.649 5  23304740.672    23304744.984
         9.000          10.250
                   1186996.895 6    924931.523 6  20750222.875    20750226.758
        16.500          20.250
 95  4 21 19 41 15.0000000  0  7G 2G 7G12G15G19G26G27
                   -800783.732 6   -623987.156 6  21140740.320    21140743.992
        18.750          21.250
                  -3141709.189 6  -2448083.448 6  20480807.547    20480811.527
        16.500          22.750
                  -1267125.277 4   -987369.926 5  23913586.414    23913592.148
         6.500           6.250
                  -1020914.409 5   -795517.085 5  23659635.289    23659639.738
         7.500           7.750
                   3419576.855 5   2664602.138 5  23298152.813    23298158.262
         8.250          10.000
                  -3229828.987 5  -2516749.390 5  23299780.422    23299784.691
         9.250          10.250
                   1203087.180 6    937469.389 6  20753284.977    20753288.629
        17.000          20.500
 95  4 21 19 41 30.0000000  0  7G 2G 7G12G15G19G26G27
                   -808150.411 6   -629727.429 6  21139338.563    21139341.727
        18.750          21.250
                  -3167052.143 6  -2467831.192 6  20475985.102    20475989.090
        16.750          22.500
                  -1314468.440 3  -1024260.671 5  23904576.875    23904583.465
         6.000           6.750
                  -1024919.153 4   -798637.672 5  23658872.898    23658878.902
         7.000           8.250
                   3454939.157 5   2692157.125 5  23304882.047    23304887.496
         8.000           9.750
                  -3255785.866 5  -2536975.524 5  23294841.109    23294845.145
         9.250          10.000
                   1219274.042 6    950082.512 6  20756365.219    20756369.004
        16.500          20.500
 95  4 21 19 41 45.0000000  0  7G 2G 7G12G15G19G26G27
                   -815490.465 6   -635446.950 6  21137941.719    21137945.063
        19.000          21.000
                  -3192290.259 6  -2487497.245 6  20471182.398    20471186.219
        16.750          22.250
                  -1361830.198 3  -1061165.895 5  23895564.039    23895570.492
         5.750           6.750
                  -1028798.915 4   -801660.861 5  23658135.023    23658140.711
         7.000           8.500
                   3490347.418 5   2719747.931 5  23311619.789    23311625.563
         8.250           9.250
                  -3281632.788 5  -2557115.977 5  23289922.391    23289926.410
         9.000          10.000
                   1235556.595 6    962770.196 6  20759463.461    20759467.262
        16.250          20.250
 95  4 21 19 42  0.0000000  0  7G 2G 7G12G15G19G26G27
                   -822805.519 6   -641146.994 6  21136549.898    21136553.344
        19.000          21.000
                  -3217424.931 6  -2507082.696 6  20466399.344    20466403.242
        16.750          22.250
                  -1409211.702 3  -1098086.516 5  23886547.625    23886553.844
         5.750           6.500
                  -1032554.929 4   -804587.624 5  23657420.383    23657424.980
         7.000           7.750
                   3525799.789 5   2747373.107 5  23318366.367    23318372.305
         8.250           9.250
                  -3307370.437 5  -2577171.289 5  23285024.586    23285028.844
         9.000          10.000
                   1251936.914 6    975534.058 6  20762580.742    20762584.191
        16.500          20.250
 95  4 21 19 42 15.0000000  0  7G 2G 7G12G15G19G26G27
                   -830091.987 6   -646824.762 6  21135163.281    21135166.441
        19.000          21.000
                  -3242453.134 6  -2526585.183 6  20461636.438    20461640.492
        16.500          22.500
                  -1456610.831 4  -1135020.870 5  23877528.445    23877534.219
         6.250           6.750
                  -1036185.118 4   -807416.360 5  23656728.945    23656734.285
         6.500           7.750
                   3561296.985 5   2775033.211 5  23325121.133    23325126.863
         8.250           9.000
                  -3332997.129 5  -2597140.139 5  23280148.266    23280152.215
         9.000          10.000
                   1268416.540 6    988375.311 6  20765716.820    20765720.223
        16.500          20.250
 95  4 21 19 42 30.0000000  0  7G 2G 7G12G15G19G26G27
                   -837347.474 6   -652478.391 6  21133782.758    21133785.863
        19.250          21.000
                  -3267372.205 6  -2546002.632 6  20456894.641    20456898.742
        16.500          22.500
                  -1504027.102 4  -1171968.587 5  23868505.352    23868511.227
         6.500           6.750
                  -1039689.152 4   -810146.780 5  23656062.797    23656068.074
         6.500           8.250
                   3596835.975 5   2802725.877 5  23331884.258    23331889.566
         8.250           9.000
                  -3358513.219 5  -2617022.805 5  23275293.000    23275296.883
         9.000          10.000
                   1284998.354 6   1001296.183 6  20768872.211    20768875.688
        16.500          20.500
 95  4 21 19 42 45.0000000  0  7G 2G 7G12G15G19G26G27
                   -844574.317 6   -658109.695 6  21132407.641    21132410.789
        19.500          21.250
                  -3292182.291 6  -2565335.157 6  20452173.547    20452177.594
        16.500          22.500
                  -1551461.304 4  -1208930.278 5  23859479.109    23859485.145
         6.750           6.750
                  -1043067.893 4   -812779.573 5  23655419.742    23655424.730
         6.250           8.500
                   3632410.533 5   2830446.252 5  23338654.063    23338659.398
         8.250           9.000
                  -3383920.538 5  -2636820.716 5  23270458.047    23270462.016
         9.000          10.000
                   1301680.796 6   1014295.469 6  20772046.828    20772050.379
        16.500          20.500
 95  4 21 19 43  0.0000000  0  7G 2G 7G12G15G19G26G27
                   -851772.915 6   -663718.991 6  21131037.828    21131041.090
        19.500          21.250
                  -3316881.064 6  -2584580.943 6  20447473.398    20447477.469
        16.500          22.750
                  -1598912.727 4  -1245905.391 5  23850449.242    23850455.230
         6.750           6.750
                  -1046320.605 3   -815314.159 5  23654800.242    23654806.188
         5.750           9.250
                   3668021.204 5   2858194.791 5  23345430.563    23345436.375
         8.250           9.000
                  -3409218.349 5  -2656533.291 5  23265643.859    23265648.004
         9.000          10.000
                   1318464.443 6   1027373.615 6  20775240.633    20775244.328
        16.250          20.500
 95  4 21 19 43 15.0000000  0  7G 2G 7G12G15G19G26G27
                   -858942.401 6   -669305.602 6  21129673.430    21129676.707
        19.750          21.500
                  -3341465.165 6  -2603737.377 6  20442795.250    20442799.262
        16.500          22.500
                  -1646378.728 4  -1282891.858 5  23841416.797    23841422.594
         6.750           7.000
                  -1049444.888 3   -817748.649 5  23654206.063    23654212.160
         5.750           9.750
                   3703674.650 5   2885976.662 5  23352214.930    23352221.215
         8.250           9.250
                  -3434404.699 5  -2676159.017 5  23260850.992    23260855.180
         9.000          10.000
                   1335352.198 6   1040532.887 6  20778454.344    20778457.809
        16.250          20.250
 95  4 21 19 43 30.0000000  0  7G 2G 7G12G15G19G26G27
                   -866085.635 6   -674871.756 6  21128313.961    21128317.637
        19.500          21.500
                  -3365935.973 6  -2622805.530 6  20438138.688    20438142.625
        16.750          22.500
                  -1693858.943 4  -1319889.400 5  23832381.742    23832387.793
         7.000           7.250
                  -1052440.425 4   -820082.841 5  23653636.648    23653642.141
         6.250           9.750
                   3739369.797 5   2913791.011 5  23359007.398    23359013.617
         8.000           9.000
                  -3459476.121 5  -2695695.190 5  23256080.219    23256084.336
         9.000          10.000
                   1352345.395 6   1053774.317 6  20781687.844    20781691.535
        16.250          20.250
 95  4 21 19 43 45.0000000  0  7G 2G 7G12G15G19G26G27
                   -873203.398 6   -680418.066 6  21126959.570    21126963.039
        19.500          21.750
                  -3390293.872 6  -2641785.702 6  20433503.531    20433507.410
        16.750          22.500
                  -1741354.028 4  -1356898.525 5  23823343.758    23823350.148
         7.250           7.500
                  -1055308.043 4   -822317.343 5  23653090.164    23653095.480
         6.250           9.250
                   3775103.118 5   2941635.120 5  23365807.367    23365812.879
         7.750           8.500
                  -3484430.692 5  -2715140.307 5  23251331.477    23251335.578
         9.000          10.000
                   1369442.255 6   1067096.526 6  20784941.156    20784944.949
        16.250          20.000
 95  4 21 19 44  0.0000000  0  7G 2G 7G12G15G19G26G27
                   -880295.724 6   -685944.552 6  21125609.953    21125613.340
        19.500          21.500
                  -3414540.432 6  -2660679.116 6  20428889.563    20428893.469
        16.750          22.250
                  -1788864.543 5  -1393919.678 5  23814302.883    23814308.723
         7.500           7.000
                  -1058048.295 4   -824452.604 5  23652569.172    23652574.289
         6.750           9.250
                   3810879.010 5   2969512.394 5  23372615.461    23372620.848
         7.750           8.250
                  -3509269.134 5  -2734494.932 5  23246604.734    23246609.117
         9.000          10.250
                   1386643.572 6   1080500.133 6  20788214.867    20788218.574
        16.250          20.250
 95  4 21 19 44 15.0000000  0  7G 2G 7G12G15G19G26G27
                   -887362.094 6   -691450.812 6  21124265.500    21124268.840
        19.500          21.750
                  -3438674.297 6  -2679484.718 6  20424297.102    20424301.129
        16.750          22.500
                  -1836388.853 5  -1430951.583 5  23805259.016    23805265.422
         7.500           7.000
                  -1060659.772 4   -826487.529 5  23652072.273    23652077.547
         6.750           9.250
                   3846701.486 4   2997425.957 5  23379432.000    23379437.488
         7.250           8.250
                  -3533988.649 5  -2753756.889 5  23241900.789    23241905.055
         9.000          10.250
                   1403949.873 6   1093985.538 6  20791507.984    20791512.074
        16.250          20.500
 95  4 21 19 44 30.0000000  0  7G 2G 7G12G15G19G26G27
                   -894402.769 6   -696937.053 6  21122925.633    21122929.020
        19.500          21.750
                  -3462696.162 6  -2698203.045 6  20419725.891    20419729.918
        16.750          22.250
                  -1883927.036 4  -1467994.302 5  23796212.883    23796219.219
         7.000           6.750
                  -1063142.549 4   -828422.172 5  23651599.000    23651604.984
         6.250           9.000
                   3882568.242 4   3025374.026 5  23386257.180    23386262.828
         7.000           8.250
                  -3558589.775 5  -2772926.594 5  23237219.398    23237223.840
         9.000          10.250
                   1421358.309 6   1107550.532 6  20794820.781    20794824.430
        16.250          20.000
 95  4 21 19 44 45.0000000  0  7G 2G 7G12G15G19G26G27
                   -901421.452 6   -702406.156 6  21121589.945    21121593.434
        19.500          21.750
                  -3486610.456 6  -2716837.551 6  20415175.141    20415179.180
        17.000          22.500
                  -1931480.313 4  -1505048.778 5  23787163.641    23787170.160
         6.750           6.750
                  -1065497.834 4   -830257.461 5  23651151.555    23651156.617
         6.750           9.000
                   3918479.373 4   3053356.668 5  23393090.961    23393096.445
         7.000           8.250
                  -3583073.690 5  -2792004.972 5  23232560.430    23232564.813
         9.250          10.250
                   1438866.761 6   1121193.461 6  20798152.461    20798155.871
        16.250          19.500
 95  4 21 19 45  0.0000000  0  7G 2G 7G12G15G19G26G27
                   -908418.637 6   -707858.508 6  21120258.305    21120261.867
        19.250          21.750
                  -3510421.298 6  -2735391.444 6  20410644.078    20410647.980
        17.000          22.250
                  -1979048.229 4  -1542114.654 5  23778111.516    23778118.289
         6.750           7.000
                  -1067725.320 4   -831993.168 5  23650727.906    23650733.496
         7.250           9.250
                   3954438.268 4   3081376.535 5  23399934.117    23399939.715
         7.000           8.250
                  -3607438.822 5  -2810990.783 5  23227923.898    23227928.066
         9.250          10.250
                   1456475.353 6   1134914.423 6  20801503.250    20801506.754
        16.250          19.500
 95  4 21 19 45 15.0000000  0  7G 2G 7G12G15G19G26G27
                   -915391.906 6   -713292.223 6  21118931.102    21118934.805
        18.750          22.000
                  -3534128.394 6  -2753864.499 6  20406132.672    20406136.508
        17.000          22.250
                  -2026629.589 4     -7414.01815  23769057.250    23769063.938
         7.000           7.250
                  -1069823.886 5   -833628.417 5  23650328.664    23650333.875
         7.750           9.250
                   3990449.501 5   3109437.178 5  23406787.211    23406792.816
         7.500           8.250
                  -3631684.455 5  -2829883.486 5  23223310.391    23223314.535
         9.250          10.250
                   1474186.085 6   1148714.976 6  20804873.617    20804877.074
        16.250          19.500
 95  4 21 19 45 30.0000000  0  7G 2G 7G12G15G19G26G27
                   -922339.456 6   -718705.900 6  21117609.320    21117612.977
        18.750          22.000
                  -3557733.018 6  -2772257.708 6  20401640.750    20401644.605
        16.750          22.250
                  -2074223.652 4    -44500.271 5  23760000.344    23760006.906
         7.000           7.250
                  -1071793.225 5   -835162.985 5  23649953.852    23649958.340
         7.750           8.500
                   4026510.591 5   3137536.682 5  23413649.953    23413655.035
         7.750           7.750
                  -3655809.357 5  -2848682.107 5  23218719.625    23218723.785
         9.250          10.250
                   1492000.524 6   1162596.342 6  20808263.617    20808267.074
        16.250          19.500
 95  4 21 19 45 45.0000000  0  7G 2G 7G12G15G19G26G27
                   -929259.128 6   -724097.855 6  21116292.336    21116296.160
        18.750          22.000
                  -3581234.393 6  -2790570.458 6  20397168.461    20397172.281
        16.750          22.250
                  -2121830.633 4    -81596.581 5  23750940.906    23750947.816
         6.750           7.500
                  -1073633.256 4   -836596.785 5  23649603.320    23649608.797
         7.250           8.500
                   4062618.690 5   3165672.814 5  23420520.711    23420525.914
         7.500           7.750
                  -3679814.322 5  -2867387.273 5  23214151.516    23214155.617
         9.250          10.250
                   1509918.135 6   1176558.100 6  20811673.195    20811676.941
        16.250          19.750
 95  4 21 19 46  0.0000000  0  7G 2G 7G12G15G19G26G27
                   -936148.638 6   -729466.303 6  21114981.313    21114984.867
        18.750          22.000
                  -3604632.521 6  -2808802.757 6  20392716.141    20392719.961
        16.750          22.250
                  -2169449.985 4   -118702.517 5  23741878.859    23741885.844
         6.500           7.000
                  -1075343.733 4   -837929.623 5  23649277.859    23649282.871
         7.000           8.250
                   4098775.327 4   3193846.770 5  23427400.391    23427406.363
         7.000           7.750
                  -3703701.714 5  -2886000.825 5  23209605.539    23209609.984
         9.250          10.250
                   1527939.724 6   1190600.872 6  20815102.867    20815106.340
        16.250          20.000
 95  4 21 19 46 15.0000000  0  7G 2G 7G12G15G19G26G27
                   -943008.835 6   -734811.909 6  21113675.969    21113679.566
        18.750          22.000
                  -3627929.715 6  -2826956.405 6  20388282.938    20388286.816
        16.750          22.500
                  -2217082.021 4   -155818.372 5  23732815.047    23732821.832
         6.750           7.000
                  -1076925.145 4   -839161.915 5  23648976.945    23648981.277
         7.000           7.750
                   4134977.700 4   3222056.360 5  23434289.047    23434295.355
         6.750           7.750
                  -3727471.358 5  -2904522.618 5  23205082.289    23205086.625
         9.250          10.250
                   1546065.142 6   1204724.557 6  20818552.289    20818555.484
        16.500          19.750
 95  4 21 19 46 30.0000000  0  7G 2G 7G12G15G19G26G27
                   -949841.242 6   -740135.863 6  21112375.797    21112379.551
        18.750          22.250
                  -3651126.441 6  -2845031.765 6  20383868.766    20383872.715
        17.000          22.500
                  -2264726.328 4   -192943.778 5  23723748.469    23723755.430
         7.000           7.000
                  -1078377.179 4   -840293.390 5  23648700.578    23648705.629
         7.000           8.000
                   4171223.756 4   3250299.981 5  23441186.688    23441192.563
         6.750           7.500
                  -3751121.409 5  -2922951.231 5  23200581.797    23200585.930
         9.250          10.250
                   1564292.757 6   1218927.876 6  20822020.555    20822023.711
        16.500          19.500
 95  4 21 19 46 45.0000000  0  7G 2G 7G12G15G19G26G27
                   -956646.973 6   -745439.031 6  21111080.594    21111084.324
        18.500          22.000
                  -3674221.779 6  -2863028.125 6  20379473.789    20379477.863
        17.000          22.500
                  -2312382.307 4   -230078.283 5  23714679.719    23714686.879
         6.750           7.250
                  -1079699.290 4   -841323.599 5  23648449.391    23648454.738
         7.000           8.500
                   4207515.673 4   3278579.330 5  23448093.367    23448098.527
         6.750           7.750
                  -3774652.445 5  -2941287.102 5  23196104.305    23196108.359
         9.250          10.250
                   1582625.321 6   1233212.975 6  20825509.117    20825512.438
        16.500          19.500
 95  4 21 19 47  0.0000000  0  7G 2G 7G12G15G19G26G27
                   -963424.859 6   -750720.498 6  21109790.656    21109794.375
        18.250          22.000
                  -3697214.248 6  -2880944.325 6  20375098.398    20375102.367
        17.000          22.250
                  -2360049.689 4   -267221.659 5  23705608.938    23705615.961
         6.750           7.500
                  -1080891.457 4   -842252.559 5  23648222.266    23648227.313
         6.750           8.250
                   4243853.785 4   3306894.687 5  23455008.594    23455013.617
         7.000           7.750
                  -3798064.218 5  -2959530.035 5  23191649.008    23191653.156
         9.500          10.250
                   1601065.867 6   1247582.218 6  20829018.219    20829021.684
        16.750          19.750
 95  4 21 19 47 15.0000000  0  7G 2G 7G12G15G19G26G27
                   -970175.935 6   -755981.077 6  21108505.984    21108509.906
        18.250          22.000
                  -3720101.882 6  -2898778.835 6  20370743.164    20370747.039
        17.000          22.500
                  -2407729.675 4   -304374.859 5  23696535.430    23696542.516
         6.500           7.500
                  -1081954.895 4   -843081.209 5  23648019.750    23648024.461
         6.500           7.750
                   4280236.492 4   3335244.798 5  23461931.617    23461937.613
         7.000           8.000
                  -3821357.346 5  -2977680.524 5  23187216.766    23187220.797
         9.500          10.500
                   1619613.833 6   1262035.163 6  20832548.023    20832551.367
        17.000          19.750
 95  4 21 19 47 30.0000000  0  7G 2G 7G12G15G19G26G27
                   -976899.576 6   -761220.280 6  21107226.703    21107230.539
        18.250          22.000
                  -3742880.893 6  -2916528.704 6  20366408.172    20366412.027
        17.000          22.250
                  -2455421.425 4   -341537.226 5  23687460.352    23687466.996
         6.750           7.500
                  -1082888.837 4   -843808.960 5  23647842.078    23647847.594
         6.250           8.250
                   4316661.458 4   3363627.844 5  23468862.602    23468869.371
         6.750           7.750
                  -3844531.614 5  -2995738.399 5  23182806.742    23182810.844
         9.250          10.500
                   1638268.929 6   1276571.585 6  20836098.031    20836101.406
        16.750          20.000
 95  4 21 19 47 45.0000000  0  7G 2G 7G12G15G19G26G27
                   -983598.689 6   -766440.369 6  21105951.961    21105955.602
        18.750          22.000
                  -3765551.067 6  -2934193.766 6  20362094.328    20362098.234
        17.000          22.250
                  -2503125.322 4   -378709.054 5  23678382.938    23678389.227
         7.000           7.500
                  -1083693.862 4   -844436.263 5  23647688.516    23647694.574
         6.500           8.500
                   4353127.948 4   3392043.239 5  23475802.492    23475808.684
         6.750           7.750
                  -3867588.392 5  -3013704.714 5  23178418.969    23178423.082
         9.250          10.500
                   1657029.683 6   1291190.332 6  20839667.602    20839671.391
        16.500          20.000
 95  4 21 19 48  0.0000000  0  7G 2G 7G12G15G19G26G27
                   -990275.197 6   -771642.836 6  21104681.375    21104685.176
        18.750          22.000
                  -3788111.083 6  -2951772.988 6  20357801.547    20357805.328
        17.000          22.000
                  -2550839.805 4   -415889.137 5  23669302.914    23669309.297
         7.000           7.250
                  -1084368.530 4   -844961.983 5  23647560.875    23647565.797
         7.000           8.750
                   4389639.937 4   3420494.095 5  23482750.648    23482756.547
         6.500           7.500
                  -3890528.051 5  -3031579.770 5  23174053.773    23174057.980
         9.250          10.500
                   1675895.566 6   1305891.006 6  20843257.813    20843261.422
        16.500          19.750
 95  4 21 19 48 15.0000000  0  7G 2G 7G12G15G19G26G27
                   -996931.692 6   -776829.713 6  21103414.633    21103418.547
        18.750          22.250
                  -3810561.418 6  -2969266.746 6  20353529.281    20353532.895
        17.000          22.000
                  -2598564.655 4   -453077.315 5  23660220.977    23660228.039
         7.000           7.250
                  -1084912.683 4   -845386.008 5  23647456.789    23647462.156
         6.250           9.000
                   4426197.550 4   3448980.490 5  23489707.313    23489712.863
         6.500           7.500
                  -3913353.980 5  -3049366.204 5  23169710.125    23169714.359
         9.250          10.500
                   1694865.994 6   1320673.142 6  20846868.125    20846871.266
        16.750          19.500
 95  4 21 19 48 30.0000000  0  7G 2G 7G12G15G19G26G27
                  -1003569.070 6   -782001.694 6  21102151.539    21102155.395
        18.250          22.250
                  -3832899.496 6  -2986673.031 6  20349278.523    20349282.301
        17.000          22.000
                  -2646300.408 4   -490273.976 5  23651137.211    23651143.820
         7.000           7.500
                  -1085327.121 3   -845708.933 5  23647378.203    23647383.340
         6.000           9.000
                   4462799.910 4   3477501.751 5  23496672.305    23496677.867
         6.250           7.250
                  -3936066.268 5  -3067064.087 5  23165388.445    23165392.441
         9.500          10.750
                   1713940.533 6   1335536.407 6  20850497.914    20850501.270
        16.500          19.500
 95  4 21 19 48 45.0000000  0  7G 2G 7G12G15G19G26G27
                  -1010186.308 6   -787157.983 6  21100892.320    21100896.152
        18.250          22.250
                  -3855121.010 6  -3003988.484 6  20345049.742    20345053.563
        17.000          22.000
                  -2694045.030 4   -527477.535 5  23642051.688    23642058.551
         7.000           7.750
                  -1085609.900 4   -845929.286 5  23647324.805    23647329.109
         6.250           8.750
                   4499450.364 4   3506060.479 5  23503646.703    23503652.176
         6.750           7.250
                  -3958664.113 5  -3084672.794 5  23161088.172    23161092.328
         9.500          10.750
                   1733122.693 6   1350483.527 6  20854147.844    20854151.637
        16.000          19.500
 95  4 21 19 49  0.0000000  0  7G 2G 7G12G15G19G26G27
                  -1016779.817 6   -792295.782 6  21099637.547    21099641.301
        18.250          22.250
                  -3877226.578 6  -3021213.588 6  20340843.141    20340846.855
        17.250          21.750
                  -2741798.614 4   -564688.089 5  23632964.953    23632971.094
         7.250           8.000
                  -1085761.343 4   -846047.294 5  23647295.195    23647300.781
         6.250           8.750
                   4536147.133 4   3534655.310 5  23510630.180    23510635.676
         6.750           7.250
                  -3981148.532 5  -3102193.120 5  23156809.188    23156813.914
         9.250          10.750
                   1752413.703 6   1365515.462 6  20857818.508    20857822.609
        15.750          19.500
 95  4 21 19 49 15.0000000  0  7G 2G 7G12G15G19G26G27
                  -1023349.509 6   -797415.023 6  21098387.352    21098391.160
        18.250          22.000
                  -3899217.431 6  -3038349.311 6  20336658.430    20336662.105
        17.250          21.750
                  -2789561.690 4   -601906.037 5  23623875.625    23623882.055
         7.000           8.000
                  -1085782.065 4   -846063.447 5  23647291.695    23647296.434
         6.500           8.500
                   4572887.580 4   3563284.169 5  23517621.992    23517627.168
         6.500           7.500
                  -4003520.201 5  -3119625.587 5  23152552.094    23152556.793
         9.250          11.000
                   1771809.489 6   1380629.043 6  20861510.031    20861513.488
        16.000          19.250
 95  4 21 19 49 30.0000000  0  7G 2G 7G12G15G19G26G27
                  -1029896.238 6   -802516.371 6  21097141.750    21097145.461
        18.500          22.000
                  -3921093.474 6  -3055395.566 6  20332495.586    20332499.215
        17.250          21.750
                  -2837333.972 4   -639131.153 5  23614784.797    23614791.484
         7.000           7.750
                  -1085671.823 4   -845977.556 5  23647313.016    23647317.605
         6.750           8.250
                   4609671.279 4   3591946.734 5  23524621.570    23524627.191
         6.250           7.500
                  -4025779.366 5  -3136970.388 5  23148316.461    23148320.977
         9.500          11.000
                   1791309.203 6   1395823.609 6  20865220.563    20865223.762
        16.000          18.750
 95  4 21 19 49 45.0000000  0  7G 2G 7G12G15G19G26G27
                  -1036418.677 6   -807598.788 6  21095900.563    21095904.195
        18.750          22.000
                  -3942854.394 6  -3072352.118 6  20328354.594    20328358.227
        17.250          21.500
                  -2885114.176 4   -676362.451 5  23605692.305    23605698.910
         7.000           7.500
                  -1085429.610 4   -845788.830 5  23647358.570    23647364.027
         6.750           8.250
                   4646499.295 3   3620643.833 5  23531628.953    23531635.438
         6.000           7.750
                  -4047925.546 5  -3154227.144 5  23144102.148    23144106.348
         9.500          10.750
                   1810914.644 6   1411100.560 6  20868951.273    20868954.570
        15.750          18.750
 95  4 21 19 50  0.0000000  0  7G 2G 7G12G15G19G26G27
                  -1042916.739 6   -812662.209 6  21094664.063    21094667.719
        18.750          22.000
                  -3964500.240 6  -3089219.000 6  20324235.500    20324239.039
        17.250          21.250
                  -2932902.520 4   -713600.101 5  23596598.742    23596605.035
         7.000           7.500
                  -1085055.759 4   -845497.527 5  23647430.141    23647435.148
         6.750           8.500
                   4683372.225 3   3649375.929 5  23538645.633    23538652.324
         6.000           7.750
                  -4069959.162 5  -3171396.193 5  23139909.453    23139913.449
         9.750          10.750
                   1830626.471 6   1426460.409 6  20872702.391    20872705.824
        16.000          18.750
 95  4 21 19 50 15.0000000  0  7G 2G 7G12G15G19G26G27
                  -1049388.982 6   -817705.515 6  21093432.492    21093436.316
        18.750          22.250
                  -3986031.543 6  -3105996.629 6  20320138.234    20320141.840
        17.250          21.250
                  -2980699.829 4   -750844.728 5  23587503.125    23587509.742
         7.000           7.750
                  -1084551.040 4   -845104.240 5  23647525.602    23647531.016
         6.750           8.500
                   4720287.765 4   3678141.222 5  23545671.023    23545677.328
         6.250           8.000
                  -4091878.835 5  -3188476.459 5  23135738.602    23135742.398
         9.750          10.750
                   1850445.757 6   1441903.991 6  20876473.914    20876477.383
        16.000          19.000
 95  4 21 19 50 30.0000000  0  7G 2G 7G12G15G19G26G27
                  -1055830.593 6   -822724.952 6  21092206.703    21092210.418
        18.750          22.250
                  -4007448.271 6  -3122684.979 6  20316062.711    20316066.348
        17.250          21.250
                  -3028504.035 4   -788094.731 5  23578406.234    23578413.078
         7.250           8.250
                  -1083913.792 4   -844607.692 5  23647647.117    23647652.293
         6.750           8.250
                   4757247.465 4   3706940.920 5  23552704.711    23552710.695
         6.500           8.000
                  -4113677.895 5  -3205462.740 5  23131589.992    23131594.047
         9.750          11.000
                   1870375.412 6   1457433.574 6  20880266.133    20880269.941
        15.750          19.000
 95  4 21 19 50 45.0000000  0  7G 2G 7G12G15G19G26G27
                  -1062242.562 6   -827721.292 6  21090986.547    21090990.266
        18.500          22.250
                  -4028754.679 6  -3139287.364 6  20312008.219    20312011.969
        17.250          21.500
                  -3076316.982 5   -825351.542 5  23569308.164    23569314.516
         7.500           8.250
                  -1083145.811 4   -844009.284 5  23647793.992    23647798.660
         7.000           8.250
                   4794252.487 4   3735775.930 5  23559747.164    23559752.492
         6.750           7.750
                  -4135354.664 5  -3222353.728 5  23127464.930    23127469.465
         9.750          11.000
                   1890414.801 6   1473048.663 6  20884079.563    20884083.496
        15.750          19.500
 95  4 21 19 51  0.0000000  0  7G 2G 7G12G15G19G26G27
                  -1068625.712 6   -832695.176 6  21089771.766    21089775.707
        18.250          22.750
                  -4049953.606 6  -3155805.997 6  20307974.328    20307977.977
        17.250          21.250
                  -3124137.533 4   -862614.278 5  23560207.734    23560214.148
         7.250           8.000
                  -1082246.165 4   -843308.280 5  23647964.000    23647969.242
         6.500           8.000
                   4831304.577 4   3764647.618 5  23566797.633    23566803.293
         6.750           7.500
                  -4156910.272 5  -3239150.304 5  23123363.352    23123367.500
         9.750          11.000
                   1910564.377 6   1488749.610 6  20887914.055    20887917.566
        15.750          19.250
 95  4 21 19 51 15.0000000  0  7G 2G 7G12G15G19G26G27
                  -1074980.841 6   -837647.230 6  21088562.359    21088566.516
        18.250          22.750
                  -4071046.025 6  -3172241.642 6  20303960.734    20303964.398
        17.250          21.500
                  -3171966.933 4   -899883.920 5  23551105.773    23551112.527
         7.000           7.750
                  -1081216.379 4   -842505.857 5  23648160.766    23648165.773
         6.250           7.750
                   4868401.220 4   3793554.037 5  23573856.273    23573862.266
         6.750           7.000
                  -4178347.160 5  -3255854.373 5  23119283.836    23119287.977
         9.750          10.750
                   1930820.232 6   1504533.373 6  20891768.766    20891772.191
        15.750          19.250
 95  4 21 19 51 30.0000000  0  7G 2G 7G12G15G19G26G27
                  -1081312.053 6   -842580.642 6  21087357.641    21087361.391
        18.250          22.500
                  -4092030.669 6  -3188593.301 6  20299967.313    20299970.973
        17.500          21.500
                  -3219805.049 4   -937160.340 5  23542002.742    23542009.172
         7.250           8.250
                  -1080056.274 3   -841601.885 5  23648381.078    23648386.805
         6.000           8.250
                   4905542.397 4   3822495.161 5  23580923.914    23580930.027
         6.500           7.000
                  -4199664.087 5  -3272464.967 5  23115227.344    23115231.125
         9.750          10.500
                   1951181.883 6   1520399.574 6  20895643.195    20895646.797
        16.000          19.000
 95  4 21 19 51 45.0000000  0  7G 2G 7G12G15G19G26G27
                  -1087615.907 6   -847492.737 6  21086158.102    21086162.000
        18.500          22.250
                  -4112904.503 6  -3204858.617 6  20295995.086    20295998.715
        17.500          21.250
                  -3267648.786 5   -974441.145 5  23532898.898    23532905.309
         7.750           8.500
                  -1078763.331 3   -840594.398 5  23648627.000    23648632.633
         6.000           7.750
                   4942730.814 4   3851473.092 5  23588000.781    23588007.027
         6.250           7.000
                  -4220858.330 5  -3288979.965 5  23111194.078    23111197.852
         9.750          10.750
                   1971652.281 6   1536350.518 6  20899538.609    20899542.289
        16.000          19.250
 95  4 21 19 52  0.0000000  0  7G 2G 7G12G15G19G26G27
                  -1093893.812 6   -852384.610 6  21084963.414    21084967.422
        18.500          22.250
                  -4133668.441 6  -3221038.299 6  20292043.859    20292047.441
        17.500          21.250
                  -3315498.998 5  -1011726.999 5  23523793.148    23523800.047
         7.750           8.500
                  -1077338.335 3   -839484.014 5  23648898.555    23648903.723
         6.000           7.750
                   4979965.544 3   3880487.105 5  23595086.633    23595092.840
         6.000           7.250
                  -4241929.187 5  -3305398.821 5  23107184.477    23107188.316
         9.750          10.500
                   1992230.352 6   1552385.363 6  20903454.688    20903458.453
        16.000          19.750
 95  4 21 19 52 15.0000000  0  7G 2G 7G12G15G19G26G27
                  -1100146.539 6   -857256.867 6  21083773.570    21083777.410
        18.500          22.000
                  -4154326.043 6  -3237135.124 6  20288112.930    20288116.320
        17.750          21.250
                  -3363356.211 5  -1049018.302 5  23514685.859    23514692.676
         7.750           8.750
                  -1075781.952 3   -838271.258 5  23649194.938    23649199.695
         6.000           7.500
                   5017244.589 3   3909535.644 5  23602180.563    23602186.566
         6.000           7.250
                  -4262876.760 5  -3321721.604 5  23103198.172    23103202.352
         9.500          10.500
                   2012914.625 6   1568502.957 6  20907390.883    20907394.414
        16.000          19.750
 95  4 21 19 52 30.0000000  0  7G 2G 7G12G15G19G26G27
                  -1106373.515 6   -862109.058 6  21082588.633    21082592.348
        18.500          22.000
                  -4174878.434 6  -3253149.965 6  20284201.977    20284205.340
        17.750          21.000
                  -3411220.148 5  -1086314.854 5  23505577.531    23505584.387
         8.000           8.500
                  -1074094.139 4   -836956.100 5  23649516.070    23649521.277
         6.250           7.750
                   5054568.385 3   3938619.070 5  23609283.188    23609289.656
         5.750           7.250
                  -4283701.880 5  -3337948.977 5  23099235.156    23099239.629
         9.500          10.750
                   2033703.462 6   1584702.032 6  20911346.750    20911350.348
        15.750          19.500
 95  4 21 19 52 45.0000000  0  7G 2G 7G12G15G19G26G27
                  -1112572.644 6   -866939.548 6  21081408.891    21081412.711
        18.750          22.000
                  -4195324.838 6  -3269082.222 6  20280311.023    20280314.527
        17.750          21.000
                  -3459090.611 5  -1123616.492 5  23496467.891    23496474.590
         8.000           8.500
                  -1072274.966 4   -835538.576 5  23649862.313    23649867.371
         6.250           7.750
                   5091934.901 3   3967735.773 5  23616393.344    23616400.340
         5.250           7.500
                  -4304406.454 5  -3354082.416 5  23095295.266    23095299.715
         9.500          10.750
                   2054596.973 6   1600982.672 6  20915322.484    20915326.055
        15.750          19.250
 95  4 21 19 53  0.0000000  0  7G 2G 7G12G15G19G26G27
                  -1118744.902 6   -871749.100 6  21080234.398    21080238.352
        18.750          22.000
                  -4215661.074 6  -3284928.633 6  20276441.203    20276444.613
        17.750          21.000
                  -3506966.653 5  -1160922.471 5  23487357.992    23487364.094
         8.000           8.750
                  -1070323.561 3   -834018.010 5  23650233.398    23650238.676
         6.000           7.750
                   5129342.250 3   3996884.291 5  23623511.305    23623518.805
         5.000           7.500
                  -4324993.388 5  -3370124.190 5  23091377.867    23091382.164
         9.500          10.750
                   2075595.049 6   1617344.788 6  20919318.320    20919321.992
        15.500          19.000
 95  4 21 19 53 15.0000000  0  7G 2G 7G12G15G19G26G27
                  -1124888.883 6   -876536.620 6  21079065.477    21079069.281
        18.750          22.250
                  -4235886.369 6  -3300688.593 6  20272592.438    20272595.824
        17.750          20.750
                  -3554849.020 5  -1198233.376 5  23478245.945    23478252.531
         7.750           9.000
                  -1068240.790 3   -832395.083 5  23650629.945    23650634.848
         6.000           8.250
                   5166785.864 3   4026061.053 5  23630636.891    23630643.414
         5.250           7.000
                  -4345462.305 5  -3386073.994 5  23087482.867    23087487.047
         9.750          10.750
                   2096692.982 6   1633784.722 6  20923333.117    20923336.879
        15.500          19.250
 95  4 21 19 53 30.0000000  0  7G 2G 7G12G15G19G26G27
                  -1131004.634 6   -881302.143 6  21077901.469    21077905.414
        18.750          22.250
                  -4255999.717 6  -3316361.322 6  20268765.055    20268768.336
        17.750          20.750
                  -3602737.562 5  -1235549.092 5  23469133.344    23469139.344
         8.250           8.750
                  -1066026.623 3   -830669.762 5  23651050.625    23651056.813
         5.750           8.250
                   5204264.331 3   4055264.981 5  23637769.742    23637775.457
         5.750           6.750
                  -4365812.355 5  -3401931.180 5  23083610.227    23083614.828
         9.500          11.000
                   2117890.409 6   1650302.173 6  20927366.859    20927370.988
        15.500          19.500
 95  4 21 19 53 45.0000000  0  7G 2G 7G12G15G19G26G27
                  -1137091.395 6   -886045.075 6  21076743.211    21076747.254
        18.500          22.250
                  -4276000.595 6  -3331946.415 6  20264958.938    20264962.242
        17.750          20.500
                  -3650632.133 5  -1272869.506 5  23460019.172    23460025.531
         8.000           8.500
                  -1063681.218 3   -828842.178 5  23651497.281    23651502.684
         6.000           8.250
                   5241778.488 3   4084496.714 5  23644908.953    23644914.305
         6.000           6.250
                  -4386042.197 5  -3417694.694 5  23079760.805    23079765.055
         9.500          10.750
                   2139188.455 6   1666898.031 6  20931419.578    20931423.512
        15.000          19.250
 95  4 21 19 54  0.0000000  0  7G 2G 7G12G15G19G26G27
                  -1143146.376 6   -890763.242 6  21075591.133    21075594.961
        18.500          22.000
                  -4295889.526 6  -3347444.274 6  20261173.945    20261177.406
        17.750          20.500
                  -3698531.349 5  -1310193.548 5  23450904.055    23450910.434
         8.000           8.250
                  -1061203.386 3   -826911.413 5  23651969.359    23651973.898
         6.000           8.000
                   5279330.899 3   4113758.275 5  23652054.688    23652060.930
         6.000           6.000
                  -4406150.790 5  -3433363.731 5  23075934.211    23075938.480
         9.250          10.750
                   2160590.071 6   1683574.594 6  20935492.156    20935495.902
        15.000          18.750
 95  4 21 19 54 15.0000000  0  7G 2G 7G12G15G19G26G27
                  -1149169.976 6   -895456.960 6  21074444.766    21074448.527
        18.750          22.000
                  -4315668.372 6  -3362856.354 6  20257410.273    20257413.707
        17.750          20.500
                  -3746436.373 5  -1347522.119 5  23441788.391    23441794.133
         8.250           8.250
                  -1058594.290 3   -824878.366 5  23652465.266    23652470.590
         5.750           8.000
                   5316921.575 3   4143049.656 5  23659207.125    23659214.164
         6.000           6.000
                  -4426139.438 5  -3448939.305 5  23072130.461    23072134.645
         9.750          11.000
                   2182092.435 6   1700329.667 6  20939584.047    20939587.859
        15.250          18.500
 95  4 21 19 54 30.0000000  0  7G 2G 7G12G15G19G26G27
                  -1155160.784 6   -900125.119 6  21073304.703    21073308.246
        18.500          21.750
                  -4335336.562 6  -3378182.204 6  20253667.594    20253671.055
        17.750          20.500
                  -3794346.931 5  -1384854.994 5  23432671.266    23432676.699
         8.250           8.250
                  -1055853.938 3   -822743.016 5  23652986.688    23652992.461
         5.750           8.250
                   5354551.399 3   4172371.539 5  23666368.391    23666374.996
         6.000           6.250
                  -4446007.162 5  -3464420.657 5  23068350.070    23068354.043
         9.750          11.000
                   2203695.098 6   1717162.890 6  20943694.938    20943698.852
        15.250          18.250
 95  4 21 19 54 45.0000000  0  7G 2G 7G12G15G19G26G27
                  -1161117.177 6   -904766.463 6  21072171.203    21072174.930
        18.250          21.750
                  -4354892.546 6  -3393420.628 6  20249946.336    20249949.789
        17.750          20.750
                  -3842261.293 5  -1422190.833 5  23423553.703    23423558.719
         8.500           8.250
                  -1052980.914 3   -820504.291 5  23653533.523    23653539.465
         5.750           8.250
                   5392221.886 3   4201725.109 5  23673536.938    23673543.598
         6.000           6.750
                  -4465750.968 5  -3479805.446 5  23064592.648    23064596.703
         9.750          10.750
                   2225398.328 6   1734074.475 6  20947825.094    20947828.484
        15.500          18.000
 95  4 21 19 55  0.0000000  0  7G 2G 7G12G15G19G26G27
                  -1167042.750 6   -909383.793 6  21071043.625    21071047.410
        18.250          21.750
                  -4374337.054 6  -3408572.182 6  20246246.211    20246249.656
        17.750          20.750
                  -3890179.627 5  -1459529.769 5  23414435.102    23414440.891
         8.750           8.500
                  -1049975.581 3   -818162.475 5  23654105.156    23654111.305
         5.750           7.750
                   5429934.226 3   4231111.286 5  23680713.289    23680720.078
         6.000           6.750
                  -4485369.816 5  -3495092.866 5  23060859.547    23060863.340
         9.750          10.750
                   2247201.688 6   1751064.096 6  20951974.289    20951977.297
        15.750          18.000
 95  4 21 19 55 15.0000000  0  7G 2G 7G12G15G19G26G27
                  -1172940.557 6   -913979.487 6  21069921.242    21069925.031
        18.000          21.500
                  -4393672.058 6  -3423638.411 6  20242566.914    20242570.281
        17.750          20.750
                  -3938101.605 5  -1496871.549 5  23405315.742    23405321.512
         8.750           8.250
                  -1046837.671 3   -815717.355 5  23654702.883    23654708.254
         6.000           7.500
                   5467692.028 3   4260532.873 5  23687898.406    23687904.594
         6.000           7.000
                  -4504863.383 5  -3510282.667 5  23057149.922    23057154.094
         9.750          10.750
                   2269105.464 6   1768131.956 6  20956142.391    20956145.859
        15.500          18.250
 95  4 21 19 55 29.9990000  0  7G 2G 7G12G15G19G26G27
                  -1178808.780 6   -918552.128 6  21068804.550    21068808.378
        17.750          21.500
                  -4412896.951 6  -3438618.839 6  20238908.519    20238911.855
        17.750          20.750
                  -3986021.999 5  -1534212.098 5  23396196.956    23396202.300
         8.750           8.250
                  -1043565.690 3   -813167.781 5  23655325.651    23655330.058
         6.000           7.000
                   5505495.894 3   4289990.355 5  23695092.417    23695098.472
         6.000           7.000
                  -4524228.055 5  -3525372.026 5  23053465.058    23053469.159
         9.750          11.000
                   2291110.124 6   1785278.426 6  20960329.769    20960333.362
        15.500          18.250
 95  4 21 19 55 44.9990000  0  7G 2G 7G12G15G19G26G27
                  -1184649.009 6   -923102.957 6  21067693.214    21067697.136
        17.750          21.750
                  -4432014.764 6  -3453515.827 6  20235270.511    20235274.054
        17.750          20.750
                  -4033947.828 5  -1571556.874 5  23387076.769    23387081.913
         8.750           8.250
                  -1040159.946 3   -810513.962 5  23655973.026    23655978.050
         5.750           7.000
                   5543355.953 3   4319491.616 5  23702297.097    23702303.308
         6.000           7.500
                  -4543465.207 5  -3540362.020 5  23049804.519    23049808.292
        10.000          10.750
                   2313220.099 6   1802506.959 6  20964537.034    20964541.011
        15.250          18.250
 95  4 21 19 55 59.9990000  0  7G 2G 7G12G15G19G26G27
                  -1190457.357 6   -927628.944 6  21066587.839    21066591.886
        17.750          21.750
                  -4451024.832 6  -3468328.859 6  20231652.964    20231656.640
        17.500          20.750
                  -4081874.798 5  -1608902.546 5  23377956.714    23377962.190
         9.000           8.250
                  -1036619.808 3   -807755.414 5  23656647.089    23656652.694
         6.000           7.500
                   5581273.371 4   4349037.581 5  23709513.003    23709519.081
         6.250           7.500
                  -4562571.933 5  -3555250.381 5  23046168.745    23046172.605
        10.000          10.750
                   2335434.263 6   1819816.677 6  20968764.331    20968768.101
        15.250          18.250
 95  4 21 19 56 14.9990000  0  7G 2G 7G12G15G19G26G27
                  -1196233.381 6   -932129.743 6  21065488.753    21065492.597
        18.000          21.750
                  -4469928.906 6  -3483059.296 6  20228055.526    20228059.284
        17.750          21.250
                  -4129801.972 5  -1646248.373 5  23368836.534    23368841.690
         8.750           8.500
                  -1032944.504 3   -804891.543 5  23657346.440    23657351.808
         6.000           7.500
                   5619247.808 3   4378627.984 5  23716738.901    23716745.257
         6.000           7.000
                  -4581547.831 5  -3570036.807 5  23042557.573    23042561.503
        10.000          10.750
                   2357751.543 6   1837206.748 6  20973011.112    20973014.538
        15.250          18.000
 95  4 21 19 56 29.9990000  0  7G 2G 7G12G15G19G26G27
                  -1201977.511 6   -936605.687 6  21064395.745    21064399.562
        18.000          21.750
                  -4488726.145 6  -3497706.485 6  20224478.331    20224482.030
        17.750          21.000
                  -4177730.703 5  -1683595.415 5  23359715.440    23359721.179
         8.500           8.500
                  -1029135.708 3   -801923.655 5  23658071.714    23658076.026
         6.000           7.500
                   5657275.922 3   4408260.213 5  23723975.050    23723981.812
         6.000           7.000
                  -4600393.348 5  -3584721.626 5  23038971.409    23038975.569
         9.750          11.000
                   2380169.464 6   1854675.240 6  20977277.011    20977280.425
        15.250          18.000
 95  4 21 19 56 44.9990000  0  7G 2G 7G12G15G19G26G27
                  -1207690.025 6   -941056.997 6  21063308.409    21063312.534
        17.750          21.750
                  -4507415.178 6  -3512269.361 6  20220922.222    20220925.921
        17.750          21.000
                  -4225660.045 5  -1720942.930 5  23350594.972    23350600.550
         8.500           8.500
                  -1025192.629 3   -798851.122 5  23658821.409    23658826.733
         6.000           7.000
                   5695356.369 4   4437933.224 5  23731221.519    23731228.483
         6.250           7.500
                  -4619108.365 5  -3599304.760 5  23035409.862    23035414.284
         9.750          11.000
                   2402690.991 6   1872224.462 6  20981563.214    20981566.491
        15.750          18.500
 95  4 21 19 56 59.9990000  0  7G 2G 7G12G15G19G26G27
                  -1213370.995 6   -945483.729 6  21062227.433    21062231.558
        17.500          21.750
                  -4525995.656 6  -3526747.645 6  20217386.550    20217390.136
        17.750          21.000
                  -4273591.497 5  -1758292.096 5  23341473.901    23341479.780
         8.500           8.750
                  -1021116.865 3   -795675.200 5  23659597.519    23659602.753
         6.000           7.500
                   5733487.001 4   4467645.329 5  23738478.472    23738484.351
         6.500           7.250
                  -4637697.306 5  -3613789.649 5  23031872.448    23031877.026
         9.750          11.000
                   2425315.652 6   1889854.047 6  20985868.597    20985872.050
        15.500          18.750
 95  4 21 19 57 14.9990000  0  7G 2G 7G12G15G19G26G27
                  -1219018.581 6   -949884.449 6  21061152.737    21061156.710
        17.250          21.750
                  -4544465.279 6  -3541139.552 6  20213871.940    20213875.456
        17.750          21.000
                  -4321524.831 5  -1795642.720 5  23332352.519    23332358.355
         8.500           9.000
                  -1016908.484 3   -792395.954 5  23660398.105    23660402.698
         6.000           7.250
                   5771666.015 4   4497395.134 5  23745743.745    23745749.394
         6.750           7.000
                  -4656160.631 5  -3628176.658 5  23028359.081    23028363.554
         9.750          11.000
                   2448045.695 6   1907565.747 6  20990193.573    20990197.487
        15.000          19.000
 95  4 21 19 57 29.9990000  0  7G 2G 7G12G15G19G26G27
                  -1224627.935 6   -954255.377 6  21060085.386    21060089.429
        17.250          21.750
                  -4562823.426 6  -3555444.593 6  20210378.448    20210381.940
        18.000          21.000
                  -4369459.149 5  -1832994.111 5  23323230.776    23323237.019
         8.500           9.250
                  -1012566.912 3   -789012.904 5  23661224.105    23661229.358
         6.000           7.500
                   5809891.844 4   4527181.426 5  23753017.690    23753023.593
         6.500           6.750
                  -4674498.250 5  -3642465.719 5  23024869.417    23024873.862
         9.750          11.000
                   2470881.914 6   1925360.177 6  20994539.003    20994542.933
        14.750          19.000
 95  4 21 19 57 44.9990000  0  7G 2G 7G12G15G19G26G27
                  -1230196.716 6   -958594.690 6  21059025.628    21059029.687
        17.250          21.500
                  -4581066.166 6  -3569659.707 6  20206906.894    20206910.448
        18.000          21.000
                  -4417394.107 5  -1870345.996 5  23314109.448    23314114.792
         8.750           9.000
                  -1008091.905 4   -785525.886 5  23662076.230    23662080.897
         6.250           7.250
                   5848163.653 3   4557003.548 5  23760300.612    23760306.874
         6.000           6.750
                  -4692708.889 5  -3656655.831 5  23021404.269    23021408.487
         9.750          11.000
                   2493825.566 6   1943238.323 6  20998905.097    20998908.886
        14.750          19.000
 95  4 21 19 57 59.9990000  0  7G 2G 7G12G15G19G26G27
                  -1235725.856 6   -962903.114 6  21057973.714    21057977.546
        17.750          21.500
                  -4599193.755 6  -3583785.089 6  20203457.151    20203460.683
        17.750          20.750
                  -4465329.748 5  -1907698.416 5  23304987.034    23304993.175
         8.750           9.250
                  -1003483.730 3   -781935.094 5  23662952.034    23662957.218
         5.750           7.000
                   5886476.047 3   4586857.284 5  23767591.050    23767597.378
         5.250           6.500
                  -4710794.710 5  -3670748.683 5  23017962.487    23017966.749
         9.750          11.000
                   2516877.636 6   1961200.954 6  21003292.308    21003295.694
        15.250          18.750
 95  4 21 19 58 14.9990000  0  7G 2G 7G12G15G19G26G27
                  -1241218.138 6   -967182.815 6  21056928.448    21056932.265
        18.000          21.500
                  -4617207.549 6  -3597821.805 6  20200029.347    20200032.886
        17.750          20.750
                  -4513267.315 5  -1945052.349 5  23295864.925    23295870.597
         9.000           9.250
                   -998743.925 3   -778241.746 5  23663854.355    23663859.772
         5.750           7.000
                   5924820.099 3   4616735.681 5  23774887.448    23774893.812
         5.000           6.250
                  -4728761.605 5  -3684748.863 5  23014543.644    23014547.632
         9.750          11.000
                   2540037.966 6   1979247.945 6  21007699.237    21007702.667
        15.250          18.500
 95  4 21 19 58 29.9990000  0  7G 2G 7G12G15G19G26G27
                  -1246673.176 6   -971433.497 6  21055890.487    21055894.159
        18.250          21.250
                  -4635104.828 6  -3611767.725 6  20196623.683    20196627.105
        17.750          20.500
                  -4561205.701 5  -1982406.908 5  23286742.964    23286748.714
         9.000           9.250
                   -993871.637 3   -774445.160 5  23664781.714    23664787.519
         6.000           7.500
                   5963194.614 3   4646637.825 5  23782189.644    23782196.675
         5.000           6.750
                  -4746608.262 5  -3698655.358 5  23011147.558    23011151.530
         9.750          10.750
                   2563309.685 6   1997381.734 6  21012127.745    21012131.464
        15.000          18.750
 95  4 21 19 58 44.9990000  0  7G 2G 7G12G15G19G26G27
                  -1252091.377 6   -975655.473 6  21054859.487    21054862.659
        18.500          21.000
                  -4652885.610 6  -3625622.873 6  20193240.034    20193243.577
        17.750          20.750
                  -4609144.963 5  -2019762.154 5  23277619.659    23277625.741
         8.750           9.000
                   -988867.035 3   -770545.473 5  23665733.519    23665739.519
         6.000           7.500
                   6001599.768 3   4676563.836 5  23789498.440    23789505.210
         5.000           6.750
                  -4764337.456 5  -3712470.318 5  23007773.769    23007777.897
         9.750          10.750
                   2586695.731 6   2015604.604 6  21016577.808    21016581.757
        14.750          18.750
 95  4 21 19 58 59.9990000  0  7G 2G 7G12G15G19G26G27
                  -1257471.833 6   -979848.033 6  21053835.612    21053839.343
        18.250          21.250
                  -4670551.881 6  -3639388.788 6  20189878.339    20189881.874
        17.750          20.500
                  -4657084.059 5  -2057117.274 5  23268497.347    23268503.542
         9.000           9.000
                   -983729.333 4   -766542.074 5  23666711.753    23666717.296
         6.250           7.750
                   6040036.599 3   4706514.539 5  23796813.105    23796819.542
         5.250           6.750
                  -4781950.297 5  -3726194.611 5  23004422.245    23004426.167
         9.750          10.750
                   2610196.893 6   2033917.173 6  21021049.870    21021054.136
        14.500          18.750
 95  4 21 19 59 14.9990000  0  7G 2G 7G12G15G19G26G27
                  -1262816.920 6   -984013.040 6  21052818.433    21052822.280
        18.250          21.250
                  -4688105.159 6  -3653066.658 6  20186537.940    20186541.655
        17.750          20.500
                  -4705023.254 5  -2094472.462 5  23259374.956    23259380.464
         9.000           9.000
                   -978458.935 4   -762435.271 5  23667714.800    23667720.558
         6.250           8.000
                   6078506.046 3   4736490.650 5  23804133.386    23804140.069
         5.000           6.750
                  -4799445.955 5  -3739827.595 5  23001093.097    23001096.671
         9.750          10.750
                   2633811.760 6   2052318.342 6  21025543.565    21025547.444
        14.750          18.250
 95  4 21 19 59 29.9990000  0  7G 2G 7G12G15G19G26G27
                  -1268129.864 6   -988152.998 6  21051807.612    21051810.815
        18.250          21.000
                  -4705548.601 6  -3666658.940 6  20183218.558    20183222.155
        17.500          20.500
                  -4752963.071 5  -2131828.138 5  23250252.081    23250258.132
         8.750           9.000
                   -973056.673 3   -758225.722 5  23668742.378    23668748.003
         6.000           8.000
                   6117007.468 3   4766491.662 5  23811460.480    23811466.964
         5.000           6.750
                  -4816824.347 5  -3753369.201 5  22997785.901    22997789.901
         9.750          10.750
                   2657538.692 6   2070806.846 6  21030058.847    21030062.526
        14.750          18.000
 95  4 21 19 59 44.9990000  0  7G 2G 7G12G15G19G26G27
                  -1273412.269 6   -992269.154 6  21050802.222    21050805.737
        18.250          21.000
                  -4722880.721 6  -3680164.475 6  20179920.323    20179923.858
        17.500          20.500
                  -4800902.154 5  -2169183.240 5  23241129.409    23241135.394
         8.500           9.250
                   -967521.425 3   -753912.540 5  23669796.081    23669801.202
         6.000           7.750
                   6155543.996 3   4796520.036 5  23818793.651    23818800.546
         5.000           6.750
                  -4834085.510 5  -3766819.468 5  22994501.159    22994505.183
         9.750          10.750
                   2681376.567 6   2089381.796 6  21034595.097    21034598.718
        15.000          18.000
 95  4 21 19 59 59.9990000  0  7G 2G 7G12G15G19G26G27
                  -1278668.250 6   -996364.726 6  21049802.050    21049806.015
        18.250          21.250
                  -4740103.717 6  -3693584.982 6  20176642.933    20176646.390
        17.500          20.250
                  -4848842.065 5  -2206538.985 5  23232006.823    23232012.823
         8.750           9.250
                   -961855.024 3   -749497.162 5  23670874.542    23670879.897
         6.000           8.000
                   6194114.971 3   4826575.254 5  23826133.151    23826140.097
         5.000           6.500
                  -4851231.904 5  -3780180.302 5  22991238.237    22991242.647
         9.750          10.750
                   2705321.842 6   2108040.438 6  21039151.745    21039155.284
        15.000          18.000
 95  4 21 20  0 14.9990000  0  7G 2G 7G12G15G19G26G27
                  -1283896.224 6  -1000438.478 6  21048807.464    21048810.647
        18.750          21.000
                  -4757218.419 6  -3706921.104 6  20173385.972    20173389.382
        17.500          20.250
                  -4896781.180 5  -2243894.115 5  23222884.409    23222890.460
         9.000           9.250
                   -956056.062 3   -744978.487 5  23671977.542    23671982.839
         5.750           7.750
                   6232722.872 2   4856659.244 5  23833479.487    23833486.370
         4.750           6.250
                  -4868262.490 5  -3793450.895 5  22987997.534    22988001.878
         9.750          10.750
                   2729373.188 6   2126781.730 6  21043728.683    21043732.312
        14.750          18.000
 95  4 21 20  0 29.9990000  0  7G 2G 7G12G15G19G26G27
                  -1289096.603 6  -1004490.717 6  21047817.862    21047821.065
        19.000          20.750
                  -4774225.293 6  -3720173.206 6  20170149.808    20170153.308
        17.750          20.250
                  -4944720.704 5  -2281249.565 5  23213761.675    23213767.417
         9.250           9.000
                   -950125.901 3   -740357.579 5  23673106.105    23673111.116
         5.750           7.750
                   6271372.006 3   4886775.353 5  23840834.636    23840841.233
         5.000           6.500
                  -4885176.460 5  -3806630.619 5  22984778.784    22984782.987
         9.750          10.750
                   2753527.842 6   2145603.516 6  21048325.190    21048329.054
        14.750          18.000
 95  4 21 20  0 44.9990000  0  7G 2G 7G12G15G19G26G27
                  -1294269.632 6  -1008521.651 6  21046833.323    21046836.956
        19.000          20.750
                  -4791124.567 6  -3733341.461 6  20166933.862    20166937.440
        17.500          20.250
                  -4992661.173 5  -2318605.754 5  23204639.347    23204644.858
         9.250           9.250
                   -944065.393 4   -735635.113 5  23674259.644    23674264.937
         6.250           7.500
                   6310065.222 3   4916925.818 5  23848198.026    23848205.058
         5.000           6.750
                  -4901974.047 5  -3819719.652 5  22981582.136    22981586.335
         9.750          10.750
                   2777784.266 6   2164504.603 6  21052941.042    21052945.042
        14.750          18.000
 95  4 21 20  0 59.9990000  0  7G 2G 7G12G15G19G26G27
                  -1299413.258 6  -1012529.673 6  21045854.651    21045858.093
        18.750          20.750
                  -4807915.825 6  -3746425.548 6  20163738.526    20163742.007
        17.500          20.250
                  -5040601.566 5  -2355961.878 5  23195516.573    23195521.843
         9.500           9.000
                   -937873.789 4   -730810.483 5  23675437.831    23675442.483
         6.250           7.000
                   6348802.797 3   4947110.850 5  23855569.347    23855577.304
         5.000           6.500
                  -4918654.782 5  -3832717.636 5  22978407.667    22978412.194
         9.750          10.750
                   2802140.887 6   2183483.768 6  21057575.737    21057579.741
        14.750          18.000
 95  4 21 20  1 14.9990000  0  7G 2G 7G12G15G19G26G27
                  -1304528.832 6  -1016515.838 6  21044881.011    21044884.390
        18.500          20.500
                  -4824595.087 6  -3759422.367 6  20160564.550    20160568.089
        17.500          20.250
                  -5088541.429 5  -2393317.593 5  23186393.675    23186399.077
         9.500           9.000
                   -931550.815 4   -725883.512 5  23676641.417    23676645.745
         6.250           7.000
                   6387585.753 3   4977331.251 5  23862949.292    23862957.206
         5.000           6.250
                  -4935214.742 5  -3845621.507 5  22975256.862    22975261.362
         9.750          11.000
                   2826594.983 6   2202538.889 6  21062229.440    21062233.120
        15.000          18.000
 95  4 21 20  1 29.9990000  0  7G 2G 7G12G15G19G26G27
                  -1309617.559 6  -1020481.082 6  21043912.706    21043916.272
        18.500          20.500
                  -4841161.985 6  -3772331.629 6  20157412.026    20157415.437
        17.500          20.250
                  -5136480.660 5  -2430672.818 5  23177270.878    23177276.472
         9.500           9.000
                   -925096.798 4   -720854.427 5  23677868.980    23677874.644
         6.250           7.500
                   6426413.807 3   5007586.787 5  23870338.253    23870345.562
         5.250           6.000
                  -4951653.035 5  -3858430.571 5  22972129.034    22972133.284
         9.750          11.000
                   2851146.919 6   2221670.249 6  21066901.620    21066905.589
        15.000          18.250
 95  4 21 20  1 44.9990000  0  7G 2G 7G12G15G19G26G27
                  -1314680.108 6  -1024425.928 6  21042949.331    21042952.788
        18.500          20.500
                  -4857614.621 6  -3785151.858 6  20154281.292    20154284.659
        17.500          20.000
                  -5184419.784 5  -2468027.954 5  23168148.315    23168154.601
         9.250           9.500
                   -918512.518 3   -715723.813 5  23679121.667    23679127.519
         6.000           7.500
                   6465287.647 3   5037877.992 5  23877736.081    23877742.866
         5.250           5.750
                  -4967970.880 5  -3871145.785 5  22969023.761    22969028.253
         9.750          11.000
                   2875795.669 6   2240877.046 6  21071592.159    21071596.194
        15.250          18.750
 95  4 21 20  1 59.9990000  0  7G 2G 7G12G15G19G26G27
                  -1319713.872 6  -1028348.341 6  21041991.573    21041994.858
        18.500          20.250
                  -4873951.812 6  -3797882.128 6  20151172.370    20151175.812
        17.500          20.000
                  -5232357.479 5  -2505381.973 5  23159026.394    23159031.929
         9.250           9.500
                   -911796.909 4   -710490.869 5  23680401.105    23680405.632
         6.750           7.750
                   6504207.250 3   5068204.866 5  23885142.886    23885149.198
         5.750           5.250
                  -4984165.446 5  -3883764.931 5  22965942.175    22965946.339
        10.000          11.000
                   2900540.340 6   2260158.582 6  21076300.745    21076305.069
        15.000          18.750
 95  4 21 20  2 14.9990000  0  7G 2G 7G12G15G19G26G27
                  -1324715.130 6  -1032245.426 6  21041039.698    21041043.261
        18.250          20.250
                  -4890174.728 6  -3810523.355 6  20148085.065    20148088.608
        17.250          20.000
                  -5280293.250 5  -2542734.496 5  23149904.222    23149910.159
         9.250           9.750
                   -904949.617 4   -705155.324 5  23681703.253    23681708.772
         6.500           7.750
                   6543170.349 3   5098565.643 5  23892556.503    23892564.124
         5.500           5.250
                  -5000234.764 5  -3896286.486 5  22962884.175    22962888.265
        10.000          11.000
                   2925381.639 6   2279515.416 6  21081028.042    21081031.862
        15.000          18.250
 95  4 21 20  2 29.9990000  0  7G 2G 7G12G15G19G26G27
                  -1329683.755 6  -1036117.086 6  21040094.105    21040097.702
        18.500          20.250
                  -4906282.434 6  -3823074.808 6  20145019.925    20145023.472
        17.500          20.250
                  -5328227.628 5  -2580085.932 5  23140782.644    23140788.249
         9.250           9.500
                   -897971.385 4   -699717.736 5  23683031.050    23683036.694
         6.250           7.750
                   6582174.027 3   5128958.043 5  23899978.394    23899986.718
         5.750           5.250
                  -5016177.553 5  -3908709.446 5  22959850.347    22959854.284
         9.750          11.000
                   2950321.997 6   2298949.440 6  21085774.308    21085777.710
        15.500          18.250
 95  4 21 20  2 44.9990000  0  7G 2G 7G12G15G19G26G27
                  -1334617.897 6  -1039961.871 6  21039155.433    21039158.554
        18.750          20.000
                  -4922273.513 6  -3835535.383 6  20141977.011    20141980.538
        17.250          20.000
                  -5376157.632 5  -2617433.963 5  23131661.722    23131667.562
         9.000           9.250
                   -890859.490 4   -694176.015 5  23684384.722    23684389.397
         6.250           7.500
                   6621220.327 3   5159383.643 5  23907409.487    23907417.011
         5.500           5.250
                  -5031988.094 5  -3921029.357 5  22956841.605    22956845.601
         9.750          10.750
                   2975366.658 6   2318464.741 6  21090539.878    21090543.397
        15.500          18.000
 95  4 21 20  2 59.9990000  0  7G 2G 7G12G15G19G26G27
                  -1339518.107 6  -1043780.215 6  21038222.659    21038226.171
        18.750          20.000
                  -4938148.405 6  -3847905.424 6  20138956.198    20138959.577
        17.500          20.000
                  -5424083.721 5  -2654778.936 5  23122541.628    23122547.730
         9.000           9.250
                   -883614.754 3   -688530.772 5  23685762.542    23685767.831
         5.750           7.250
                   6660306.191 3   5189840.094 5  23914847.433    23914854.042
         5.750           5.250
                  -5047667.016 5  -3933246.706 5  22953858.019    22953861.819
        10.000          10.750
                   3000513.739 6   2338059.850 6  21095325.073    21095328.765
        15.000          18.000
 95  4 21 20  3 14.9990000  0  7G 2G 7G12G15G19G26G27
                  -1344388.174 6  -1047575.078 6  21037295.862    21037299.749
        18.250          20.250
                  -4953909.281 6  -3860186.618 6  20135956.917    20135960.358
        17.750          20.250
                  -5472007.558 5  -2692122.156 5  23113421.870    23113427.780
         9.000           9.250
                   -876239.021 4   -682783.437 5  23687166.198    23687172.101
         6.250           7.500
                   6699428.705 3   5220325.077 5  23922291.862    23922298.480
         5.750           5.250
                  -5063213.537 5  -3945360.888 5  22950899.636    22950903.226
        10.000          10.750
                   3025758.879 6   2357731.362 6  21100129.245    21100132.862
        15.000          18.000
 95  4 21 20  3 29.9990000  0  7G 2G 7G12G15G19G26G27
                  -1349226.715 6  -1051345.372 6  21036375.542    21036378.812
        18.750          20.250
                  -4969558.064 6  -3872380.467 6  20132978.940    20132982.366
        17.500          20.250
                  -5519927.168 5  -2729462.083 5  23104303.112    23104308.940
         9.250           9.000
                   -868730.688 4   -676932.791 5  23688596.026    23688601.019
         6.750           8.000
                   6738590.485 3   5250840.658 5  23929744.331    23929750.612
         5.750           5.250
                  -5078624.706 5  -3957369.600 5  22947966.667    22947970.792
         9.750          10.750
                   3051106.344 6   2377482.613 6  21104953.003    21104956.675
        15.250          18.250
 95  4 21 20  3 44.9990000  0  7G 2G 7G12G15G19G26G27
                  -1354033.636 6  -1055091.024 6  21035460.315    21035463.800
        18.500          20.000
                  -4985101.390 6  -3884492.146 6  20130021.026    20130024.597
        17.500          20.000
                  -5567845.558 5  -2766801.068 5  23095184.769    23095190.183
         9.500           9.000
                   -861092.960 4   -670981.334 5  23690048.511    23690054.144
         6.500           7.750
                   6777789.992 3   5281385.636 5  23937203.792    23937210.440
         5.750           5.250
                  -5093904.226 5  -3969275.730 5  22945059.120    22945063.351
         9.500          10.750
                   3076553.014 6   2397311.170 6  21109795.167    21109799.077
        15.250          18.500
 95  4 21 20  3 59.9990000  0  7G 2G 7G12G15G19G26G27
                  -1358801.832 6  -1058806.503 6  21034553.003    21034556.644
        18.500          20.000
                  -5000537.153 6  -3896520.004 6  20127083.870    20127087.515
        17.500          20.500
                  -5615759.827 5  -2804136.840 5  23086067.417    23086072.706
        10.000           9.250
                   -853323.250 4   -664927.017 5  23691526.964    23691532.495
         6.250           7.500
                   6817027.380 3   5311960.133 5  23944670.745    23944677.034
         5.500           5.250
                  -5109049.371 5  -3981077.144 5  22942176.847    22942181.065
         9.250          10.500
                   3102102.766 6   2417220.048 6  21114656.808    21114660.929
        14.500          18.250
 95  4 21 20  4 14.9990000  0  7G 2G 7G12G15G19G26G27
                  -1363529.062 6  -1062490.060 6  21033653.901    21033657.480
        19.000          20.250
                  -5015867.265 6  -3908465.541 6  20124166.651    20124170.413
        17.500          20.500
                  -5663670.628 5  -2841469.908 5  23076949.878    23076956.077
         9.750           9.750
                   -845422.556 4   -658770.624 5  23693030.628    23693036.296
         6.250           7.750
                   6856301.355 3   5342563.149 5  23952144.230    23952150.710
         5.500           5.250
                  -5124062.312 5  -3992775.549 5  22939320.253    22939324.089
         9.500          10.500
                   3127757.834 6   2437210.983 6  21119538.636    21119542.956
        14.250          18.250
 95  4 21 20  4 29.9990000  0  7G 2G 7G12G15G19G26G27
                  -1368217.343 6  -1066143.271 6  21032761.487    21032765.077
        19.000          20.000
                  -5031091.465 6  -3920328.548 6  20121269.573    20121273.308
        17.500          20.500
                  -5711577.831 5  -2878800.170 5  23067833.190    23067839.327
         9.500           9.750
                   -837390.969 4   -652512.242 5  23694559.464    23694564.952
         6.750           8.250
                   6895613.916 3   5373196.243 5  23959625.651    23959631.929
         5.500           5.500
                  -5138945.406 5  -4004372.767 5  22936488.323    22936492.050
         9.500          10.500
                   3153521.536 6   2457286.571 6  21124441.612    21124445.788
        14.250          18.500
 95  4 21 20  4 44.9990000  0  7G 2G 7G12G15G19G26G27
                  -1372870.276 6  -1069768.935 6  21031876.394    21031879.351
        19.000          19.750
                  -5046210.876 6  -3932109.898 6  20118392.464    20118396.136
        17.500          20.750
                  -5759481.739 5  -2916127.860 5  23058717.612    23058723.476
         9.750           9.750
                   -829229.036 4   -646152.303 5  23696112.644    23696117.964
         6.750           8.250
                   6934967.157 3   5403861.036 5  23967114.159    23967120.413
         5.250           5.500
                  -5153700.297 5  -4015870.097 5  22933680.339    22933684.444
         9.500          10.500
                   3179394.093 6   2477446.979 6  21129365.323    21129368.980
        14.750          18.250
 95  4 21 20  4 59.9990000  0  7G 2G 7G12G15G19G26G27
                  -1377486.669 6  -1073366.121 6  21030997.862    21031001.382
        19.250          20.250
                  -5061226.713 6  -3943810.542 6  20115535.073    20115538.745
        17.500          20.500
                  -5807382.601 5  -2953453.181 5  23049602.565    23049607.952
         9.750           9.750
                   -820937.163 4   -639691.107 5  23697690.261    23697696.249
         6.500           8.250
                   6974359.592 3   5434556.347 5  23974609.870    23974616.272
         5.000           5.750
                  -5168329.496 5  -4027269.481 5  22930896.534    22930901.101
         9.500          10.750
                   3205371.299 6   2497688.940 6  21134308.839    21134312.296
        15.000          18.250
 95  4 21 20  5 14.9990000  0  7G 2G 7G12G15G19G26G27
                  -1382066.550 6  -1076934.864 6  21030126.159    21030130.046
        19.250          20.500
                  -5076137.426 6  -3955429.273 6  20112697.644    20112701.358
        17.250          20.500
                  -5855279.426 5  -2990775.358 5  23040487.948    23040493.714
         9.500          10.000
                   -812514.834 3   -633128.252 5  23699292.690    23699298.487
         6.000           8.250
                   7013790.474 3   5465281.606 5  23982113.956    23982119.948
         5.000           5.750
                  -5182836.056 5  -4038573.303 5  22928136.394    22928140.573
         9.500          10.750
                   3231451.727 6   2518011.334 6  21139271.620    21139275.296
        15.000          18.250
 95  4 21 20  5 29.9990000  0  7G 2G 7G12G15G19G26G27
                  -1386610.912 6  -1080475.928 6  21029261.620    21029264.776
        19.500          20.250
                  -5090944.204 6  -3966967.017 6  20109879.823    20109883.718
        17.250          20.500
                  -5903171.739 5  -3028094.011 5  23031374.073    23031380.265
         9.250          10.000
                   -803961.877 3   -626463.619 5  23700920.519    23700926.030
         6.000           8.250
                   7053259.917 3   5496036.924 5  23989625.042    23989630.995
         5.250           5.750
                  -5197218.893 5  -4049780.717 5  22925399.370    22925403.319
         9.500          10.750
                   3257638.020 6   2538416.212 6  21144254.448    21144258.675
        14.500          18.250
 95  4 21 20  5 44.9990000  0  7G 2G 7G12G15G19G26G27
                  -1391118.500 6  -1083988.332 6  21028403.753    21028407.050
        19.500          20.500
                  -5105644.426 6  -3978421.728 6  20107082.339    20107086.198
        17.250          20.500
                  -5951059.032 5  -3065408.754 5  23022261.519    23022267.761
         9.250          10.250
                   -795278.023 3   -619696.980 5  23702572.690    23702578.581
         6.000           8.250
                   7092768.976 3   5526823.121 5  23997142.386    23997149.855
         5.000           5.750
                  -5211480.480 5  -4060893.648 5  22922685.565    22922689.515
         9.750          10.750
                   3283930.469 6   2558903.809 6  21149257.800    21149261.636
        14.500          18.250
 95  4 21 20  5 59.9990000  0  6G 2G 7G12G15G26G27
                  -1395591.367 6  -1087473.684 6  21027552.753    21027556.335
        19.500          20.750
                  -5120234.358 6  -3989790.499 6  20104305.886    20104309.616
        17.000          20.250
                  -5998941.622 5  -3102719.834 5  23013149.440    23013156.276
         9.250          10.250
                   -786463.799 3   -612828.756 5  23704250.081    23704255.792
         6.000           8.250
                  -5225623.997 5  -4071914.575 5  22919994.120    22919998.144
         9.500          10.750
                   3310325.091 6   2579471.026 6  21154280.683    21154284.409
        14.500          18.250
 95  4 21 20  6 14.9990000  0  6G 2G 7G12G15G26G27
                  -1400032.931 6  -1090934.645 6  21026707.425    21026710.909
        19.500          20.750
                  -5134712.297 6  -4001072.005 6  20101550.987    20101554.585
        17.250          20.250
                  -6046819.163 5  -3140026.984 5  23004038.925    23004045.499
         9.750          10.500
                   -777519.034 4   -605858.820 5  23705952.323    23705957.249
         6.250           8.000
                  -5239650.380 5  -4082844.230 5  22917324.730    22917328.815
         9.250          10.750
                   3336822.098 6   2600118.024 6  21159323.081    21159326.796
        14.750          18.250
 95  4 21 20  6 29.9990000  0  6G 2G 7G12G15G26G27
                  -1404447.925 6  -1094374.900 6  21025867.081    21025870.675
        19.500          20.500
                  -5149079.142 6  -4012266.944 6  20098817.112    20098820.663
        17.250          20.250
                  -6094691.088 5  -3177329.761 5  22994929.464    22994935.546
         9.750          10.250
                   -768443.702 4   -598787.124 5  23707679.886    23707684.601
         6.750           7.750
                  -5253559.053 5  -4093682.165 5  22914678.245    22914682.308
         9.250          10.750
                   3363417.329 6   2620841.560 6  21164383.722    21164387.905
        14.750          18.750
 95  4 21 20  6 44.9990000  0  6G 2G 7G12G15G26G27
                  -1408836.846 6  -1097794.840 6  21025032.339    21025035.698
        19.500          20.750
                  -5163334.861 6  -4023375.291 6  20096104.440    20096107.937
        17.000          20.000
                  -6142557.377 5  -3214628.131 5  22985820.612    22985826.612
         9.750          10.000
                   -759237.936 4   -591613.797 5  23709431.120    23709437.288
         6.250           8.500
                  -5267349.497 5  -4104427.973 5  22912054.019    22912058.257
         9.250          10.750
                   3390107.276 6   2641638.896 6  21169462.503    21169467.026
        14.250          18.750
 95  4 21 20  6 59.9990000  0  6G 2G 7G12G15G26G27
                  -1413196.301 6  -1101191.814 6  21024202.558    21024206.163
        19.500          21.000
                  -5177478.867 6  -4034396.588 6  20093412.761    20093416.538
        17.000          20.000
                  -6190417.279 5  -3251921.537 5  22976713.378    22976718.812
        10.000           9.750
                   -749901.438 3   -584338.603 5  23711206.933    23711213.722
         5.750           8.250
                  -5281020.052 5  -4115080.360 5  22909452.300    22909456.620
         9.250          11.000
                   3416890.137 6   2662508.633 6  21174558.972    21174563.671
        14.000          18.250
 95  4 21 20  7 14.9990000  0  6G 2G 7G12G15G26G27
                  -1417525.250 6  -1104565.027 6  21023378.667    21023382.355
        19.250          20.750
                  -5191511.214 6  -4045330.877 6  20090742.597    20090746.065
        17.250          19.750
                  -6238271.121 5  -3289210.221 5  22967606.972    22967612.487
        10.000           9.750
                   -740434.718 3   -576961.930 5  23713009.808    23713014.237
         6.000           7.750
                  -5294570.274 5  -4125638.983 5  22906873.542    22906878.565
         9.250          11.250
                   3443764.280 6   2683449.499 6  21179673.230    21179677.483
        14.000          18.000
 95  4 21 20  7 29.9990000  0  6G 2G 7G12G15G26G27
                  -1421824.840 6  -1107915.357 6  21022560.808    21022564.265
        19.750          21.000
                  -5205432.358 6  -4056178.517 6  20088093.722    20088096.897
        17.250          19.500
                  -6286118.414 5  -3326493.804 5  22958501.597    22958507.386
         9.750          10.000
                   -730837.646 3   -569483.695 5  23714835.198    23714841.167
         6.000           7.750
                  -5308000.162 5  -4136103.837 5  22904318.011    22904322.991
         9.250          11.500
                   3470731.150 6   2704462.619 6  21184804.980    21184809.011
        14.000          18.000
 95  4 21 20  7 44.9990000  0  6G 2G 7G12G15G26G27
                  -1426092.462 6  -1111240.778 6  21021748.480    21021752.288
        19.500          21.250
                  -5219242.044 6  -4066939.309 6  20085465.808    20085468.933
        17.250          19.500
                  -6333959.008 5  -3363772.159 5  22949397.847    22949404.089
         9.750          10.250
                   -721110.323 4   -561903.966 5  23716686.769    23716692.495
         6.250           8.000
                  -5321309.502 5  -4146474.766 5  22901785.394    22901790.112
         9.250          11.250
                   3497791.030 6   2725548.215 6  21189954.440    21189958.468
        14.000          18.000
 95  4 21 20  7 59.9990000  0  6G 2G 7G12G15G26G27
                  -1430325.724 6  -1114539.427 6  21020942.862    21020946.288
        19.500          21.000
                  -5232938.161 6  -4077611.601 6  20082859.495    20082862.710
        17.250          19.500
                  -6381790.753 5  -3401043.625 5  22940296.089    22940301.964
        10.000          10.250
                   -711250.898 4   -554221.306 5  23718563.011    23718568.315
         6.250           7.750
                  -5334499.105 5  -4156752.384 5  22899275.401    22899279.679
         9.250          11.000
                   3524945.995 6   2746707.908 6  21195121.894    21195125.772
        14.000          17.750
 95  4 21 20  8 14.9990000  0  6G 2G 7G12G15G26G27
                  -1434526.907 6  -1117813.076 6  21020143.472    21020146.874
        19.750          21.000
                  -5246525.681 6  -4088199.273 6  20080273.894    20080277.241
        17.250          19.750
                  -6429615.876 5  -3438309.929 5  22931195.542    22931200.870
        10.250          10.250
                   -701261.897 3   -546437.669 5  23720462.948    23720469.198
         6.000           8.000
                  -5347567.676 5  -4166935.698 5  22896788.675    22896792.987
         9.250          11.000
                   3552195.862 6   2767941.546 6  21200307.456    21200311.355
        14.000          17.750
 95  4 21 20  8 29.9990000  0  7G 2G 7G12G15G 4G26G27
                  -1438693.544 6  -1121059.808 6  21019350.589    21019354.577
        19.500          21.500
                  -5260004.024 6  -4098701.871 6  20077708.995    20077712.405
        17.250          19.750
                  -6477432.650 5  -3475569.726 5  22922096.151    22922101.647
        10.000          10.250
                   -691141.982 4   -538552.008 5  23722389.690    23722395.151
         6.250           8.000
                    -45347.878 3    -32123.71715  23959878.542    23959885.147
         5.000           6.000
                  -5360512.234 5  -4177022.370 5  22894325.472    22894329.901
         9.250          11.000
                   3579543.458 6   2789251.336 6  21205511.112    21205515.241
        14.000          17.250
 95  4 21 20  8 44.9990000  0  7G 2G 7G12G15G 4G26G27
                  -1442822.930 6  -1124277.517 6  21018564.722    21018568.745
        19.500          21.750
                  -5273372.607 6  -4109118.941 6  20075165.003    20075168.452
        17.250          19.750
                  -6525240.937 5  -3512822.906 5  22912998.276    22913003.636
        10.000          10.250
                   -680891.118 4   -530564.310 5  23724340.097    23724346.019
         6.250           8.000
                   -107201.244 3    -80321.026 5  23948108.034    23948115.335
         5.000           6.250
                  -5373334.076 5  -4187013.425 5  22891885.605    22891890.081
         9.250          11.000
                   3606989.088 6   2810637.519 6  21210733.995    21210737.730
        14.000          16.750
 95  4 21 20  8 59.9990000  0  7G 2G 7G12G15G 4G26G27
                  -1446914.160 6  -1127465.493 6  21017786.190    21017789.769
        19.000          21.250
                  -5286631.402 6  -4119450.464 6  20072641.948    20072645.366
        17.250          19.750
                  -6573039.896 5  -3550068.822 5  22903902.144    22903907.421
         9.750          10.000
                   -670508.995 4   -522474.339 5  23726315.964    23726321.460
         6.250           7.750
                   -169067.680 3   -128528.516 5  23936335.526    23936341.882
         5.000           6.250
                  -5386033.046 5  -4196908.733 5  22889468.987    22889473.433
         9.000          11.000
                   3634535.404 6   2832102.161 6  21215976.206    21215979.659
        14.250          16.500
 95  4 21 20  9 14.9990000  0  7G 2G 7G12G15G 4G26G27
                  -1450968.844 6  -1130624.986 6  21017014.620    21017018.108
        19.000          21.250
                  -5299782.110 6  -4129697.762 6  20070139.401    20070142.890
        17.250          20.000
                  -6620829.957 5  -3587307.810 5  22894808.097    22894813.335
        10.000           9.750
                   -659996.331 4   -514282.660 5  23728316.487    23728321.300
         6.250           7.500
                   -230947.717 3   -176746.638 5  23924560.355    23924566.706
         5.250           6.250
                  -5398609.555 5  -4206708.625 5  22887075.776    22887080.335
         9.000          11.000
                   3662182.429 6   2853645.276 6  21221237.355    21221240.851
        14.500          17.000
 95  4 21 20  9 29.9990000  0  7G 2G 7G12G15G 4G26G27
                  -1454990.357 6  -1133758.636 6  21016249.308    21016253.417
        19.250          21.750
                  -5312824.742 6  -4139860.843 6  20067657.542    20067661.042
        17.250          19.750
                  -6668611.963 5  -3624540.516 5  22885715.495    22885720.995
        10.250          10.000
                   -649354.325 3   -505990.185 5  23730341.222    23730346.573
         6.000           7.500
                   -292839.062 3   -224973.546 5  23912782.464    23912789.261
         5.000           6.250
                  -5411065.919 5  -4216414.888 5  22884705.433    22884709.800
         9.000          11.000
                   3689929.223 6   2875266.133 6  21226517.276    21226521.421
        14.250          17.000
 95  4 21 20  9 44.9990000  0  7G 2G 7G12G15G 4G26G27
                  -1458976.864 6  -1136865.012 6  21015490.870    21015494.831
        19.500          21.750
                  -5325755.143 6  -4149936.474 6  20065196.917    20065200.476
        17.250          19.750
                  -6716384.814 5  -3661766.098 5  22876624.940    22876630.046
        10.500          10.000
                   -638582.197 3   -497596.307 5  23732391.495    23732396.718
         6.000           7.500
                   -354738.694 3   -273206.907 5  23901003.003    23901010.081
         5.000           6.750
                  -5423398.742 5  -4226024.883 5  22882358.675    22882363.077
         9.000          11.000
                   3717777.906 6   2896966.380 6  21231816.698    21231820.800
        14.250          17.000
 95  4 21 20  9 59.9990000  0  7G 2G 7G12G15G 4G26G27
                  -1462926.515 6  -1139942.664 6  21014739.315    21014742.683
        19.500          21.250
                  -5338572.339 6  -4159923.895 6  20062757.823    20062761.417
        17.250          19.750
                  -6764148.323 5  -3698984.391 5  22867535.753    22867540.894
        10.250           9.750
                   -627680.120 4   -489101.171 5  23734465.917    23734471.116
         6.250           7.500
                   -416641.178 3   -321442.500 5  23889223.355    23889230.476
         5.000           6.750
                  -5435605.163 5  -4235536.381 5  22880035.933    22880040.401
         9.250          11.000
                   3745729.272 6   2918746.643 6  21237135.675    21237139.308
        14.250          16.500
 95  4 21 20 10 14.9990000  0  7G 2G 7G12G15G 4G26G27
                  -1466838.306 6  -1142990.812 6  21013994.823    21013998.300
        19.500          21.000
                  -5351276.370 6  -4169823.138 6  20060340.214    20060343.991
        17.000          19.750
                  -6811901.744 5  -3736194.836 5  22858448.308    22858453.304
        10.250           9.750
                   -616647.502 3   -480504.330 5  23736565.589    23736570.452
         6.000           7.500
                   -478543.263 3   -369677.794 5  23877444.065    23877450.573
         5.250           6.750
                  -5447684.018 5  -4244948.485 5  22877737.433    22877741.722
         9.250          11.000
                   3773783.395 6   2940606.979 6  21242474.105    21242477.769
        14.000          16.250
 95  4 21 20 10 29.9990000  0  7G 2G 7G12G15G 4G26G27
                  -1470714.138 6  -1146010.941 6  21013257.495    21013261.276
        19.750          21.500
                  -5363867.941 6  -4179634.746 6  20057944.136    20057947.980
        17.000          20.000
                  -6859647.767 5  -3773399.509 5  22849362.128    22849367.589
        10.000          10.000
                   -605487.385 4   -471808.128 5  23738689.081    23738694.772
         6.250           7.500
                   -540450.107 3   -417916.780 5  23865662.761    23865670.218
         5.000           6.750
                  -5459637.601 5  -4254262.970 5  22875462.464    22875467.163
         9.000          10.750
                   3801936.832 6   2962544.702 6  21247831.542    21247835.167
        14.000          16.250
 95  4 21 20 10 44.9990000  0  7G 2G 7G12G15G 4G26G27
                  -1474549.976 6  -1148999.908 6  21012527.480    21012531.159
        19.500          21.250
                  -5376345.274 6  -4189357.339 6  20055569.753    20055573.534
        17.250          19.750
                  -6907384.108 5  -3810596.632 5  22840278.230    22840283.831
        10.000          10.000
                   -594197.794 3   -463011.031 5  23740837.644    23740842.690
         6.000           7.250
                   -602360.116 3   -466158.245 5  23853882.198    23853888.948
         5.250           6.750
                  -5471463.627 5  -4263478.060 5  22873211.995    22873216.952
         9.000          11.000
                   3830190.039 6   2984560.172 6  21253207.940    21253211.761
        14.250          16.500
 95  4 21 20 10 59.9990000  0  7G 2G 7G12G15G 4G26G27
                  -1478347.261 6  -1151958.835 6  21011804.776    21011808.140
        19.500          21.000
                  -5388709.042 6  -4198991.440 6  20053217.042    20053220.694
        17.250          19.750
                  -6955111.056 5  -3847786.435 5  22831196.167    22831201.511
        10.000          10.000
                   -582779.426 3   -454113.596 5  23743010.464    23743015.155
         6.000           6.750
                   -664271.164 3   -514400.522 5  23842101.198    23842107.288
         5.000           6.250
                  -5483160.660 5  -4272592.637 5  22870986.112    22870990.983
         9.000          11.000
                   3858543.205 6   3006653.532 6  21258603.198    21258607.823
        14.000          17.000
 95  4 21 20 11 14.9990000  0  7G 2G 7G12G15G 4G26G27
                  -1482104.991 6  -1154886.935 6  21011089.917    21011093.132
        19.500          21.250
                  -5400957.764 6  -4208535.899 6  20050886.401    20050889.745
        17.250          19.500
                  -7002827.215 5  -3884967.837 5  22822116.464    22822121.542
        10.250          10.250
                   -571231.226 3   -445114.993 5  23745207.261    23745213.312
         5.750           6.750
                   -726180.962 3   -562641.820 5  23830319.472    23830326.628
         5.000           6.750
                  -5494724.350 5  -4281603.317 5  22868785.597    22868790.300
         9.000          11.000
                   3886997.823 6   3028825.934 6  21264017.823    21264022.519
        13.750          17.250
 95  4 21 20 11 29.9990000  0  7G 2G 7G12G15G 4G26G27
                  -1485823.727 6  -1157784.653 6  21010381.870    21010385.831
        19.250          21.750
                  -5413090.950 6  -4217990.324 6  20048577.573    20048580.882
        17.250          19.500
                  -7050534.045 5  -3922141.969 5  22813038.019    22813043.304
        10.500          10.250
                   -559555.084 3   -436016.696 5  23747430.112    23747435.171
         5.750           7.000
                   -788090.805 2   -610883.152 5  23818538.081    23818545.374
         4.750           6.750
                  -5506156.020 5  -4290511.117 5  22866610.042    22866614.878
         9.000          10.750
                   3915552.254 6   3051076.119 6  21269451.534    21269456.050
        13.250          17.000
 95  4 21 20 11 44.9990000  0  7G 2G 7G12G15G 4G26G27
                  -1489501.253 6  -1160650.264 6  21009682.245    21009686.105
        19.250          21.500
                  -5425108.973 6  -4227355.013 6  20046290.409    20046293.714
        17.250          19.500
                  -7098230.822 5  -3959308.262 5  22803961.519    22803967.124
        10.500          10.750
                   -547750.351 3   -426818.201 5  23749674.870    23749681.116
         5.500           6.750
                   -849999.970 2   -659123.965 5  23806757.331    23806764.202
         4.750           6.250
                  -5517453.052 5  -4299314.013 5  22864460.440    22864465.194
         9.000          11.000
                   3944208.241 6   3073405.438 6  21274904.597    21274909.065
        13.250          17.250
 95  4 21 20 11 59.9990000  0  7G 2G 7G12G15G 4G26G27
                  -1493137.178 6  -1163483.455 6  21008990.573    21008993.855
        19.500          21.250
                  -5437017.322 6  -4236634.243 6  20044024.175    20044027.569
        17.250          19.250
                  -7145917.901 5  -3996466.995 5  22794886.995    22794892.956
        10.500          11.000
                   -535817.960 3   -417520.209 5  23751946.331    23751951.925
         5.750           6.750
                   -911907.790 2   -707363.735 5  23794976.870    23794983.526
         4.750           6.250
                  -5528618.380 5  -4308014.270 5  22862335.933    22862340.526
         9.000          10.750
                   3972967.114 6   3095814.925 6  21280377.284    21280381.800
        13.000          17.250
 95  4 21 20 12 14.9990000  0  7G 2G 7G12G15G 4G26G27
                  -1496732.134 6  -1166284.719 6  21008306.206    21008309.847
        19.500          21.500
                  -5448819.533 6  -4245830.769 6  20041778.534    20041781.804
        17.250          19.250
                  -7193594.849 5  -4033617.846 5  22785814.183    22785820.065
        10.250          11.000
                   -523757.602 3   -408122.527 5  23754241.292    23754247.183
         5.750           7.000
                   -973813.262 3   -755601.668 5  23783196.542    23783203.331
         5.000           6.250
                  -5539655.635 5  -4316614.736 5  22860235.698    22860240.315
         9.250          10.750
                   4001828.679 6   3118304.430 6  21285869.683    21285874.030
        13.250          17.250
 95  4 21 20 12 29.9990000  0  7G 2G 7G12G15G 4G26G27
                  -1500288.864 6  -1169056.198 6  21007629.440    21007633.440
        19.250          21.750
                  -5460515.744 6  -4254944.692 6  20039552.823    20039555.976
        17.250          19.000
                  -7241261.103 5  -4070760.355 5  22776743.448    22776749.370
        10.250          10.750
                   -511569.267 3   -398625.112 5  23756561.089    23756565.675
         5.750           6.500
                  -1035718.372 3   -803839.324 5  23771415.620    23771422.312
         5.000           6.000
                  -5550565.281 5  -4325115.764 5  22858159.589    22858164.269
         9.250          10.750
                   4030791.654 6   3140872.963 6  21291381.378    21291385.503
        13.250          17.250
 95  4 21 20 12 44.9990000  0  7G 2G 7G12G15G 4G26G27
                  -1503806.499 6  -1171797.218 6  21006959.870    21006963.784
        19.000          21.750
                  -5472105.216 6  -4263975.446 6  20037347.464    20037350.585
        17.500          19.000
                  -7288914.774 5  -4107893.060 5  22767675.347    22767680.831
        10.250          10.500
                   -499251.333 3   -389026.717 5  23758904.683    23758909.335
         5.750           6.250
                  -1097619.214 3   -852073.662 5  23759636.698    23759643.183
         5.250           6.250
                  -5561344.903 5  -4333515.475 5  22856108.503    22856112.851
         9.250          10.750
                   4059857.673 6   3163521.782 6  21296912.011    21296916.601
        13.000          17.250
 95  4 21 20 12 59.9990000  0  7G 2G 7G12G15G 4G26G27
                  -1507289.535 6  -1174511.273 6  21006296.972    21006300.800
        19.000          21.250
                  -5483591.825 6  -4272926.050 6  20035161.644    20035164.917
        17.500          19.250
                  -7336557.445 5  -4145017.198 5  22758609.292    22758614.866
        10.250          10.750
                   -486805.691 3   -379328.826 5  23761273.042    23761279.276
         5.750           6.750
                  -1159514.164 3   -900303.410 5  23747859.026    23747864.847
         5.250           6.000
                  -5571999.227 5  -4341817.556 5  22854081.167    22854085.288
         9.250          10.750
                   4089024.144 6   3186248.873 6  21302462.378    21302466.569
        12.750          17.000
 95  4 21 20 13 14.9990000  0  7G 2G 7G12G15G 4G26G27
                  -1510739.768 6  -1177199.770 6  21005640.558    21005644.433
        18.750          21.250
                  -5494977.413 6  -4281797.928 6  20032995.026    20032998.206
        17.500          19.250
                  -7384189.611 5  -4182133.145 5  22749545.230    22749550.886
        10.500          11.000
                   -474233.263 3   -369532.137 5  23763665.878    23763671.702
         6.000           6.750
                  -1221404.471 3   -948529.528 5  23736081.636    23736088.026
         5.250           6.250
                  -5582533.362 5  -4350025.978 5  22852076.300    22852080.671
         9.250          10.750
                   4118290.852 6   3209054.072 6  21308031.659    21308035.726
        13.000          16.500
 95  4 21 20 13 29.9990000  0  7G 2G 7G12G15G 4G26G27
                  -1514155.131 6  -1179861.094 6  21004990.730    21004994.440
        18.500          21.250
                  -5506261.330 6  -4290590.589 6  20030847.745    20030850.886
        17.500          19.250
                  -7431810.148 5  -4219240.034 5  22740483.308    22740488.933
        10.750          11.000
                   -461533.157 4   -359635.942 5  23766083.019    23766087.780
         6.250           6.500
                  -1283290.048 3   -996751.980 5  23724304.269    23724311.300
         5.250           6.000
                  -5592948.064 5  -4358141.339 5  22850094.675    22850098.788
         9.250          10.750
                   4147658.189 6   3231937.685 6  21313620.339    21313623.784
        13.250          16.250
 95  4 21 20 13 44.9990000  0  7G 2G 7G12G15G 4G26G27
                  -1517538.152 6  -1182497.218 6  21004346.542    21004350.499
        18.250          21.250
                  -5517445.983 6  -4299305.899 6  20028719.409    20028722.491
        17.500          19.000
                  -7479420.709 5  -4256339.151 5  22731423.183    22731428.937
        10.500          11.000
                   -448707.488 4   -349641.918 5  23768523.573    23768528.394
         6.250           6.250
                  -1345171.689 3  -1044971.367 5  23712528.401    23712534.601
         5.250           5.500
                  -5603245.705 5  -4366165.480 5  22848135.011    22848139.167
         9.250          10.750
                   4177123.407 6   3254897.573 6  21319227.472    21319230.886
        13.250          16.000
 95  4 21 20 13 59.9990000  0  7G 2G 7G12G15G 4G26G27
                  -1520894.297 6  -1185112.399 6  21003708.065    21003712.019
        18.250          21.250
                  -5528535.643 6  -4307947.187 6  20026609.019    20026612.202
        17.250          19.000
                  -7527025.435 5  -4293433.722 5  22722364.222    22722369.987
        10.250          11.000
                   -435760.810 4   -339553.607 5  23770987.370    23770992.175
         6.250           5.750
                  -1407052.875 3  -1093190.414 5  23700753.331    23700759.308
         6.000           5.750
                  -5613433.226 5  -4374103.806 5  22846196.448    22846200.522
         9.250          10.750
                   4206681.676 6   3277929.968 6  21324852.300    21324856.042
        13.500          16.250
 95  4 21 20 14 14.9990000  0  7G 2G 7G12G15G 4G26G27
                  -1524219.731 6  -1187703.651 6  21003075.245    21003079.163
        18.250          21.250
                  -5539523.105 6  -4316508.846 6  20024518.245    20024521.499
        17.250          19.250
                  -7574619.490 5  -4330519.980 5  22713307.323    22713313.151
        10.250          11.000
                   -422688.484 4   -329367.375 5  23773474.597    23773478.253
         6.250           5.500
                  -1468930.570 4  -1141406.735 5  23688978.394    23688983.390
         6.250           5.500
                  -5623506.718 5  -4381953.288 5  22844279.667    22844283.800
         9.250          10.750
                   4236333.801 6   3301035.498 6  21330495.292    21330498.730
        14.000          16.250
 95  4 21 20 14 29.9990000  0  7G 2G 7G12G15G 4G26G27
                  -1527516.995 6  -1190272.951 6  21002447.940    21002451.780
        18.500          21.250
                  -5550404.360 6  -4324987.738 6  20022447.565    20022450.870
        17.250          19.250
                  -7622202.431 5  -4367597.570 5  22704252.706    22704258.397
        10.250          11.000
                   -409490.523 3   -319083.264 5  23775985.698    23775989.409
         5.500           5.250
                  -1530806.579 4  -1189621.742 5  23677203.503    23677209.522
         6.250           5.750
                  -5633462.017 5  -4389710.673 5  22842385.097    22842389.413
         9.250          10.750
                   4266076.994 6   3324211.998 6  21336154.909    21336158.690
        13.750          16.000
 95  4 21 20 14 44.9990000  0  7G 2G 7G12G15G 4G26G27
                  -1530784.687 6  -1192819.206 6  21001826.050    21001830.046
        18.500          21.500
                  -5561176.253 6  -4333381.416 6  20020397.847    20020401.136
        17.250          19.250
                  -7669771.986 5  -4404664.736 5  22695200.769    22695206.226
        10.750          11.000
                   -396165.049 3   -308699.774 5  23778520.628    23778526.483
         5.250           6.000
                  -1592678.711 4  -1237833.744 5  23665429.753    23665436.323
         6.250           6.000
                  -5643295.841 5  -4397373.395 5  22840513.862    22840518.315
         9.250          10.750
                   4295913.455 6   3347461.169 6  21341832.323    21341836.257
        13.500          15.500
 95  4 21 20 14 59.9990000  0  7G 2G 7G12G15G 4G26G27
                  -1534022.986 6  -1195342.557 6  21001209.815    21001213.894
        18.250          21.500
                  -5571837.454 6  -4341688.840 6  20018369.011    20018372.355
        17.000          19.250
                  -7717328.615 5  -4441721.822 5  22686151.097    22686156.440
        11.000          11.250
                   -382712.746 4   -298217.439 5  23781082.394    23781088.253
         6.250           6.750
                  -1654548.279 4  -1286043.727 5  23653656.565    23653662.843
         6.250           6.000
                  -5653010.078 5  -4404942.936 5  22838665.292    22838669.683
         9.250          10.750
                   4325843.533 6   3370783.297 6  21347527.847    21347531.636
        13.250          15.500
 95  4 21 20 15 14.9990000  0  7G 2G 7G12G15G 4G26G27
                  -1537230.659 6  -1197842.048 6  21000599.612    21000603.565
        18.500          21.500
                  -5582388.526 6  -4349910.449 6  20016361.151    20016364.499
        17.000          19.000
                  -7764872.725 5  -4478769.153 5  22677103.628    22677109.065
        11.000          11.250
                   -369134.463 4   -287636.963 5  23783666.230    23783670.796
         6.500           6.250
                  -1716418.430 4  -1334254.186 5  23641882.972    23641889.679
         6.250           6.250
                  -5662603.725 5  -4412418.517 5  22836839.776    22836844.171
         9.250          11.000
                   4355866.519 6   3394177.812 6  21353241.073    21353245.085
        13.250          15.750
 95  4 21 20 15 29.9990000  0  7G 2G 7G12G15G 4G26G27
                  -1540401.285 6  -1200312.670 6  20999996.245    21000000.194
        18.250          21.500
                  -5592826.160 6  -4358043.667 6  20014375.058    20014378.245
        17.250          19.000
                  -7812401.349 5  -4515804.429 5  22668059.151    22668064.823
        10.750          11.250
                   -355427.656 3   -276956.337 5  23786273.050    23786277.659
         5.750           5.750
                  -1778287.224 3  -1382463.586 5  23630109.261    23630115.413
         6.000           6.000
                  -5672069.170 5  -4419794.196 5  22835038.597    22835043.112
         9.250          11.000
                   4385985.102 6   3417646.815 6  21358972.448    21358976.901
        13.250          16.000
 95  4 21 20 15 44.9990000  0  7G 2G 7G12G15G 4G26G27
                  -1543537.131 6  -1202756.190 6  20999399.440    20999402.929
        18.250          21.250
                  -5603152.283 6  -4366089.990 6  20012410.003    20012413.019
        17.250          19.000
                  -7859916.419 5  -4552829.138 5  22659016.987    22659022.983
        10.750          11.250
                   -341594.516 3   -266177.258 5  23788905.839    23788911.616
         5.750           5.750
                  -1840155.922 3  -1430672.904 5  23618335.855    23618341.933
         6.000           6.000
                  -5681407.026 5  -4427070.446 5  22833261.362    22833266.183
         9.250          11.250
                   4416195.825 6   3441187.620 6  21364721.417    21364725.823
        13.250          15.750
 95  4 21 20 15 59.9990000  0  7G 2G 7G12G15G 4G26G27
                  -1546639.259 6  -1205173.433 6  20998809.112    20998812.577
        18.250          21.000
                  -5613369.717 6  -4374051.622 6  20010465.589    20010468.718
        17.000          18.750
                  -7907418.637 5  -4589843.827 5  22649977.659    22649983.347
        10.500          11.000
                   -327636.217 3   -255300.651 5  23791562.440    23791568.362
         6.000           6.000
                  -1902024.517 3  -1478882.155 5  23606562.722    23606568.503
         6.000           6.000
                  -5690619.202 5  -4434248.772 5  22831508.581    22831512.964
         9.250          11.000
                   4446497.168 6   3464799.041 6  21370487.448    21370491.819
        13.250          15.500
 95  4 21 20 16 14.9990000  0  7G 2G 7G12G15G 4G26G27
                  -1549706.252 6  -1207563.304 6  20998225.753    20998229.327
        18.250          21.250
                  -5623480.348 6  -4381930.032 6  20008541.683    20008544.745
        17.250          19.000
                  -7954907.635 5  -4626848.222 5  22640940.823    22640946.343
        10.750          11.000
                   -313552.781 3   -244326.550 5  23794242.487    23794247.382
         6.000           6.000
                  -1963894.564 3  -1527092.530 5  23594789.058    23594795.429
         5.750           6.250
                  -5699706.825 5  -4441330.043 5  22829779.433    22829783.937
         9.250          11.000
                   4476891.055 6   3488482.569 6  21376270.980    21376275.507
        12.750          15.500
 95  4 21 20 16 29.9990000  0  7G 2G 7G12G15G 4G26G27
                  -1552736.042 6  -1209924.186 6  20997648.956    20997652.851
        18.500          21.250
                  -5633484.779 6  -4389725.685 6  20006637.776    20006640.933
        17.250          19.000
                  -8002382.096 5  -4663841.288 5  22631906.917    22631912.257
        10.750          10.750
                   -299343.089 4   -233254.053 5  23796946.409    23796951.105
         6.250           5.750
                  -2025763.923 3  -1575302.371 5  23583016.042    23583022.187
         6.000           6.500
                  -5708666.723 5  -4448311.791 5  22828074.425    22828079.085
         9.250          11.000
                   4507380.049 6   3512240.204 6  21382072.933    21382077.487
        12.500          15.750
 95  4 21 20 16 44.9990000  0  6G 2G 7G12G 4G26G27
                  -1555729.676 6  -1212256.893 6  20997079.323    20997083.015
        18.750          21.000
                  -5643385.593 6  -4397440.601 6  20004753.737    20004756.862
        17.250          19.000
                  -8049842.804 5  -4700823.638 5  22622875.659    22622880.687
        11.000          11.000
                  -2087632.105 3  -1623511.297 5  23571242.972    23571248.776
         5.750           6.500
                  -5717500.734 5  -4455195.451 5  22826393.151    22826397.894
         9.250          11.000
                   4537966.265 6   3536073.593 6  21387893.409    21387898.202
        12.500          16.250
 95  4 21 20 16 59.9990000  0  6G 2G 7G12G 4G26G27
                  -1558681.294 6  -1214556.856 6  20996517.808    20996521.343
        18.750          21.000
                  -5653181.670 6  -4405073.899 6  20002889.612    20002892.753
        17.000          19.000
                  -8097286.689 5  -4737792.885 5  22613847.222    22613852.241
        11.000          10.750
                  -2149494.537 3  -1671715.742 5  23559470.831    23559476.909
         5.750           6.750
                  -5726208.469 5  -4461980.702 5  22824736.214    22824740.671
         9.250          11.000
                   4568652.715 6   3559985.087 6  21393733.042    21393737.694
        12.750          16.500
 95  4 21 20 17 14.9990000  0  6G 2G 7G12G 4G26G27
                  -1561590.260 6  -1216823.582 6  20995964.237    20995968.026
        19.000          21.250
                  -5662876.707 6  -4412628.468 6  20001044.675    20001047.769
        17.000          19.000
                  -8144715.316 5  -4774750.237 5  22604821.597    22604827.046
        10.750          11.000
                  -2211351.729 3  -1719916.100 5  23547699.089    23547706.038
         5.250           7.000
                  -5734792.389 5  -4468669.476 5  22823102.651    22823107.214
         9.250          11.000
                   4599436.761 6   3583972.628 6  21399591.261    21399595.632
        13.000          16.250
 95  4 21 20 17 29.9990000  0  6G 2G 7G12G 4G26G27
                  -1564454.704 6  -1219055.622 6  20995419.073    20995423.050
        19.000          21.500
                  -5672473.716 6  -4420106.652 6  19999218.331    19999221.437
        17.000          19.000
                  -8192128.316 5  -4811695.406 5  22595799.206    22595804.960
        10.500          11.250
                  -2273201.644 3  -1768110.784 5  23535928.925    23535936.847
         5.000           7.000
                  -5743252.113 5  -4475261.482 5  22821492.769    22821497.163
         9.250          11.000
                   4630316.028 6   3608034.371 6  21405467.144    21405471.538
        12.500          16.250
 95  4 21 20 17 44.9990000  0  6G 2G 7G12G 4G26G27
                  -1567277.533 6  -1221255.233 6  20994881.776    20994885.542
        18.750          21.000
                  -5681972.946 6  -4427508.642 6  19997410.714    19997413.964
        17.000          19.000
                  -8239528.244 5  -4848630.389 5  22586779.284    22586785.034
        10.750          11.250
                  -2335045.448 3  -1816300.712 5  23524161.355    23524167.776
         5.250           7.000
                  -5751591.756 5  -4481759.910 5  22819906.089    22819910.233
         9.500          11.000
                   4661288.552 6   3632168.789 6  21411360.980    21411365.257
        12.750          15.750
 95  4 21 20 17 59.9990000  0  6G 2G 7G12G 4G26G27
                  -1570058.655 6  -1223422.343 6  20994352.776    20994356.198
        19.000          20.750
                  -5691370.436 6  -4434831.354 6  19995622.480    19995625.964
        16.750          19.250
                  -8286912.218 5  -4885552.942 5  22577762.448    22577768.030
        10.750          11.500
                  -2396881.093 3  -1864484.295 5  23512394.386    23512400.522
         5.500           6.750
                  -5759811.598 5  -4488164.989 5  22818342.081    22818345.944
         9.500          10.750
                   4692358.769 6   3656379.337 6  21417274.026    21417277.995
        13.000          16.000
 95  4 21 20 18 14.9990000  0  6G 2G 7G12G 4G26G27
                  -1572798.186 6  -1225557.044 6  20993831.315    20993834.905
        18.750          21.000
                  -5700665.261 6  -4442074.071 6  19993853.722    19993857.159
        16.750          19.000
                  -8334280.906 5  -4922463.593 5  22568748.605    22568754.101
        11.000          11.500
                  -2458709.459 3  -1912662.182 5  23500629.269    23500634.905
         5.750           6.750
                  -5767912.134 5  -4494477.102 5  22816800.565    22816804.542
         9.750          10.750
                   4723525.440 6   3680665.039 6  21423204.823    21423208.827
        13.250          16.250
 95  4 21 20 18 29.9990000  0  6G 2G 7G12G 4G26G27
                  -1575497.287 6  -1227660.242 6  20993317.761    20993321.476
        19.000          21.000
                  -5709855.230 6  -4449235.079 6  19992104.847    19992108.222
        16.750          19.250
                  -8381634.716 5  -4959362.650 5  22559737.464    22559742.690
        11.000          11.250
                  -2520531.265 3  -1960834.983 5  23488865.042    23488871.038
         6.000           7.000
                  -5775892.498 5  -4500695.577 5  22815281.901    22815286.054
         9.750          10.500
                   4754786.663 6   3705024.412 6  21429153.222    21429157.585
        13.000          16.500
 95  4 21 20 18 44.9990000  0  6G 2G 7G12G 4G26G27
                  -1578155.232 6  -1229731.373 6  20992811.980    20992815.573
        18.750          21.000
                  -5718936.300 6  -4456311.234 6  19990376.878    19990380.272
        16.500          19.250
                  -8428972.216 5  -4996248.989 5  22550729.276    22550734.659
        11.000          11.250
                  -2582342.372 3  -2008999.448 5  23477102.815    23477108.909
         6.000           7.000
                  -5783750.130 5  -4506818.403 5  22813786.667    22813790.605
         9.500          10.500
                   4786138.897 6   3729454.701 6  21435119.480    21435123.780
        13.000          16.500
 95  4 21 20 18 59.9990000  0  6G 2G 7G12G 4G26G27
                  -1580772.477 6  -1231770.786 6  20992313.800    20992317.401
        19.000          20.750
                  -5727909.629 6  -4463303.432 6  19988669.175    19988672.612
        16.750          19.250
                  -8476293.720 5  -5033122.860 5  22541724.339    22541729.550
        11.000          11.000
                  -2644143.415 4  -2057156.066 5  23465341.933    23465348.843
         6.250           7.500
                  -5791486.505 5  -4512846.752 5  22812314.597    22812318.417
         9.500          10.250
                   4817579.632 6   3753953.948 6  21441102.800    21441106.823
        13.250          16.250
 95  4 21 20 19 14.9990000  0  6G 2G 7G12G 4G26G27
                  -1583348.611 6  -1233778.166 6  20991823.894    20991827.347
        19.250          20.750
                  -5736773.135 6  -4470210.053 6  19986982.495    19986985.874
        16.750          19.250
                  -8523598.799 5  -5069983.942 5  22532722.269    22532727.593
        10.750          11.000
                  -2705933.125 4  -2105303.849 5  23453583.659    23453590.585
         6.250           7.500
                  -5799102.084 5  -4518780.974 5  22810865.206    22810869.472
         9.500          10.500
                   4849108.458 6   3778521.838 6  21447102.206    21447106.405
        13.000          15.750
 95  4 21 20 19 29.9990000  0  6G 2G 7G12G 4G26G27
                  -1585884.872 6  -1235754.475 6  20991341.167    20991344.823
        19.250          21.000
                  -5745526.927 6  -4477031.185 6  19985316.706    19985320.007
        17.000          19.250
                  -8570888.554 5  -5106833.078 5  22523723.542    22523728.761
        11.000          11.250
                  -2767714.193 4  -2153444.907 5  23441826.980    23441833.495
         6.250           7.500
                  -5806597.230 5  -4524621.358 5  22809438.878    22809443.362
         9.250          10.500
                   4880725.598 6   3803158.547 6  21453118.800    21453122.999
        13.000          15.500
 95  4 21 20 19 44.9990000  0  6G 2G 7G12G 4G26G27
                  -1588383.395 6  -1237701.384 6  20990865.722    20990869.456
        19.250          21.000
                  -5754167.507 6  -4483764.098 6  19983672.495    19983675.749
        17.000          19.250
                  -8618161.844 5  -5143669.384 5  22514727.495    22514733.167
        11.000          11.750
                  -2829486.730 4  -2201579.309 5  23430072.222    23430078.261
         6.750           7.750
                  -5813971.870 5  -4530367.829 5  22808035.401    22808039.827
         9.250          10.500
                   4912432.697 6   3827865.356 6  21459152.386    21459156.620
        13.000          15.250
 95  4 21 20 19 59.9990000  0  6G 2G 7G12G 4G26G27
                  -1590847.450 6  -1239621.431 6  20990397.034    20990400.480
        19.250          21.000
                  -5762694.684 6  -4490408.645 6  19982049.823    19982053.089
        17.000          19.250
                  -8665418.000 5  -5180492.337 5  22505734.995    22505740.741
        11.000          11.750
                  -2891249.942 4  -2249706.443 5  23418318.745    23418325.085
         6.750           7.750
                  -5821227.604 5  -4536021.657 5  22806654.784    22806659.046
         9.250          10.250
                   4944232.694 6   3852644.554 6  21465204.026    21465207.987
        13.000          15.000
 95  4 21 20 20 14.9990000  0  6G 2G 7G12G 4G26G27
                  -1593278.405 6  -1241515.686 6  20989934.339    20989937.851
        19.000          21.000
                  -5771112.975 6  -4496968.346 6  19980448.011    19980451.288
        17.000          19.500
                  -8712657.479 5  -5217302.306 5  22496745.948    22496751.140
        11.500          11.750
                  -2953003.566 4  -2297826.106 5  23406567.526    23406573.730
         6.750           7.750
                  -5828366.077 5  -4541584.111 5  22805296.722    22805300.515
         9.500          10.250
                   4976121.578 6   3877493.008 6  21471272.159    21471276.296
        12.750          15.000
 95  4 21 20 20 29.9990000  0  6G 2G 7G12G 4G26G27
                  -1595673.810 6  -1243382.239 6  20989478.144    20989481.937
        19.000          21.000
                  -5779426.229 6  -4503446.202 6  19978866.073    19978869.444
        17.000          19.500
                  -8759879.729 5  -5254098.845 5  22487759.495    22487764.987
        11.500          11.750
                  -3014746.161 4  -2345937.183 5  23394818.620    23394824.284
         6.750           7.500
                  -5835386.913 5  -4547054.903 5  22803960.534    22803964.480
         9.500          10.250
                   5008096.701 6   3902408.665 6  21477356.776    21477360.847
        12.750          14.750
 95  4 21 20 20 44.9990000  0  6G 2G 7G12G 4G26G27
                  -1598032.171 6  -1245219.933 6  20989029.675    20989033.105
        19.000          21.000
                  -5787634.975 6  -4509842.624 6  19977303.862    19977307.261
        16.750          19.500
                  -8807083.542 5  -5290881.018 5  22478776.956    22478782.425
        11.500          11.750
                  -3076475.036 4  -2394037.576 5  23383071.956    23383077.925
         6.750           7.750
                  -5842289.988 5  -4552433.934 5  22802646.980    22802651.159
         9.500          10.500
                   5040160.101 6   3927393.117 6  21483458.198    21483462.179
        12.250          14.250
 95  4 21 20 20 59.9990000  0  6G 2G 7G12G 4G26G27
                  -1600354.170 6  -1247029.288 6  20988587.565    20988591.343
        18.750          20.750
                  -5795744.479 6  -4516161.713 6  19975760.745    19975764.269
        17.000          19.750
                  -8854269.629 5  -5327649.378 5  22469798.026    22469803.030
        11.750          11.750
                  -3138191.485 3  -2442128.273 5  23371327.128    23371334.034
         6.000           7.750
                  -5849077.378 5  -4557722.819 5  22801355.440    22801359.706
         9.750          10.500
                   5072313.114 6   3952447.389 6  21489576.737    21489580.827
        12.000          14.250
 95  4 21 20 21 14.9990000  0  6G 2G 7G12G 4G26G27
                  -1602637.894 6  -1248808.818 6  20988153.323    20988156.925
        18.750          21.000
                  -5803754.210 6  -4522403.059 6  19974236.487    19974239.995
        16.750          19.750
                  -8901437.431 5  -5364403.483 6  22460822.081    22460827.440
        11.500          12.250
                  -3199898.096 3  -2490211.306 5  23359584.925    23359591.202
         6.000           7.750
                  -5855749.907 5  -4562922.201 5  22800085.745    22800089.874
         9.750          10.500
                   5104560.387 5   3977575.116 6  21495713.089    21495717.401
        11.750          14.500
 95  4 21 20 21 29.9990000  0  6G 2G 7G12G 4G26G27
                  -1604882.200 6  -1250557.632 6  20987725.948    20987729.870
        18.750          21.000
                  -5811663.607 6  -4528566.222 6  19972731.487    19972734.812
        17.000          19.750
                  -8948587.043 5  -5401143.414 6  22451849.831    22451855.065
        11.500          12.250
                  -3261595.995 4  -2538287.543 5  23347844.456    23347850.601
         6.250           7.750
                  -5862306.636 5  -4568031.348 5  22798838.003    22798841.944
         9.750          10.500
                   5136901.482 5   4002775.955 6  21501867.237    21501871.624
        11.750          14.500
 95  4 21 20 21 44.9990000  0  6G 2G 7G12G 4G26G27
                  -1607088.506 6  -1252276.841 6  20987306.073    20987310.030
        18.750          21.000
                  -5819477.154 6  -4534654.696 6  19971244.503    19971247.862
        17.000          19.500
                  -8995718.824 5  -5437869.459 6  22442880.940    22442886.093
        11.500          12.000
                  -3323286.552 3  -2586358.058 5  23336104.847    23336110.995
         6.000           7.500
                  -5868747.804 5  -4573050.450 5  22797612.245    22797616.062
         9.750          10.500
                   5169335.169 5   4028048.937 6  21508039.175    21508044.112
        11.750          15.000
 95  4 21 20 21 59.9990000  0  6G 2G 7G12G 4G26G27
                  -1609256.629 6  -1253966.291 6  20986893.628    20986897.272
        19.000          20.500
                  -5827195.908 6  -4540669.309 6  19969775.862    19969779.319
        17.000          19.750
                  -9042833.138 5  -5474581.884 6  22433915.269    22433920.608
        11.500          12.250
                  -3384966.504 3  -2634420.312 5  23324367.550    23324373.300
         6.000           7.000
                  -5875072.753 5  -4577978.989 5  22796408.284    22796412.491
         9.500          10.750
                   5201859.464 6   4053392.521 6  21514228.620    21514233.210
        12.000          14.750
 95  4 21 20 22 14.9990000  0  6G 2G 7G12G 4G26G27
                  -1611383.256 6  -1255623.405 6  20986489.206    20986492.675
        19.000          20.750
                  -5834819.053 6  -4546609.421 6  19968325.269    19968328.448
        17.000          20.000
                  -9089928.743 5  -5511279.736 6  22424953.269    22424958.839
        11.500          12.250
                  -3446634.318 3  -2682473.114 5  23312632.761    23312637.987
         6.000           7.000
                  -5881277.277 5  -4582813.689 5  22795227.644    22795232.194
         9.250          10.750
                   5234473.302 6   4078805.876 6  21520434.917    21520439.007
        12.250          14.500
 95  4 21 20 22 29.9990000  0  6G 2G 7G12G 4G26G27
                  -1613464.847 6  -1257245.431 6  20986092.683    20986096.730
        18.750          21.000
                  -5842344.189 6  -4552473.162 6  19966893.308    19966896.565
        17.250          20.250
                  -9137004.373 5  -5547962.024 6  22415995.073    22416000.483
        11.750          12.500
                  -3508289.825 3  -2730516.320 5  23300899.558    23300905.366
         6.000           7.000
                  -5887359.587 5  -4587553.167 5  22794070.284    22794074.601
         9.250          10.750
                   5267177.214 6   4104289.415 6  21526658.011    21526662.280
        12.000          14.250
 95  4 21 20 22 44.9990000  0  6G 2G 7G12G 4G26G27
                  -1615503.548 6  -1258834.037 6  20985704.800    20985708.698
        19.000          21.000
                  -5849765.752 6  -4558256.196 6  19965481.042    19965484.370
        17.250          20.000
                  -9184059.897 5  -5584628.645 6  22407040.862    22407046.089
        11.750          12.500
                  -3569932.259 3  -2778549.335 5  23289168.823    23289175.499
         5.750           7.000
                  -5893318.506 5  -4592196.488 5  22792936.347    22792940.878
         9.250          10.750
                   5299975.946 6   4129846.846 6  21532899.417    21532903.593
        12.000          14.250
 95  4 21 20 22 59.9990000  0  6G 2G 7G12G 4G26G27
                  -1617502.855 6  -1260391.943 6  20985324.565    20985328.112
        19.000          20.750
                  -5857079.784 6  -4563955.437 6  19964089.136    19964092.491
        17.000          19.750
                  -9231094.914 5  -5621279.289 6  22398090.284    22398095.522
        11.750          12.500
                  -3631560.824 3  -2826571.548 5  23277441.839    23277447.937
         5.750           7.000
                  -5899153.141 5  -4596742.969 5  22791826.237    22791830.815
         9.250          11.000
                   5332871.789 6   4155479.960 6  21539159.667    21539163.597
        12.500          14.500
 95  4 21 20 23 14.9990000  0  6G 2G 7G12G 4G26G27
                  -1619464.565 6  -1261920.553 6  20984951.034    20984954.655
        18.750          20.500
                  -5864283.559 6  -4569568.771 6  19962718.167    19962721.476
        17.000          19.750
                  -9278109.098 5  -5657913.698 6  22389143.581    22389149.065
        11.500          12.500
                  -3693176.004 4  -2874583.320 5  23265717.456    23265723.577
         6.250           7.250
                  -5904863.426 5  -4601192.549 5  22790739.550    22790744.015
         9.250          10.750
                   5365865.386 6   4181189.229 6  21545438.573    21545442.440
        13.000          14.750
 95  4 21 20 23 29.9990000  0  6G 2G 7G12G 4G26G27
                  -1621387.081 6  -1263418.625 6  20984585.315    20984589.128
        18.750          21.000
                  -5871374.422 6  -4575094.115 6  19961368.972    19961372.132
        17.000          19.500
                  -9325101.052 5  -5694530.785 6  22380201.315    22380206.980
        11.500          13.000
                  -3754772.721 3  -2922580.699 5  23253995.800    23254002.105
         6.000           7.000
                  -5910447.417 5  -4605543.725 5  22789676.901    22789681.175
         9.250          10.750
                   5398955.965 6   4206974.074 6  21551735.378    21551739.401
        13.000          15.000
 95  4 21 20 23 44.9990000  0  6G 2G 7G12G 4G26G27
                  -1623272.878 6  -1264888.086 6  20984226.519    20984230.245
        18.750          21.000
                  -5878354.950 6  -4580533.483 6  19960040.628    19960043.647
        17.000          19.500
                  -9372070.488 6  -5731130.322 6  22371263.448    22371269.042
        12.000          13.000
                  -3816347.096 3  -2970560.681 5  23242278.269    23242284.405
         6.000           6.750
                  -5915905.211 5  -4609796.564 5  22788638.136    22788642.647
         9.250          10.750
                   5432140.869 6   4232832.408 6  21558050.034    21558054.460
        12.750          15.000
 95  4 21 20 23 59.9990000  0  6G 2G 7G12G 4G26G27
                  -1625123.988 6  -1266330.517 6  20983874.214    20983877.733
        18.750          20.500
                  -5885224.068 6  -4585886.041 6  19958733.472    19958736.546
        17.000          19.500
                  -9419016.440 6  -5767711.564 6  22362329.995    22362335.378
        12.000          13.000
                  -3877895.114 4  -3018520.122 5  23230566.245    23230572.003
         6.250           6.750
                  -5921236.784 5  -4613951.044 5  22787623.925    22787627.753
         9.250          10.500
                   5465420.676 6   4258764.693 6  21564382.972    21564387.077
        12.500          14.750
 95  4 21 20 24 14.9990000  0  6G 2G 7G12G 4G26G27
                  -1626939.645 6  -1267745.317 6  20983528.589    20983532.210
        18.750          20.500
                  -5891979.111 6  -4591149.708 6  19957448.136    19957451.132
        17.250          19.500
                  -9465938.798 6  -5804274.416 6  22353400.847    22353406.147
        12.000          12.750
                  -3939416.577 4  -3066458.872 5  23218859.347    23218864.937
         6.500           6.750
                  -5926442.542 5  -4618007.481 5  22786633.308    22786637.147
         9.250          10.500
                   5498793.419 6   4284769.408 6  21570733.394    21570737.925
        12.250          14.750
 95  4 21 20 24 29.9990000  0  6G 2G 7G12G 4G26G27
                  -1628722.142 6  -1269134.282 6  20983189.370    20983193.198
        18.750          20.500
                  -5898622.401 6  -4596326.293 6  19956184.058    19956186.995
        17.250          19.750
                  -9512837.586 6  -5840818.910 6  22344476.495    22344481.628
        12.250          12.750
                  -4000913.671 4  -3114378.630 5  23207156.339    23207162.327
         6.750           6.750
                  -5931523.721 5  -4621966.851 5  22785666.355    22785670.433
         9.250          10.500
                   5532260.329 6   4310847.490 6  21577102.175    21577106.687
        12.000          15.000
 95  4 21 20 24 44.9990000  0  6G 2G 7G12G 4G26G27
                  -1630471.978 6  -1270497.797 6  20982856.667    20982860.253
        18.750          20.250
                  -5905151.925 6  -4601414.229 6  19954941.565    19954944.683
        17.250          20.000
                  -9559712.372 6  -5877344.699 6  22335556.511    22335561.780
        12.250          13.000
                  -4062385.500 4  -3162278.697 5  23195458.315    23195464.284
         6.750           6.750
                  -5936480.290 5  -4625829.124 5  22784723.222    22784727.397
         9.250          10.750
                   5565821.870 6   4336999.311 6  21583488.862    21583493.386
        12.000          15.000
 95  4 21 20 24 59.9990000  0  6G 2G 7G12G 4G26G27
                  -1632188.649 6  -1271835.466 6  20982530.237    20982533.647
        19.000          20.250
                  -5911572.011 6  -4606416.891 6  19953719.675    19953722.847
        17.250          20.000
                  -9606563.853 6  -5913852.323 6  22326640.808    22326646.323
        12.000          13.000
                  -4123832.591 4  -3210159.502 5  23183765.511    23183771.464
         7.000           6.750
                  -5941312.776 5  -4629594.705 5  22783803.433    22783807.644
         9.000          10.750
                   5599474.505 6   4363222.117 6  21589892.855    21589897.417
        12.250          14.750
 95  4 21 20 25 14.9990000  0  6G 2G 7G12G 4G26G27
                  -1633866.330 6  -1273142.754 6  20982210.573    20982214.120
        19.000          19.750
                  -5917886.379 6  -4611337.178 6  19952517.870    19952520.937
        17.250          19.750
                  -9653390.796 6  -5950340.834 6  22317729.901    22317735.128
        12.000          12.500
                  -4185257.327 4  -3258022.881 5  23172076.769    23172082.827
         6.750           7.250
                  -5946020.904 5  -4633263.384 5  22782907.339    22782911.862
         9.000          10.750
                   5633214.591 6   4389513.074 6  21596313.526    21596317.741
        12.250          14.250
 95  4 21 20 25 29.9990000  0  6G 2G 7G12G 4G26G27
                  -1635500.207 6  -1274415.909 6  20981899.597    20981903.206
        19.000          19.500
                  -5924098.531 6  -4616177.815 6  19951336.011    19951339.124
        17.250          20.000
                  -9700193.049 6  -5986810.107 6  22308823.542    22308829.011
        12.250          12.750
                  -4246660.429 4  -3305869.388 5  23160392.425    23160398.187
         7.000           7.500
                  -5950604.234 5  -4636834.821 5  22782035.128    22782039.522
         9.000          10.750
                   5667038.548 6   4415869.382 6  21602749.995    21602754.003
        12.250          14.250
 95  4 21 20 25 44.9990000  0  6G 2G 7G12G 4G26G27
                  -1637087.957 6  -1275653.115 6  20981597.940    20981601.101
        19.250          19.750
                  -5930210.223 6  -4620940.172 6  19950172.987    19950176.065
        17.000          20.000
                  -9746970.774 6  -6023260.268 6  22299922.253    22299927.765
        12.250          13.000
                  -4308045.012 4  -3353701.462 5  23148711.159    23148717.026
         6.750           7.750
                  -5955065.132 5  -4640310.852 5  22781186.558    22781190.694
         9.000          10.750
                   5700943.349 5   4442288.683 6  21609201.495    21609205.999
        11.750          14.250
 95  4 21 20 25 59.9990000  0  6G 2G 7G12G 4G26G27
                  -1638629.173 6  -1276854.068 6  20981304.519    20981308.046
        19.250          19.750
                  -5936219.179 6  -4625622.472 6  19949029.464    19949032.644
        17.000          19.750
                  -9793722.904 6  -6059690.475 6  22291025.339    22291030.948
        12.250          12.500
                  -4369412.309 4  -3401520.082 5  23137033.167    23137039.292
         6.750           7.750
                  -5959404.062 5  -4643691.847 5  22780361.042    22780365.124
         9.250          10.750
                   5734930.760 5   4468772.353 6  21615669.089    21615673.589
        11.750          14.500
 95  4 21 20 26 14.9990000  0  6G 2G 7G12G 4G26G27
                  -1640120.162 6  -1278015.885 6  20981020.730    20981024.413
        19.250          19.750
                  -5942125.238 6  -4630224.596 6  19947905.558    19947908.937
        17.000          20.000
                  -9840448.999 6  -6096100.402 6  22282133.745    22282138.804
        12.250          12.500
                  -4430763.725 4  -3449326.315 5  23125358.175    23125364.710
         6.750           8.250
                  -5963620.173 5  -4646977.138 5  22779558.761    22779562.956
         9.250          10.750
                   5769000.841 5   4495320.440 6  21622152.198    21622156.800
        11.500          14.500
 95  4 21 20 26 29.9990000  0  6G 2G 7G12G 4G26G27
                  -1641557.717 6  -1279136.062 6  20980746.706    20980750.335
        19.000          19.750
                  -5947928.487 6  -4634746.610 6  19946801.058    19946804.538
        17.000          19.750
                  -9887148.294 6  -6132489.450 6  22273247.190    22273252.284
        12.250          12.500
                  -4492099.562 4  -3497120.415 5  23113686.565    23113693.144
         6.750           8.500
                  -5967712.709 5  -4650166.138 5  22778779.917    22778784.476
         9.250          11.000
                   5803154.595 5   4521933.716 6  21628651.550    21628655.894
        11.500          14.250
 95  4 21 20 26 44.9990000  0  6G 2G 7G12G 4G26G27
                  -1642940.303 6  -1280213.407 6  20980483.987    20980487.210
        19.000          19.500
                  -5953628.805 6  -4639188.415 6  19945716.315    19945719.730
        17.000          19.750
                  -9933819.905 6  -6168856.920 6  22264365.737    22264371.116
        12.250          12.500
                  -4553418.735 4  -3544901.520 5  23102017.409    23102024.097
         6.250           8.500
                  -5971682.660 5  -4653259.616 5  22778024.558    22778029.069
         9.250          11.000
                   5837394.213 5   4548613.902 6  21635166.956    21635171.308
        11.250          14.000
 95  4 21 20 26 59.9990000  0  6G 2G 7G12G 4G26G27
                  -1644266.290 6  -1281246.646 6  20980231.698    20980234.901
        19.250          19.750
                  -5959228.247 6  -4643551.617 6  19944650.776    19944654.237
        16.750          19.750
                  -9980464.819 6  -6205203.584 6  22255489.698    22255494.964
        12.500          12.500
                  -4614719.562 4  -3592668.339 5  23090351.675    23090358.358
         6.250           8.500
                  -5975534.428 5  -4656261.004 5  22777291.362    22777296.155
         9.000          11.250
                   5871718.621 5   4575360.163 6  21641698.745    21641703.233
        11.250          13.750
 95  4 21 20 27 14.9990000  0  6G 2G 7G12G 4G26G27
                  -1645534.026 6  -1282234.497 6  20979990.144    20979993.815
        18.750          20.000
                  -5964727.691 6  -4647836.896 6  19943604.401    19943607.507
        17.000          19.500
                 -10027081.328 6  -6241528.116 6  22246618.792    22246624.335
        12.500          13.000
                  -4676000.253 4  -3640419.461 5  23078690.683    23078696.968
         6.500           8.500
                  -5979267.685 5  -4659170.051 5  22776581.034    22776585.694
         9.000          11.000
                   5906130.892 5   4602174.889 6  21648247.105    21648251.562
        11.500          13.750
 95  4 21 20 27 29.9990000  0  6G 2G 7G12G 4G26G27
                  -1646747.212 6  -1283179.845 6  20979759.386    20979763.206
        18.750          20.000
                  -5970125.174 6  -4652042.725 6  19942577.222    19942580.222
        17.000          19.500
                 -10073670.896 6  -6277831.655 6  22237752.972    22237758.550
        12.500          13.000
                  -4737259.207 4  -3688153.656 5  23067034.331    23067040.175
         6.750           9.000
                  -5982884.194 5  -4661988.123 5  22775892.776    22775897.448
         9.000          11.000
                   5940630.422 5   4629057.610 6  21654812.308    21654816.714
        11.500          13.500
 95  4 21 20 27 44.9990000  0  6G 2G 7G12G 4G26G27
                  -1647908.679 6  -1284084.892 6  20979538.706    20979542.179
        19.000          19.750
                  -5975416.974 6  -4656166.201 6  19941570.214    19941573.007
        17.000          19.250
                 -10120233.114 6  -6314113.888 6  22228892.636    22228897.819
        12.500          12.750
                  -4798492.595 4  -3735867.917 5  23055381.972    23055387.370
         6.750           9.000
                  -5986383.861 5  -4664715.148 5  22775226.870    22775231.323
         9.000          10.750
                   5975221.458 5   4656011.634 6  21661394.909    21661399.116
        11.750          13.500
 95  4 21 20 27 59.9990000  0  6G 2G 7G12G 4G26G27
                  -1649021.184 6  -1284951.781 6  20979326.831    20979330.304
        18.750          19.500
                  -5980601.771 6  -4660206.294 6  19940583.698    19940586.448
        17.000          19.250
                 -10166767.147 6  -6350374.156 6  22220037.394    22220042.749
        12.500          12.750
                  -4859695.940 4  -3783558.766 5  23043734.917    23043740.608
         6.500           9.000
                  -5989766.320 5  -4667350.839 5  22774583.198    22774587.487
         8.750          10.750
                   6009909.977 5   4683041.627 6  21667996.214    21668000.401
        11.750          13.500
 95  4 21 20 28 14.9990000  0  6G 2G 7G12G 4G26G27
                  -1650087.237 6  -1285782.478 6  20979123.784    20979127.472
        18.250          19.500
                  -5985680.757 6  -4664163.946 6  19939617.175    19939620.112
        17.000          19.500
                 -10213272.240 6  -6386611.869 6  22211187.940    22211193.241
        12.500          13.000
                  -4920864.362 4  -3831222.422 5  23032094.370    23032100.355
         6.500           8.500
                  -5993029.631 5  -4669893.689 5  22773962.401    22773966.675
         9.000          10.750
                   6044698.536 5   4710149.571 6  21674616.206    21674620.687
        11.750          13.500
 95  4 21 20 28 29.9990000  0  6G 2G 7G12G 4G26G27
                  -1651106.876 6  -1286577.008 6  20978929.995    20978933.409
        18.750          19.500
                  -5990655.337 6  -4668040.238 6  19938670.534    19938673.589
        17.000          19.500
                 -10259748.081 6  -6422826.788 6  22202343.855    22202349.011
        12.500          13.000
                  -4981998.213 4  -3878859.135 5  23020460.612    23020466.964
         6.750           8.500
                  -5996174.372 5  -4672344.145 5  22773364.089    22773368.171
         9.000          10.500
                   6079587.096 5   4737335.427 6  21681255.933    21681259.640
        11.750          13.500
 95  4 21 20 28 44.9990000  0  6G 2G 7G12G 4G26G27
                  -1652083.490 6  -1287338.007 6  20978744.167    20978747.499
        18.750          19.500
                  -5995526.822 6  -4671836.194 6  19937743.456    19937746.855
        16.750          19.750
                 -10306194.547 6  -6459018.824 6  22193505.065    22193510.440
        12.250          13.000
                  -5043098.134 4  -3926469.404 5  23008834.136    23008840.296
         6.750           8.750
                  -5999201.044 5  -4674702.603 5  22772787.972    22772792.261
         9.000          10.750
                   6114574.995 5   4764598.691 6  21687913.456    21687917.483
        11.500          13.500
 95  4 21 20 28 59.9990000  0  6G 2G 7G12G 4G26G27
                  -1653017.877 6  -1288066.105 6  20978566.105    20978569.839
        18.750          19.250
                  -6000297.388 6  -4675553.516 6  19936835.573    19936839.093
        16.750          20.000
                 -10352611.579 6  -6495187.913 6  22184672.261    22184677.616
        12.250          13.250
                  -5104164.457 4  -3974053.488 5  22997213.745    22997219.358
         6.750           8.500
                  -6002110.078 5  -4676969.397 5  22772234.378    22772238.753
         9.000          10.500
                   6149659.806 5   4791937.465 6  21694590.081    21694593.976
        11.500          13.500
 95  4 21 20 29 14.9990000  0  6G 2G 7G12G 4G26G27
                  -1653911.463 6  -1288762.414 6  20978395.987    20978399.780
        18.250          19.000
                  -6004965.793 6  -4679191.234 6  19935947.183    19935950.827
        16.500          20.250
                 -10398998.261 6  -6531333.357 6  22175845.175    22175850.542
        12.500          13.250
                  -5165196.717 4  -4021611.028 5  22985599.417    22985604.862
         6.500           8.250
                  -6004898.394 5  -4679142.124 5  22771703.909    22771707.999
         9.000          10.250
                   6184838.385 5   4819349.312 6  21701284.261    21701288.226
        11.750          13.250
 95  4 21 20 29 29.9990000  0  6G 2G 7G12G 4G26G27
                  -1654768.485 6  -1289430.223 6  20978233.144    20978236.550
        18.750          19.000
                  -6009531.876 6  -4682749.220 6  19935078.417    19935081.964
        16.500          20.250
                 -10445354.717 6  -6567455.251 6  22167023.980    22167029.124
        12.500          13.250
                  -5226196.817 4  -4069143.511 5  22973991.894    22973997.179
         6.750           8.250
                  -6007564.569 5  -4681219.669 5  22771196.667    22771200.538
         9.000          10.250
                   6220106.692 5   4846831.083 6  21707995.370    21707999.655
        11.750          13.250
 95  4 21 20 29 44.9990000  0  6G 2G 7G12G 4G26G27
                  -1655590.268 6  -1290070.576 6  20978076.870    20978080.456
        18.750          19.500
                  -6013997.635 6  -4686229.031 6  19934228.628    19934231.980
        16.750          20.250
                 -10491681.344 6  -6603553.900 6  22158208.237    22158213.366
        12.750          13.250
                  -5287164.387 4  -4116650.663 5  22962390.253    22962395.792
         7.000           8.000
                  -6010110.103 5  -4683203.218 5  22770712.105    22770716.062
         9.000          10.250
                   6255464.027 5   4874382.223 6  21714723.581    21714728.237
        11.750          13.500
 95  4 21 20 29 59.9990000  0  6G 2G 7G12G 4G26G27
                  -1656379.199 6  -1290685.332 6  20977926.448    20977930.542
        18.500          20.000
                  -6018368.653 6  -4689635.019 6  19933397.019    19933400.124
        17.000          19.750
                 -10537979.430 6  -6639630.312 6  22149397.980    22149403.233
        13.000          13.250
                  -5348099.795 4  -4164132.753 5  22950794.534    22950799.886
         7.000           7.750
                  -6012535.915 5  -4685093.472 5  22770250.815    22770254.605
         9.000          10.250
                   6290907.490 5   4902000.475 6  21721468.214    21721473.062
        11.500          13.750
 95  4 21 20 30 14.9990000  0  6G 2G 7G12G 4G26G27
                  -1657133.553 6  -1291273.149 6  20977782.972    20977786.905
        18.250          20.000
                  -6022646.451 6  -4692968.367 6  19932582.878    19932585.819
        17.250          19.500
                 -10584247.677 6  -6675683.475 6  22140593.480    22140598.788
        13.000          13.500
                  -5409003.040 4  -4211589.763 5  22939204.776    22939210.687
         7.000           8.000
                  -6014839.972 5  -4686888.856 5  22769812.323    22769816.503
         9.250          10.500
                   6326431.063 5   4929681.148 6  21728228.175    21728232.843
        11.250          13.250
 95  4 21 20 30 29.9990000  0  6G 2G 7G12G 4G26G27
                  -1657851.973 6  -1291832.961 6  20977646.159    20977650.128
        18.250          20.250
                  -6026830.781 6  -4696228.880 6  19931786.737    19931789.429
        17.250          19.500
                 -10630486.553 6  -6711713.747 6  22131794.425    22131799.831
        13.000          13.750
                  -5469878.364 4  -4259025.027 5  22927620.464    22927626.765
         7.000           8.250
                  -6017022.046 5  -4688589.187 5  22769396.964    22769401.081
         9.250          10.750
                   6362028.342 5   4957419.257 6  21735002.058    21735006.304
        11.000          13.000
 95  4 21 20 30 44.9990000  0  6G 2G 7G12G 4G26G27
                  -1658531.699 6  -1292362.624 6  20977517.386    20977520.956
        18.750          20.500
                  -6030918.299 6  -4699413.954 6  19931009.003    19931011.616
        17.250          19.250
                 -10676696.030 6  -6747721.112 6  22123001.230    22123006.315
        13.000          13.500
                  -5530727.179 5  -4306439.643 5  22916041.745    22916046.952
         7.500           8.000
                  -6019082.257 5  -4690194.562 5  22769004.933    22769009.093
         9.250          10.750
                   6397696.513 5   4985212.604 6  21741789.698    21741793.706
        10.750          12.750
 95  4 21 20 30 59.9990000  0  6G 2G 7G12G 4G26G27
                  -1659171.078 6  -1292860.845 6  20977395.394    20977399.304
        18.500          20.500
                  -6034906.488 6  -4702521.631 6  19930250.112    19930252.874
        17.250          19.500
                 -10722874.651 6  -6783704.432 6  22114213.480    22114218.569
        13.000          13.500
                  -5591546.637 4  -4353831.368 5  22904468.058    22904473.347
         7.250           7.750
                  -6021018.578 5  -4691703.394 5  22768636.456    22768640.897
         9.250          10.750
                   6433437.206 5   5013062.462 6  21748591.042    21748594.878
        10.750          12.500
 95  4 21 20 31 14.9990000  0  6G 2G 7G12G 4G26G27
                  -1659769.572 6  -1293327.214 6  20977281.230    20977285.284
        18.250          20.500
                  -6038794.508 6  -4705551.251 6  19929510.112    19929512.882
        17.250          19.500
                 -10769023.324 6  -6819664.421 6  22105431.730    22105436.772
        13.000          13.750
                  -5652334.402 5  -4401198.418 5  22892900.737    22892904.940
         7.500           7.500
                  -6022832.458 5  -4693116.825 5  22768291.167    22768295.663
         9.250          10.750
                   6469251.628 5   5040969.766 6  21755406.097    21755410.214
        10.750          12.500
 95  4 21 20 31 29.9990000  0  6G 2G 7G12G 4G26G27
                  -1660326.670 6  -1293761.322 6  20977175.237    20977179.198
        18.500          20.250
                  -6042580.074 6  -4708501.038 6  19928789.659    19928792.487
        17.000          19.500
                 -10815142.277 6  -6855601.249 6  22096655.534    22096660.874
        13.250          14.000
                  -5713090.239 5  -4448540.582 5  22881338.737    22881343.718
         7.500           7.750
                  -6024525.876 5  -4694436.385 5  22767969.159    22767973.421
         9.250          10.750
                   6505143.079 5   5068937.098 6  21762236.058    21762240.522
        10.750          13.000
 95  4 21 20 31 44.9990000  0  6G 2G 7G12G 4G26G27
                  -1660837.157 6  -1294159.110 6  20977078.370    20977082.124
        18.750          20.500
                  -6046260.473 6  -4711368.878 6  19928089.175    19928092.214
        17.000          19.500
                 -10861229.522 6  -6891513.362 6  22087885.651    22087890.632
        13.250          14.000
                  -5773812.205 5  -4495856.353 5  22869783.339    22869788.687
         7.500           7.750
                  -6026095.642 5  -4695659.592 5  22767670.292    22767674.792
         9.000          10.750
                   6541119.368 5   5096970.536 6  21769082.230    21769086.964
        10.750          13.500
 95  4 21 20 31 59.9990000  0  6G 2G 7G12G 4G26G27
                  -1661300.715 6  -1294520.326 6  20976990.105    20976993.972
        18.750          20.500
                  -6049834.376 6  -4714153.734 6  19927409.222    19927412.218
        17.000          19.500
                 -10907286.308 6  -6927401.749 6  22079121.472    22079126.390
        13.500          14.000
                  -5834502.133 5  -4543147.163 5  22858234.761    22858240.101
         7.500           8.250
                  -6027540.955 5  -4696785.823 5  22767395.026    22767399.675
         9.000          10.750
                   6577179.384 5   5125069.208 6  21775944.503    21775949.093
        10.750          13.750
 95  4 21 20 32 14.9990000  0  6G 2G 7G12G 4G26G27
                  -1661715.894 6  -1294843.848 6  20976911.003    20976915.089
        18.500          20.500
                  -6053299.409 6  -4716853.759 6  19926749.815    19926752.925
        17.000          19.750
                 -10953312.647 6  -6963266.410 6  22070362.612    22070367.761
        13.250          14.000
                  -5895164.904 5  -4590416.791 5  22846691.151    22846696.476
         7.500           8.250
                  -6028861.867 5  -4697815.126 5  22767143.534    22767148.147
         9.000          10.500
                   6613322.081 5   5153232.318 6  21782822.222    21782826.991
        11.000          13.750
 95  4 21 20 32 29.9980000  0  6G 2G 7G12G 4G26G27
                  -1662081.516 6  -1295128.755 6  20976841.342    20976845.721
        18.500          20.500
                  -6056651.534 6  -4719465.802 6  19926112.107    19926115.283
        17.000          20.250
                 -10999303.910 6  -6999103.740 6  22061610.787    22061615.705
        13.500          13.750
                  -5955798.425 5  -4637663.644 5  22835153.170    22835158.467
         7.750           8.500
                  -6030059.313 5  -4698748.221 5  22766915.764    22766920.311
         9.000          10.250
                   6649548.734 5   5181460.840 6  21789715.561    21789720.783
        10.750          14.000
 95  4 21 20 32 44.9980000  0  6G 2G 7G12G 4G26G27
                  -1662398.409 6  -1295375.690 6  20976781.639    20976785.256
        18.750          20.250
                  -6059894.397 6  -4721992.705 6  19925495.053    19925498.135
        17.250          20.250
                 -11045268.583 6  -7034920.352 6  22052863.811    22052868.982
        13.250          13.750
                  -6016412.256 5  -4684895.152 5  22823618.498    22823624.244
         7.750           9.000
                  -6031138.128 5  -4699588.874 5  22766710.451    22766715.068
         8.750          10.250
                   6685867.419 5   5209761.074 6  21796626.811    21796631.713
        10.750          13.750
 95  4 21 20 32 59.9980000  0  6G 2G 7G12G 4G26G27
                  -1662667.007 6  -1295584.987 6  20976730.342    20976733.916
        18.750          20.000
                  -6063029.005 6  -4724435.253 6  19924898.584    19924901.502
        17.250          20.250
                 -11091201.492 6  -7070712.210 6  22044123.209    22044128.506
        13.500          14.000
                  -6076997.548 5  -4732104.415 5  22812088.959    22812095.135
         7.500           9.000
                  -6032096.676 5  -4700335.815 5  22766528.537    22766532.818
         9.000          10.500
                   6722281.452 5   5238135.611 6  21803556.537    21803561.045
        10.750          13.250
 95  4 21 20 33 14.9980000  0  6G 2G 7G12G 4G26G27
                  -1662888.379 6  -1295757.490 6  20976687.740    20976691.900
        18.250          20.250
                  -6066060.456 6  -4726797.422 6  19924321.537    19924324.596
        17.250          20.250
                 -11137103.551 6  -7106480.036 6  22035388.490    22035393.408
        13.750          14.000
                  -6137555.329 5  -4779292.236 5  22800565.404    22800571.018
         7.750           9.000
                  -6032937.008 5  -4700990.636 5  22766368.225    22766372.787
         9.000          10.500
                   6758788.638 5   5266582.733 6  21810503.725    21810508.311
        10.750          13.250
 95  4 21 20 33 29.9980000  0  6G 2G 7G12G 4G26G27
                  -1663062.825 6  -1295893.427 6  20976654.857    20976658.963
        18.250          20.500
                  -6068988.649 6  -4729079.126 6  19923764.373    19923767.424
        17.250          20.250
                 -11182973.969 6  -7142223.207 6  22026659.600    22026664.522
        13.750          14.000
                  -6198086.264 5  -4826459.151 5  22789047.240    22789052.506
         8.250           9.250
                  -6033659.095 5  -4701553.317 5  22766230.998    22766235.311
         9.000          10.250
                   6795388.490 5   5295102.055 6  21817468.482    21817473.182
        10.750          13.000
 95  4 21 20 33 44.9980000  0  6G 2G 7G12G 4G26G27
                  -1663192.561 6  -1295994.523 6  20976630.115    20976634.076
        18.500          20.250
                  -6071815.604 6  -4731281.944 6  19923226.404    19923229.299
        17.250          20.250
                 -11228812.691 6  -7177941.672 6  22017936.725    22017942.002
        13.750          14.250
                  -6258592.329 5  -4873606.682 5  22777532.725    22777538.791
         7.750           9.500
                  -6034262.014 5  -4702023.141 5  22766116.397    22766120.736
         9.000          10.250
                   6832079.628 5   5323692.513 6  21824450.764    21824454.967
        11.000          12.500
 95  4 21 20 33 59.9980000  0  6G 2G 7G12G 4G26G27
                  -1663279.121 6  -1296061.972 6  20976613.732    20976617.576
        18.250          20.250
                  -6074543.818 6  -4733407.819 6  19922707.272    19922710.408
        17.250          20.250
                 -11274618.595 6  -7213634.563 6  22009220.186    22009225.350
        14.000          14.250
                  -6319070.292 5  -4920732.322 5  22766024.037    22766030.260
         7.750           9.750
                  -6034744.644 5  -4702399.235 5  22766024.607    22766029.045
         9.000          10.500
                   6868858.581 5   5352351.402 6  21831449.381    21831453.783
        10.750          12.250
 95  4 21 20 34 14.9980000  0  6G 2G 7G12G 4G26G27
                  -1663324.916 6  -1296097.660 6  20976604.717    20976609.174
        18.250          21.000
                  -6077174.957 6  -4735458.054 6  19922206.482    19922209.627
        17.000          20.250
                 -11320392.461 6  -7249302.495 6  22000509.740    22000514.729
        14.000          14.000
                  -6379520.161 5  -4967836.051 5  22754520.967    22754527.002
         8.000          10.000
                  -6035114.605 5  -4702687.537 5  22765954.209    22765958.689
         9.000          10.500
                   6905721.886 5   5381076.019 6  21838464.076    21838468.529
        11.000          12.000
 95  4 21 20 34 29.9980000  0  6G 2G 7G12G 4G26G27
                  -1663326.435 6  -1296098.854 6  20976604.561    20976608.916
        18.250          21.000
                  -6079711.094 6  -4737434.260 6  19921723.600    19921726.760
        17.000          20.250
                 -11366133.021 6  -7284944.471 6  21991805.498    21991810.744
        13.750          14.250
                  -6439936.241 5  -5014913.464 5  22743024.217    22743030.158
         7.750          10.000
                  -6035375.088 5  -4702890.528 5  22765904.631    22765909.166
         8.750          10.250
                   6942671.132 5   5409867.610 5  21845495.373    21845499.783
        11.000          11.750
 95  4 21 20 34 44.9980000  0  6G 2G 7G12G 4G26G27
                  -1663282.606 6  -1296064.703 6  20976613.022    20976616.775
        18.500          20.500
                  -6082155.994 6  -4739339.374 6  19921258.631    19921261.627
        17.000          20.250
                 -11411840.525 6  -7320560.692 6  21983107.693    21983112.701
        13.750          14.000
                  -6500312.787 5  -5061960.065 5  22731534.529    22731540.369
         7.500           9.750
                  -6035527.616 5  -4703009.403 5  22765875.568    22765879.889
         8.750          10.250
                   6979704.181 5   5438724.506 6  21852542.522    21852546.936
        11.000          12.000
 95  4 21 20 34 59.9980000  0  6G 2G 7G12G 4G26G27
                  -1663195.130 6  -1295996.543 6  20976629.334    20976633.580
        18.000          20.750
                  -6084510.321 6  -4741173.910 6  19920810.693    19920813.635
        17.000          20.250
                 -11457516.389 6  -7356152.254 6  21974415.647    21974421.029
        13.750          14.250
                  -6560649.025 5  -5108975.256 5  22720052.662    22720058.932
         7.500           9.500
                  -6035573.513 5  -4703045.186 5  22765866.928    22765871.193
         9.000          10.250
                   7016816.442 5   5467643.125 6  21859604.842    21859609.232
        11.250          12.250
 95  4 21 20 35 14.9980000  0  6G 2G 7G12G 4G26G27
                  -1663062.900 6  -1295893.513 6  20976654.850    20976658.971
        18.250          21.000
                  -6086770.135 6  -4742934.800 6  19920380.725    19920383.506
        17.000          20.250
                 -11503158.481 6  -7391717.502 6  21965730.147    21965735.451
        13.750          14.000
                  -6620943.091 5  -5155957.600 5  22708579.045    22708585.029
         7.500           9.500
                  -6035511.680 5  -4702997.019 5  22765878.568    22765882.897
         9.000          10.500
                   7054007.382 5   5496623.039 6  21866681.998    21866686.732
        10.750          12.500
 95  4 21 20 35 29.9980000  0  6G 2G 7G12G 4G26G27
                  -1662883.280 6  -1295753.555 6  20976688.772    20976692.947
        18.250          21.000
                  -6088931.459 6  -4744618.943 6  19919969.342    19919972.166
        17.000          20.250
                 -11548765.073 6  -7427255.089 6  21957051.522    21957056.643
        13.750          14.000
                  -6681192.760 5  -5202905.339 5  22697114.287    22697120.029
         7.750           9.250
                  -6035342.324 5  -4702865.072 5  22765910.975    22765915.561
         9.000          10.750
                   7091277.467 5   5525664.621 6  21873774.326    21873778.795
        10.750          12.500
 95  4 21 20 35 44.9980000  0  6G 2G 7G12G 4G26G27
                  -1662658.168 6  -1295578.148 6  20976731.412    20976735.639
        18.250          20.500
                  -6090991.698 6  -4746224.321 6  19919577.201    19919580.322
        16.750          20.250
                 -11594335.207 6  -7462764.269 6  21948379.795    21948384.963
        13.750          14.000
                  -6741394.728 5  -5249815.910 5  22685657.732    22685663.373
         7.500           9.000
                  -6035063.994 5  -4702648.212 5  22765964.006    22765968.432
         9.000          10.500
                   7128628.349 5   5554769.177 6  21880881.818    21880886.705
        10.250          12.500
 95  4 21 20 35 59.9980000  0  6G 2G 7G12G 4G26G27
                  -1662387.059 6  -1295366.898 6  20976783.318    20976787.303
        18.250          20.500
                  -6092951.396 6  -4747751.352 6  19919204.256    19919207.479
        16.500          20.500
                 -11639869.204 6  -7498245.287 6  21939714.975    21939720.025
        13.500          13.750
                  -6801546.602 5  -5296687.447 5  22674211.811    22674216.666
         7.750           8.500
                  -6034678.465 5  -4702347.814 5  22766037.561    22766041.592
         9.000          10.250
                   7166058.583 5   5583935.555 6  21888004.459    21888009.787
        10.000          12.750
 95  4 21 20 36 14.9980000  0  6G 2G 7G12G 4G26G27
                  -1662068.571 6  -1295118.729 6  20976844.240    20976847.779
        18.750          20.000
                  -6094813.729 6  -4749202.519 6  19918849.897    19918853.189
        16.500          20.750
                 -11685368.547 6  -7533699.306 6  21931056.873    21931061.807
        13.750          14.000
                  -6861650.693 5  -5343521.763 5  22662774.701    22662778.951
         8.000           8.500
                  -6034187.806 5  -4701965.503 5  22766131.045    22766135.045
         9.250          10.250
                   7203566.190 5   5613162.221 6  21895141.982    21895147.381
         9.750          13.000
 95  4 21 20 36 29.9980000  0  6G 2G 7G12G 4G26G27
                  -1661702.294 6  -1294833.318 6  20976913.881    20976917.522
        18.750          19.750
                  -6096578.999 6  -4750578.054 6  19918513.928    19918517.314
        16.500          21.000
                 -11730832.988 6  -7569126.124 6  21922405.201    21922410.334
        13.750          14.250
                  -6921708.732 5  -5390320.185 5  22651345.006    22651350.826
         7.750           8.750
                  -6033590.203 5  -4701499.860 5  22766244.725    22766248.623
         9.250          10.000
                   7241151.287 5   5642449.263 6  21902294.022    21902299.518
         9.500          13.000
 95  4 21 20 36 44.9980000  0  6G 2G 7G12G 4G26G27
                  -1661288.489 6  -1294510.878 6  20976992.147    20976996.311
        18.250          20.000
                  -6098248.776 6  -4751879.174 6  19918196.006    19918199.502
        16.500          21.000
                 -11776262.083 6  -7604525.398 6  21913760.311    21913765.256
        13.750          14.250
                  -6981720.415 5  -5437082.478 5  22639925.225    22639930.850
         7.500           8.750
                  -6032880.247 5  -4700946.667 5  22766379.795    22766383.369
         9.250          10.000
                   7278813.457 5   5671796.359 6  21909460.842    21909466.178
         9.250          12.500
 95  4 21 20 36 59.9980000  0  6G 2G 7G12G 4G26G27
                  -1660829.188 6  -1294152.986 6  20977079.787    20977083.814
        18.250          20.000
                  -6099820.640 6  -4753104.000 6  19917896.982    19917900.404
        16.250          21.000
                 -11821655.268 6  -7639896.693 6  21905122.170    21905127.311
        13.750          14.250
                  -7041690.003 5  -5483811.972 5  22628513.529    22628518.846
         8.000           8.500
                  -6032054.636 5  -4700303.352 5  22766536.709    22766540.584
         9.000          10.000
                   7316554.544 5   5701204.958 6  21916643.029    21916647.873
         9.500          12.250
 95  4 21 20 37 14.9980000  0  6G 2G 7G12G 4G26G27
                  -1660325.522 6  -1293760.524 6  20977175.936    20977179.510
        18.750          19.750
                  -6101294.546 6  -4754252.496 6  19917616.623    19917619.928
        16.250          21.000
                 -11867012.249 6  -7675239.771 6  21896491.100    21896496.111
        13.750          14.250
                  -7101617.846 5  -5530508.947 5  22617109.811    22617114.580
         8.250           8.500
                  -6031111.962 5  -4699568.817 5  22766716.147    22766720.432
         9.000          10.000
                   7354375.687 5   5730675.943 5  21923840.115    21923844.639
         9.750          11.750
 95  4 21 20 37 29.9980000  0  6G 2G 7G12G 4G26G27
                  -1659777.400 6  -1293333.414 6  20977280.209    20977283.916
        18.750          19.750
                  -6102674.134 6  -4755327.496 6  19917354.115    19917357.279
        16.500          21.250
                 -11912334.548 6  -7710555.831 6  21887866.311    21887871.357
        13.750          14.250
                  -7161504.763 5  -5577174.034 5  22605713.607    22605718.807
         8.250           9.000
                  -6030051.968 5  -4698742.867 5  22766917.889    22766921.857
         9.000          10.000
                   7392276.177 5   5760208.749 5  21931052.357    21931057.002
         9.750          11.500
 95  4 21 20 37 44.9980000  0  6G 2G 7G12G 4G26G27
                  -1659186.317 6  -1292872.833 6  20977392.303    20977396.537
        18.250          20.250
                  -6103963.141 6  -4756331.912 6  19917108.756    19917112.045
        16.250          21.250
                 -11957622.421 6  -7745845.062 6  21879248.568    21879253.537
        13.750          14.250
                  -7221351.918 5  -5623808.116 5  22594325.186    22594330.506
         8.250           9.250
                  -6028872.735 5  -4697823.999 5  22767142.022    22767146.338
         9.000          10.000
                   7430255.435 5   5789802.940 5  21938279.803    21938284.545
        10.000          11.750
 95  4 21 20 37 59.9980000  0  6G 2G 7G12G 4G26G27
                  -1658551.082 6  -1292377.850 6  20977513.553    20977517.803
        18.500          20.250
                  -6105163.104 6  -4757266.943 6  19916880.342    19916883.846
        16.250          21.500
                 -12002874.848 6  -7781106.673 6  21870637.068    21870642.104
        13.750          14.250
                  -7281162.326 5  -5670413.585 5  22582943.709    22582948.494
         8.750           9.250
                  -6027572.044 5  -4696810.489 5  22767389.436    22767393.971
         8.750          10.000
                   7468314.361 5   5819459.210 5  21945522.326    21945527.045
        10.000          11.750
 95  4 21 20 38 14.9980000  0  6G 2G 7G12G 4G26G27
                  -1657870.067 6  -1291847.193 6  20977642.920    20977646.994
        18.500          20.250
                  -6106276.911 6  -4758134.843 6  19916668.209    19916671.846
        16.000          21.750
                 -12048092.018 6  -7816340.815 6  21862032.545    21862037.471
        13.750          14.250
                  -7340937.832 5  -5716991.856 5  22571568.514    22571574.088
         8.500           9.250
                  -6026150.882 5  -4695703.110 5  22767659.826    22767664.455
         8.500          10.000
                   7506452.760 5   5849177.403 6  21952779.529    21952784.611
         9.750          12.250
 95  4 21 20 38 29.9980000  0  7G 2G 7G12G 9G 4G26G27
                  -1657145.377 6  -1291282.501 6  20977780.928    20977784.869
        18.500          20.250
                  -6107305.478 6  -4758936.320 6  19916472.412    19916476.424
        15.750          21.750
                 -12093274.513 6  -7851547.937 6  21853434.787    21853439.666
        14.250          14.250
                    -43872.880 3    -34186.38215  23782290.600    23782294.967
         6.000           6.000
                  -7400679.610 5  -5763543.831 5  22560199.779    22560204.826
         8.500           9.250
                  -6024608.738 5  -4694501.458 5  22767953.318    22767957.705
         8.500          10.000
                   7544667.632 5   5878955.178 6  21960051.967    21960056.627
         9.750          12.000
 95  4 21 20 38 44.9980000  0  7G 2G 7G12G 9G 4G26G27
                  -1656376.636 6  -1290683.485 6  20977927.154    20977931.029
        18.750          20.000
                  -6108245.861 6  -4759669.085 6  19916293.623    19916297.580
        15.500          21.750
                 -12138422.437 6  -7886728.124 6  21844843.607    21844848.107
        14.500          14.250
                   -103679.574 3    -80788.996 5  23770908.670    23770913.689
         5.500           5.750
                  -7460385.572 5  -5810067.907 5  22548838.264    22548843.314
         8.750           9.750
                  -6022949.389 5  -4693208.477 5  22768269.240    22768273.584
         8.500          10.000
                   7582957.777 5   5908791.610 6  21967338.225    21967342.932
        10.000          12.000
 95  4 21 20 38 59.9980000  0  7G 2G 7G12G 9G 4G26G27
                  -1655563.262 6  -1290049.691 6  20978081.772    20978085.885
        18.250          20.250
                  -6109095.125 6  -4760330.847 6  19916131.803    19916135.611
        15.500          21.750
                 -12183534.633 6  -7921880.467 6  21836258.764    21836263.857
        14.250          14.750
                   -163457.328 3   -127369.040 5  23759533.631    23759538.518
         6.000           6.000
                  -7520054.686 5  -5856563.268 5  22537483.928    22537488.717
         8.750          10.000
                  -6021172.619 5  -4691824.002 5  22768607.420    22768611.795
         8.500          10.000
                   7621323.356 5   5938686.818 5  21974638.959    21974643.572
         9.750          11.750
 95  4 21 20 39 14.9980000  0  7G 2G 7G12G 9G 4G26G27
                  -1654705.456 6  -1289381.281 6  20978245.123    20978249.451
        18.500          20.500
                  -6109851.181 6  -4760919.982 6  19915988.115    19915991.744
        15.500          21.750
                 -12228610.632 6  -7957004.600 6  21827681.162    21827686.240
        14.000          14.750
                   -223206.810 4   -173927.064 5  23748164.357    23748167.701
         6.250           5.500
                  -7579685.117 5  -5903028.485 5  22526135.818    22526141.772
         8.250          10.000
                  -6019280.269 5  -4690349.466 5  22768967.318    22768971.994
         8.250          10.000
                   7659764.912 5   5968641.231 5  21981954.443    21981959.025
        10.000          11.750
 95  4 21 20 39 29.9980000  0  7G 2G 7G12G 9G 4G26G27
                  -1653804.700 6  -1288679.398 6  20978416.912    20978420.873
        18.750          20.250
                  -6110514.942 6  -4761437.196 6  19915861.772    19915865.330
        15.500          21.750
                 -12273650.196 6  -7992100.351 6  21819110.287    21819115.201
        14.000          14.750
                   -282927.974 3   -220463.007 5  23736799.045    23736803.424
         5.750           6.000
                  -7639276.586 5  -5949463.343 5  22514796.037    22514801.939
         8.250          10.000
                  -6017272.571 5  -4688785.044 5  22769349.498    22769353.873
         8.500           9.750
                   7698281.012 5   5998653.733 6  21989283.865    21989288.439
        10.000          12.000
 95  4 21 20 39 44.9980000  0  7G 2G 7G12G 9G 4G26G27
                  -1652862.856 6  -1287945.497 6  20978595.982    20978599.713
        18.500          19.750
                  -6111087.108 6  -4761883.035 6  19915752.732    19915756.416
        15.500          21.500
                 -12318653.559 6  -8027167.887 6  21810546.514    21810551.494
        14.250          14.750
                   -342619.852 3   -266976.133 5  23725440.568    23725444.541
         6.000           6.000
                  -7698830.750 5  -5995869.137 5  22503463.857    22503469.768
         8.500          10.750
                  -6015151.433 5  -4687132.221 5  22769752.764    22769757.643
         8.250          10.000
                   7736869.993 5   6028723.030 6  21996627.209    21996631.928
        10.250          12.000
 95  4 21 20 39 59.9980000  0  7G 2G 7G12G 9G 4G26G27
                  -1651879.677 6  -1287179.388 6  20978782.795    20978786.650
        18.250          19.750
                  -6111567.573 6  -4762257.422 6  19915661.498    19915665.104
        15.500          21.500
                 -12363619.958 6  -8062206.628 6  21801989.709    21801994.420
        14.500          14.750
                   -402281.035 4   -313465.341 5  23714087.522    23714091.471
         6.250           6.000
                  -7758347.914 5  -6042246.093 5  22492138.061    22492143.291
         8.500          10.500
                  -6012918.778 5  -4685392.509 5  22770177.740    22770182.510
         8.500          10.250
                   7775532.401 5   6058849.537 6  22003984.350    22003989.299
        10.250          12.250
 95  4 21 20 40 14.9980000  0  7G 2G 7G12G 9G 4G26G27
                  -1650853.853 6  -1286380.048 6  20978978.107    20978982.033
        18.250          20.000
                  -6111954.109 6  -4762558.618 6  19915587.897    19915591.525
        15.500          21.500
                 -12408549.966 6  -8097217.013 6  21793439.818    21793444.522
        14.500          14.750
                   -461915.107 3   -359933.420 5  23702738.850    23702743.420
         6.000           6.250
                  -7817825.642 5  -6088592.320 5  22480819.600    22480825.018
         8.250          10.500
                  -6010577.506 5  -4683568.162 5  22770623.709    22770628.510
         8.500          10.250
                   7814265.363 5   6089031.023 5  22011354.936    22011359.686
        10.000          11.750
 95  4 21 20 40 29.9980000  0  7G 2G 7G12G 9G 4G26G27
                  -1649781.798 6  -1285544.687 6  20979182.232    20979186.393
        18.250          20.250
                  -6112242.972 6  -4762783.705 6  19915532.709    19915536.373
        15.250          21.500
                 -12453441.946 6  -8132197.760 6  21784897.147    21784901.990
        14.500          15.000
                   -521520.012 3   -406378.771 5  23691396.365    23691400.572
         6.000           6.250
                  -7877260.089 5  -6134904.825 5  22469509.514    22469514.709
         8.500          10.250
                  -6008128.712 5  -4681660.035 5  22771089.350    22771094.217
         8.500          10.250
                   7853068.550 5   6119267.229 5  22018738.990    22018743.760
        10.000          11.500
 95  4 21 20 40 44.9980000  0  7G 2G 7G12G 9G 4G26G27
                  -1648662.828 6  -1284672.770 6  20979395.076    20979399.111
        18.250          20.000
                  -6112431.822 6  -4762930.861 6  19915496.865    19915500.541
        15.250          21.750
                 -12498295.835 6  -8167148.822 6  21776361.639    21776366.564
        14.500          15.000
                   -581095.697 3   -452801.356 5  23680059.701    23680064.150
         6.000           6.250
                  -7936651.589 5  -6181183.873 5  22458207.600    22458213.127
         8.500          10.500
                  -6005573.002 5  -4679668.592 5  22771575.865    22771580.736
         8.500          10.250
                   7891943.994 5   6149559.736 5  22026136.725    22026141.580
        10.000          11.000
 95  4 21 20 40 59.9980000  0  7G 2G 7G12G 9G 4G26G27
                  -1647495.367 6  -1283763.065 6  20979617.248    20979621.100
        18.000          19.750
                  -6112519.541 6  -4762999.212 6  19915480.147    19915483.686
        15.000          21.750
                 -12543109.926 6  -8202068.873 6  21767833.959    21767838.689
        14.500          15.000
                   -640642.145 3   -499201.159 5  23668728.412    23668732.818
         6.000           6.250
                  -7995999.632 5  -6227429.045 5  22446913.967    22446919.764
         8.250          11.000
                  -6002908.090 5  -4677592.055 5  22772083.037    22772087.928
         8.500          10.250
                   7930896.333 5   6179912.169 5  22033549.264    22033553.920
        10.000          11.000
 95  4 21 20 41 14.9980000  0  7G 2G 7G12G 9G 4G26G27
                  -1646280.314 6  -1282816.276 6  20979848.373    20979852.381
        18.250          19.750
                  -6112508.121 6  -4762990.316 6  19915482.373    19915485.979
        15.000          21.750
                 -12587882.522 6  -8236956.589 6  21759313.897    21759318.729
        14.500          15.000
                   -700158.973 3   -545577.879 5  23657402.756    23657407.412
         6.000           6.750
                  -8055302.843 5  -6273639.286 5  22435628.686    22435634.170
         8.500          10.750
                  -6000130.700 5  -4675427.868 5  22772611.389    22772616.514
         8.500          10.250
                   7969927.800 5   6210326.253 5  22040976.576    22040981.701
         9.750          11.000
 95  4 21 20 41 29.9980000  0  7G 2G 7G12G 9G 4G26G27
                  -1645013.963 6  -1281829.512 6  20980089.678    20980093.311
        18.250          19.750
                  -6112399.825 6  -4762905.930 6  19915503.068    19915506.682
        15.250          22.000
                 -12632612.708 6  -8271811.264 6  21750802.006    21750806.729
        14.250          15.000
                   -759643.253 3   -591929.225 5  23646082.865    23646087.877
         6.000           6.750
                  -8114560.765 5  -6319814.246 5  22424352.451    22424357.182
         8.500          10.000
                  -5997240.543 5  -4673175.820 5  22773161.365    22773166.424
         8.500          10.250
                   8009038.220 5   6240801.856 5  22048419.100    22048423.920
         9.500          10.750
 95  4 21 20 41 44.9980000  0  7G 2G 7G12G 9G 4G26G27
                  -1643692.808 6  -1280800.042 6  20980340.811    20980344.834
        18.000          20.000
                  -6112194.905 6  -4762746.252 6  19915542.342    19915545.689
        15.500          22.000
                 -12677299.474 6  -8306632.104 6  21742298.357    21742303.143
        14.250          15.000
                   -819094.977 4   -638255.227 5  23634769.826    23634774.873
         6.250           7.000
                  -8173772.340 5  -6365953.098 5  22413084.865    22413089.814
         8.500          10.250
                  -5994239.649 5  -4670837.475 5  22773732.709    22773737.147
         8.500          10.000
                   8048225.799 5   6271337.591 5  22055876.084    22055881.057
         9.250          10.750
 95  4 21 20 41 59.9980000  0  7G 2G 7G12G 9G 4G26G27
                  -1642315.044 6  -1279726.466 6  20980603.100    20980607.131
        18.000          20.250
                  -6111894.977 6  -4762512.537 6  19915599.475    19915602.838
        15.500          21.750
                 -12721944.643 6  -8341420.530 6  21733802.615    21733807.549
        14.500          15.000
                   -878518.050 4   -684558.872 5  23623462.357    23623467.068
         6.250           7.000
                  -8232936.364 5  -6412054.882 5  22401826.162    22401831.572
         8.500          10.750
                  -5991132.429 5  -4668416.278 5  22774324.006    22774328.764
         8.500          10.000
                   8087487.555 5   6301931.119 5  22063347.248    22063352.510
         8.750          10.750
 95  4 21 20 42 14.9980000  0  7G 2G 7G12G 9G 4G26G27
                  -1640876.069 6  -1278605.191 6  20980876.873    20980880.826
        18.250          20.250
                  -6111496.675 6  -4762202.169 6  19915675.170    19915678.686
        15.750          21.750
                 -12766545.796 6  -8376174.661 6  21725315.295    21725320.084
        14.500          15.000
                   -937912.724 4   -730840.411 5  23612159.553    23612164.385
         6.250           7.000
                  -8292047.342 5  -6458115.327 5  22390578.287    22390583.076
         9.000          10.750
                  -5987915.722 5  -4665909.767 5  22774936.248    22774940.967
         8.500          10.000
                   8126823.230 5   6332582.248 5  22070832.795    22070837.658
         8.750          10.750
 95  4 21 20 42 29.9980000  0  7G 2G 7G12G 9G 4G26G27
                  -1639378.844 6  -1277438.527 6  20981161.545    20981165.756
        17.750          20.000
                  -6111001.755 6  -4761816.515 6  19915769.334    19915772.752
        15.750          21.750
                 -12811103.640 6  -8410895.043 6  21716836.147    21716840.982
        14.500          15.000
                   -997278.465 3   -777099.410 5  23600862.248    23600867.236
         5.750           6.750
                  -8351106.312 5  -6504135.260 5  22379339.373    22379344.275
         9.000          10.250
                  -5984590.955 5  -4663319.055 5  22775569.053    22775573.600
         8.500          10.000
                   8166231.686 5   6363290.094 5  22078332.264    22078336.881
         9.000          10.750
 95  4 21 20 42 44.9980000  0  7G 2G 7G12G 9G 4G26G27
                  -1637826.835 6  -1276229.171 6  20981457.053    20981461.186
        17.750          19.750
                  -6110414.017 6  -4761358.534 6  19915881.209    19915884.486
        15.750          21.750
                 -12855618.747 6  -8445582.127 6  21708365.201    21708370.068
        14.500          15.000
                  -1056614.682 3   -823335.388 5  23589571.068    23589576.260
         5.750           6.750
                  -8410113.041 5  -6550114.491 5  22368110.529    22368115.404
         9.000          10.000
                  -5981158.313 5  -4660644.292 5  22776222.131    22776226.760
         8.250          10.000
                   8205713.233 5   6394054.892 5  22085845.248    22085850.256
         9.000          11.000
 95  4 21 20 42 59.9980000  0  7G 2G 7G12G 9G 4G26G27
                  -1636224.840 6  -1274980.863 6  20981761.982    20981766.361
        17.750          20.250
                  -6109737.419 6  -4760831.311 6  19916009.897    19916013.260
        15.750          21.750
                 -12900092.755 6  -8480237.180 6  21699901.998    21699907.022
        14.250          15.000
                  -1115924.540 3   -869550.838 5  23578284.787    23578289.408
         5.750           6.250
                  -8469069.151 5  -6596054.277 5  22356891.920    22356897.256
         9.250          10.250
                  -5977620.038 5  -4657887.214 5  22776895.428    22776900.182
         8.000          10.250
                   8245265.456 5   6424874.762 5  22093371.842    22093377.076
         9.250          11.250
 95  4 21 20 43 14.9980000  0  7G 2G 7G12G 9G 4G26G27
                  -1634573.453 6  -1273694.072 6  20982076.389    20982080.705
        18.000          20.500
                  -6108974.033 6  -4760236.459 6  19916154.943    19916158.549
        15.500          21.750
                 -12944526.638 6  -8514860.971 6  21691446.428    21691451.564
        14.250          15.250
                  -1175207.135 3   -915745.027 5  23567003.553    23567008.439
         5.750           6.500
                  -8527975.139 5  -6641955.008 5  22345682.553    22345687.268
         9.500          10.500
                  -5973978.361 5  -4655049.566 5  22777588.514    22777593.158
         8.250          10.250
                   8284883.123 5   6455745.625 5  22100911.178    22100915.975
         9.750          11.250
 95  4 21 20 43 29.9980000  0  7G 2G 7G12G 9G 4G26G27
                  -1632869.857 6  -1272366.598 6  20982400.592    20982404.584
        18.000          20.250
                  -6108123.921 6  -4759574.033 6  19916316.756    19916320.365
        15.500          22.000
                 -12988919.593 6  -8549452.864 6  21682998.865    21683003.928
        14.500          15.500
                  -1234460.316 3   -961916.315 5  23555727.912    23555732.783
         6.000           6.500
                  -8586829.086 5  -6687815.185 5  22334482.428    22334487.295
         9.000          10.250
                  -5970235.235 5  -4652132.874 5  22778300.975    22778305.518
         8.250          10.250
                   8324565.012 5   6486666.528 5  22108462.303    22108466.811
         9.500          11.000
 95  4 21 20 43 44.9980000  0  7G 2G 7G12G 9G 4G26G27
                  -1631112.475 6  -1270997.212 6  20982734.522    20982738.760
        17.500          19.750
                  -6107185.455 6  -4758842.759 6  19916495.209    19916498.768
        15.500          22.000
                 -13033272.063 6  -8584013.216 6  21674558.998    21674563.732
        14.750          15.500
                  -1293683.688 4  -1008064.368 5  23544458.373    23544463.463
         6.250           7.000
                  -8645630.142 5  -6733634.147 5  22323293.193    22323297.408
         9.250          10.000
                  -5966391.784 5  -4649137.994 5  22779032.381    22779037.111
         8.500          10.500
                   8364311.907 5   6517638.084 5  22116025.881    22116030.494
         9.500          11.000
 95  4 21 20 43 59.9980000  0  7G 2G 7G12G 9G 4G26G27
                  -1629306.603 6  -1269590.042 6  20983078.334    20983082.279
        17.250          19.500
                  -6106160.968 6  -4758044.456 6  19916690.334    19916693.912
        15.750          22.250
                 -13077586.766 6  -8618544.135 6  21666126.061    21666130.979
        14.750          15.500
                  -1352880.353 4  -1054191.613 5  23533193.529    23533198.197
         6.250           7.000
                  -8704379.747 5  -6779413.023 5  22312113.498    22312117.689
         9.250          10.250
                  -5962450.904 5  -4646067.197 5  22779781.928    22779786.830
         8.500          10.250
                   8404124.087 5   6548660.519 5  22123601.709    22123606.584
         9.750          11.000
 95  4 21 20 44 14.9980000  0  7G 2G 7G12G 9G 4G26G27
                  -1627452.264 6  -1268145.100 6  20983431.311    20983435.107
        17.250          19.500
                  -6105048.935 6  -4757177.935 6  19916902.100    19916905.525
        15.750          22.250
                 -13121860.897 6  -8653043.445 6  21657700.928    21657705.897
        14.750          15.500
                  -1412044.603 4  -1100293.590 5  23521934.936    23521940.029
         6.500           7.250
                  -8763077.613 5  -6825151.576 5  22300943.436    22300948.354
         9.000          10.750
                  -5958408.193 5  -4642917.049 5  22780551.639    22780556.299
         8.500          10.250
                   8444006.411 5   6579737.611 5  22131191.295    22131196.447
        10.000          11.250
 95  4 21 20 44 29.9980000  0  7G 2G 7G12G 9G 4G26G27
                  -1625553.125 6  -1266665.250 6  20983792.490    20983797.029
        17.000          19.750
                  -6103850.927 6  -4756244.420 6  19917130.061    19917133.459
        15.750          22.250
                 -13166094.772 6  -8687511.385 6  21649283.365    21649288.291
        14.500          15.500
                  -1471173.879 4  -1146368.336 5  23510683.100    23510687.795
         6.750           7.000
                  -8821730.216 5  -6870854.855 5  22289782.154    22289787.229
         9.000          10.750
                  -5954263.180 5  -4639687.181 5  22781340.561    22781344.932
         8.500          10.000
                   8483962.022 5   6610871.810 5  22138794.701    22138799.572
        10.000          11.000
 95  4 21 20 44 44.9980000  0  7G 2G 7G12G 9G 4G26G27
                  -1623608.897 6  -1265150.278 6  20984162.272    20984167.041
        17.000          20.250
                  -6102565.987 6  -4755243.164 6  19917374.537    19917378.131
        15.750          22.000
                 -13210287.359 6  -8721947.151 6  21640873.834    21640878.713
        14.500          15.500
                  -1530265.112 4  -1192413.417 5  23499438.420    23499443.264
         6.750           7.000
                  -8880339.550 5  -6916524.424 5  22278629.420    22278634.178
         9.250          10.750
                  -5950016.368 5  -4636377.997 5  22782148.209    22782153.061
         8.500          10.000
                   8523994.103 5   6642065.595 5  22146412.506    22146417.033
         9.750          10.750
 95  4 21 20 44 59.9980000  0  7G 2G 7G12G 9G 4G26G27
                  -1621617.144 6  -1263598.272 6  20984541.834    20984545.967
        17.500          19.750
                  -6101191.436 6  -4754172.085 6  19917636.100    19917639.592
        15.750          22.000
                 -13254438.029 6  -8756350.251 6  21632472.084    21632477.139
        14.250          15.500
                  -1589318.878 4  -1238429.316 5  23488200.959    23488205.564
         6.750           7.000
                  -8938905.292 5  -6962160.038 5  22267484.404    22267489.545
         9.250          11.000
                  -5945667.097 5  -4632988.974 5  22782976.186    22782980.596
         8.500           9.750
                   8564102.858 5   6673319.134 5  22154045.029    22154049.541
         9.500          10.250
 95  4 21 20 45 14.9980000  0  7G 2G 7G12G 9G 4G26G27
                  -1619576.873 6  -1262008.450 6  20984929.982    20984934.010
        17.500          19.500
                  -6099726.674 6  -4753030.713 6  19917914.740    19917918.131
        15.750          22.000
                 -13298546.709 6  -8790720.639 6  21624078.490    21624083.494
        14.500          15.500
                  -1648334.642 4  -1284415.601 5  23476970.264    23476974.713
         6.750           7.000
                  -8997428.752 5  -7007762.691 5  22256347.334    22256353.080
         9.000          11.250
                  -5941215.040 5  -4629519.854 5  22783823.186    22783827.670
         8.750           9.750
                   8604288.294 5   6704632.421 5  22161692.084    22161697.076
         9.250          10.750
 95  4 21 20 45 29.9980000  0  7G 2G 7G12G 9G 4G26G27
                  -1617487.681 6  -1260380.507 6  20985327.600    20985331.186
        17.750          19.250
                  -6098171.746 6  -4751819.077 6  19918210.592    19918214.061
        15.750          21.750
                 -13342613.043 6  -8825058.027 6  21615692.904    21615698.084
        14.250          15.750
                  -1707310.733 4  -1330370.973 5  23465747.428    23465752.678
         6.750           7.250
                  -9055906.489 5  -7053329.714 5  22245219.451    22245225.064
         9.000          11.250
                  -5936657.562 5  -4625968.589 5  22784690.990    22784694.986
         9.000           9.500
                   8644552.975 5   6736007.450 5  22169353.920    22169359.006
         9.000          10.750
 95  4 21 20 45 44.9980000  0  7G 2G 7G12G 9G 4G26G27
                  -1615352.955 6  -1258717.082 6  20985733.881    20985737.650
        18.000          19.500
                  -6096527.267 6  -4750537.662 6  19918523.592    19918526.939
        15.750          21.750
                 -13386637.442 6  -8859362.737 6  21607315.467    21607320.537
        14.500          15.750
                  -1766249.476 4  -1376297.236 5  23454531.881    23454536.580
         6.750           7.500
                  -9114339.131 5  -7098861.609 5  22234100.389    22234105.318
         9.250          10.750
                  -5931994.327 5  -4622334.915 5  22785578.068    22785582.506
         8.750           9.750
                   8684897.854 5   6767444.965 5  22177031.162    22177036.514
         8.750          10.250
 95  4 21 20 45 59.9980000  0  7G 2G 7G12G 9G 4G26G27
                  -1613176.556 6  -1257021.189 6  20986147.725    20986152.193
        17.750          19.750
                  -6094792.399 6  -4749185.812 6  19918853.693    19918857.115
        15.750          21.750
                 -13430619.202 6  -8893634.219 6  21598945.811    21598951.049
        14.500          16.000
                  -1825149.583 4  -1422193.398 5  23443324.029    23443327.908
         6.750           7.250
                  -9172726.625 5  -7144358.327 5  22222989.693    22222994.248
         9.250          10.750
                  -5927223.948 5  -4618617.755 5  22786485.850    22786490.475
         8.500           9.750
                   8725320.585 5   6798943.146 5  22184723.709    22184728.854
         8.750          10.000
 95  4 21 20 46 14.9980000  0  7G 2G 7G12G 9G 4G26G27
                  -1610961.357 6  -1255295.069 6  20986569.397    20986573.400
        18.000          19.750
                  -6092965.669 6  -4747762.384 6  19919201.131    19919204.717
        15.750          22.000
                 -13474558.007 6  -8927872.234 6  21590584.795    21590589.818
        14.750          16.000
                  -1884010.948 4  -1468059.378 5  23432122.779    23432126.916
         6.750           7.250
                  -9231069.515 5  -7189820.283 5  22211887.467    22211892.338
         9.250          11.000
                  -5922345.006 5  -4614816.004 5  22787414.467    22787418.682
         8.500           9.750
                   8765817.873 5   6830499.424 5  22192429.982    22192435.346
         8.750          10.000
 95  4 21 20 46 29.9980000  0  7G 2G 7G12G 9G 4G26G27
                  -1608708.127 6  -1253539.308 6  20986998.029    20987001.885
        18.000          19.750
                  -6091044.920 6  -4746265.694 6  19919566.623    19919570.264
        15.750          22.000
                 -13518453.703 6  -8962076.660 6  21582231.678    21582236.568
        14.750          16.000
                  -1942834.758 4  -1513896.088 5  23420929.311    23420933.420
         7.000           7.500
                  -9289365.809 5  -7235245.924 5  22200794.115    22200799.178
         9.250          11.250
                  -5917356.030 5  -4610928.510 5  22788363.592    22788368.318
         8.250           9.750
                   8806386.223 5   6862111.074 5  22200149.920    22200155.494
         8.750          10.000
 95  4 21 20 46 44.9980000  0  7G 2G 7G12G 9G 4G26G27
                  -1606416.059 6  -1251753.280 6  20987434.506    20987438.400
        18.250          19.750
                  -6089027.785 6  -4744693.897 6  19919950.670    19919954.197
        15.750          22.250
                 -13562305.468 6  -8996246.848 6  21573886.928    21573891.846
        14.750          16.000
                  -2001622.004 4  -1559704.300 5  23409742.240    23409746.490
         6.750           7.500
                  -9347610.921 5  -7280631.695 5  22189710.053    22189714.936
         9.250          11.000
                  -5912257.140 5  -4606955.375 5  22789333.990    22789338.623
         8.250           9.750
                   8847023.782 5   6893776.647 5  22207883.061    22207888.447
         8.500           9.750
 95  4 21 20 46 59.9980000  0  7G 2G 7G12G 9G 4G26G27
                  -1604083.627 6  -1249935.799 6  20987878.115    20987882.330
        18.000          20.000
                  -6086916.244 6  -4743048.541 6  19920352.592    19920356.150
        15.750          22.250
                 -13606113.445 6  -9030382.919 6  21565550.584    21565555.334
        14.750          16.000
                  -2060374.356 4  -1605485.323 5  23398561.850    23398566.248
         6.750           7.750
                  -9405799.755 5  -7325973.613 5  22178636.967    22178642.072
         9.250          10.750
                  -5907047.775 5  -4602896.145 5  22790325.678    22790330.197
         8.500           9.750
                   8887726.457 5   6925492.964 5  22215629.037    22215634.182
         8.750           9.750
 95  4 21 20 47 14.9980000  0  7G 2G 7G12G 9G 4G26G27
                  -1601711.098 6  -1248087.083 6  20988329.514    20988333.885
        17.750          20.250
                  -6084713.268 6  -4741331.935 6  19920771.631    19920775.197
        15.750          22.250
                 -13649877.090 6  -9064484.445 6  21557222.686    21557227.506
        15.000          16.250
                  -2119093.681 4  -1651240.616 5  23387387.686    23387391.912
         6.500           7.500
                  -9463930.856 5  -7371270.538 5  22167575.350    22167580.479
         9.750          11.250
                  -5901725.444 5  -4598748.892 5  22791338.272    22791343.057
         8.500          10.000
                   8928494.188 5   6957259.973 5  22223386.498    22223391.611
         8.750           9.750
 95  4 21 20 47 29.9980000  0  7G 2G 7G12G 9G 4G26G27
                  -1599296.515 6  -1246205.595 6  20988789.561    20988793.541
        18.250          20.000
                  -6082418.705 6  -4739543.960 6  19921208.451    19921211.850
        15.750          22.250
                 -13693594.011 6  -9098549.562 6  21548903.631    21548908.393
        15.000          16.250
                  -2177775.818 4  -1696966.915 5  23376220.897    23376225.482
         6.500           7.750
                  -9522000.453 5  -7416519.546 5  22156525.131    22156529.990
         9.750          11.250
                  -5896287.743 5  -4594511.748 5  22792373.068    22792377.740
         8.500          10.000
                   8969327.935 5   6989078.420 5  22231156.561    22231161.752
         8.500           9.750
 95  4 21 20 47 44.9980000  0  7G 2G 7G12G 9G 4G26G27
                  -1596842.200 6  -1244293.140 6  20989256.498    20989260.154
        18.250          19.500
                  -6080033.867 6  -4737685.639 6  19921662.295    19921665.674
        15.750          22.000
                 -13737265.016 6  -9132578.901 6  21540593.311    21540597.959
        15.000          16.250
                  -2236422.114 4  -1742665.303 5  23365061.482    23365065.455
         6.750           7.750
                  -9580011.040 5  -7461722.562 5  22145485.631    22145490.518
         9.500          11.000
                  -5890738.022 5  -4590187.308 5  22793429.045    22793433.604
         8.500          10.000
                   9010224.286 5   7020945.645 5  22238939.115    22238944.439
         8.500          10.000
 95  4 21 20 47 59.9980000  0  7G 2G 7G12G 9G 4G26G27
                  -1594348.517 6  -1242350.006 6  20989730.631    20989734.557
        17.750          19.500
                  -6077560.323 6  -4735758.199 6  19922132.787    19922136.221
        16.000          22.000
                 -13780890.037 6  -9166572.409 6  21532291.795    21532296.443
        15.250          16.250
                  -2295032.169 4  -1788335.438 5  23353908.147    23353912.432
         7.000           8.000
                  -9637965.626 5  -7506881.951 5  22134457.404    22134461.854
         9.750          10.750
                  -5885078.473 5  -4585777.294 5  22794505.803    22794510.506
         8.500          10.000
                   9051180.757 5   7052859.721 5  22246733.436    22246738.748
         9.000          10.000
 95  4 21 20 48 14.9980000  0  7G 2G 7G12G 9G 4G26G27
                  -1591809.383 6  -1240371.465 6  20990213.936    20990218.260
        17.500          19.750
                  -6074995.796 6  -4733759.862 6  19922620.826    19922623.908
        16.250          21.750
                 -13824466.526 6  -9200528.099 6  21523999.482    21524004.072
        15.250          16.250
                  -2353604.147 5  -1833975.912 5  23342762.357    23342766.506
         7.500           8.000
                  -9695860.469 5  -7551994.793 5  22123440.443    22123444.885
         9.750          11.000
                  -5879307.951 5  -4581280.812 5  22795604.123    22795608.627
         8.500          10.000
                   9092200.749 5   7084823.300 5  22254539.131    22254544.463
         9.000          10.000
 95  4 21 20 48 29.9980000  0  7G 2G 7G12G 9G 4G26G27
                  -1589222.314 6  -1238355.575 6  20990706.201    20990710.318
        18.000          19.750
                  -6072344.003 6  -4731693.521 6  19923125.772    19923128.768
        16.500          21.750
                 -13867995.639 6  -9234446.873 6  21515715.873    21515720.854
        15.000          16.500
                  -2412140.786 5  -1879588.855 5  23331622.850    23331626.951
         7.500           7.750
                  -9753695.917 5  -7597061.341 5  22112434.248    22112439.811
         9.250          11.500
                  -5873430.871 5  -4576701.288 5  22796722.397    22796726.846
         8.250           9.750
                   9133286.799 5   7116838.346 5  22262357.357    22262363.053
         8.750          10.000
 95  4 21 20 48 44.9980000  0  7G 2G 7G12G 9G 4G26G27
                  -1586586.697 6  -1236301.851 6  20991207.951    20991211.709
        18.250          19.500
                  -6069611.387 6  -4729564.208 6  19923645.592    19923648.787
        16.500          21.750
                 -13911479.163 6  -9268330.118 6  21507441.256    21507446.178
        15.250          16.500
                  -2470642.857 5  -1925174.861 5  23320490.662    23320494.404
         7.500           7.500
                  -9811473.474 5  -7642082.770 5  22101439.912    22101445.029
         9.750          11.750
                  -5867452.234 5  -4572042.632 5  22797860.022    22797864.779
         8.250           9.750
                   9174438.524 5   7148904.563 5  22270188.373    22270193.736
         8.750          10.000
 95  4 21 20 48 59.9980000  0  7G 2G 7G12G 9G 4G26G27
                  -1583898.470 6  -1234207.132 6  20991719.303    20991723.514
        17.750          19.500
                  -6066799.029 6  -4727372.753 6  19924180.803    19924183.881
        16.500          21.750
                 -13954915.483 6  -9302176.586 6  21499175.678    21499180.572
        15.250          16.500
                  -2529107.965 5  -1970732.061 5  23309365.014    23309369.029
         7.500           7.250
                  -9869193.269 5  -7687059.202 5  22090456.389    22090461.119
         9.750          11.500
                  -5861371.822 5  -4567304.670 5  22799016.967    22799021.822
         8.000           9.750
                   9215658.184 5   7181023.722 5  22278032.693    22278037.627
         9.000           9.750
 95  4 21 20 49 14.9980000  0  7G 2G 7G12G 9G 4G26G27
                  -1581157.719 6  -1232071.488 6  20992240.936    20992244.986
        17.750          19.250
                  -6063906.728 6  -4725119.006 6  19924731.123    19924734.127
        16.500          21.500
                 -13998303.907 6  -9335985.734 6  21490919.139    21490924.213
        15.500          17.000
                  -2587535.617 5  -2016260.075 5  23298246.506    23298250.318
         7.500           7.000
                  -9926853.026 5  -7731988.852 5  22079483.607    22079488.686
         9.500          11.500
                  -5855190.169 5  -4562487.817 5  22800193.045    22800198.088
         7.750           9.750
                   9256946.861 5   7213196.664 5  22285889.834    22285894.955
         9.000          10.000
 95  4 21 20 49 29.9980000  0  7G 2G 7G12G 9G 4G26G27
                  -1578362.026 6  -1229893.024 6  20992773.123    20992776.635
        18.250          18.750
                  -6060929.019 6  -4722798.707 6  19925297.826    19925300.893
        16.750          21.750
                 -14041642.017 6  -9369755.674 6  21482671.975    21482677.150
        15.250          17.000
                  -2645919.951 4  -2061754.344 5  23287136.264    23287140.217
         7.250           7.000
                  -9984450.483 5  -7776869.951 5  22068523.107    22068528.326
         9.250          11.750
                  -5848907.687 5  -4557592.396 5  22801388.451    22801393.717
         7.750           9.750
                   9298306.762 5   7245425.099 5  22293759.826    22293765.635
         8.500          10.250
 95  4 21 20 49 44.9980000  0  7G 2G 7G12G 9G 4G26G27
                  -1575511.838 6  -1227672.097 6  20993315.256    20993319.213
        18.000          19.000
                  -6057862.749 6  -4720409.402 6  19925881.428    19925884.639
        16.750          22.000
                 -14084930.121 6  -9403486.647 6  21474434.389    21474439.725
        15.250          17.000
                  -2704259.784 4  -2107213.927 5  23276034.506    23276038.904
         7.000           7.250
                 -10041984.163 5  -7821701.351 6  22057574.967    22057580.111
         9.500          12.000
                  -5842528.042 5  -4552621.261 5  22802602.529    22802607.897
         7.750           9.750
                   9339735.740 5   7277707.349 5  22301643.647    22301649.236
         8.500          10.250
 95  4 21 20 49 59.9980000  0  7G 2G 7G12G 9G 4G26G27
                  -1572604.340 6  -1225406.517 6  20993868.545    20993872.611
        18.000          19.500
                  -6054707.707 6  -4717950.926 6  19926481.889    19926484.975
        17.000          21.750
                 -14128167.499 6  -9437178.095 6  21466206.756    21466211.791
        15.250          17.000
                  -2762555.085 4  -2152638.817 5  23264940.912    23264945.752
         7.000           7.500
                 -10099454.069 5  -7866483.052 6  22046638.506    22046643.842
         9.250          12.000
                  -5836049.771 5  -4547573.278 5  22803835.350    22803840.682
         7.750           9.750
                   9381233.924 5   7310043.528 5  22309540.787    22309545.764
         8.500          10.000
 95  4 21 20 50 14.9980000  0  7G 2G 7G12G 9G 4G26G27
                  -1569637.312 6  -1223094.553 6  20994433.303    20994437.197
        18.250          19.750
                  -6051463.172 6  -4715422.712 6  19927099.272    19927102.256
        16.750          21.750
                 -14171353.832 6  -9470829.767 6  21457988.647    21457993.647
        15.250          17.000
                  -2820804.743 5  -2198028.134 5  23253856.420    23253861.631
         7.500           7.750
                 -10156857.385 5  -7911212.870 6  22035715.279    22035720.592
         9.250          12.250
                  -5829471.173 5  -4542447.122 5  22805087.170    22805092.658
         7.750          10.000
                   9422801.609 5   7342433.877 5  22317450.998    22317455.846
         8.750          10.000
 95  4 21 20 50 29.9980000  0  7G 2G 7G12G 9G 4G26G27
                  -1566609.706 6  -1220735.379 6  20995009.506    20995013.791
        18.250          20.250
                  -6048128.072 6  -4712823.927 6  19927733.811    19927737.084
        16.750          21.750
                 -14214488.129 6  -9504440.891 6  21449780.436    21449785.514
        15.000          17.000
                  -2879007.935 5  -2243381.240 5  23242781.037    23242785.736
         7.500           7.750
                 -10214192.676 5  -7955889.681 6  22024804.818    22024810.084
         9.750          12.500
                  -5822791.324 5  -4537242.064 5  22806358.756    22806363.854
         7.750          10.000
                   9464439.594 5   7374879.010 5  22325374.107    22325379.506
         8.500          10.000
 95  4 21 20 50 44.9980000  0  7G 2G 7G12G 9G 4G26G27
                  -1563525.375 6  -1218332.016 6  20995595.920    20995600.506
        17.750          20.000
                  -6044705.722 6  -4710157.156 6  19928385.264    19928388.385
        16.750          21.750
                 -14257572.252 6  -9538012.922 6  21441581.904    21441586.861
        15.500          17.000
                  -2937164.418 4  -2288697.964 5  23231714.053    23231718.842
         7.250           7.750
                 -10271462.660 5  -8000515.599 6  22013906.162    22013911.647
         9.500          12.500
                  -5816011.271 5  -4531958.925 5  22807648.764    22807653.729
         7.750           9.750
                   9506141.703 5   7407374.098 5  22333309.787    22333315.451
         8.250          10.000
 95  4 21 20 50 59.9980000  0  7G 2G 7G12G 9G 4G26G27
                  -1560384.959 6  -1215884.944 6  20996193.654    20996197.510
        17.750          19.000
                  -6041194.303 6  -4707420.976 6  19929053.318    19929056.420
        16.500          21.750
                 -14300604.757 6  -9571544.725 6  21433393.170    21433398.174
        15.500          17.250
                  -2995270.069 4  -2333975.068 5  23220656.303    23220661.682
         6.750           8.000
                 -10328666.288 5  -8045089.812 6  22003020.865    22003026.147
         9.500          12.500
                  -5809128.260 5  -4526595.556 5  22808958.553    22808963.494
         7.500           9.750
                   9547906.550 5   7439918.081 5  22341257.600    22341263.037
         8.250           9.750
 95  4 21 20 51 14.9980000  0  7G 2G 7G12G 9G 4G26G27
                  -1557191.086 6  -1213396.211 6  20996801.576    20996805.162
        18.000          19.000
                  -6037593.538 6  -4704615.181 6  19929738.428    19929741.596
        16.500          21.500
                 -14343585.479 6  -9605036.185 6  21425214.053    21425218.998
        15.500          17.250
                  -3053325.845 4  -2379213.301 5  23209608.654    23209613.850
         6.750           8.250
                 -10385802.341 5  -8089611.372 6  21992148.365    21992153.260
         9.750          12.250
                  -5802142.139 5  -4521151.853 5  22810288.311    22810292.986
         7.750           9.750
                   9589732.853 5   7472509.949 5  22349216.584    22349222.244
         8.250           9.750
 95  4 21 20 51 29.9980000  0  7G 2G 7G12G 9G 4G26G27
                  -1553946.239 6  -1210867.761 6  20997419.537    20997423.221
        18.250          19.500
                  -6033905.547 6  -4701741.416 6  19930440.240    19930443.514
        16.500          21.500
                 -14386516.153 6  -9638488.641 6  21417044.639    21417049.701
        15.250          17.250
                  -3111332.000 4  -2424412.866 5  23198570.732    23198576.088
         7.000           8.250
                 -10442873.497 5  -8134082.358 6  21981287.951    21981292.897
         9.750          12.500
                  -5795054.817 5  -4515629.284 5  22811636.717    22811641.865
         7.750           9.750
                   9631618.132 5   7505147.768 5  22357187.279    22357192.772
         8.000          10.000
